[[{"header":{"parameterUnit":"m.s-1","parameterCategory":1,"la1":31.0,"la2":29.5877,"lo1":-88.7671,"lo2":-86.6584,"dx":0.0162,"dy":0.0185,"nx":115,"ny":88,"refTime":"2023-02-11T18:00:00:Z","depth":0,"parameterNumber":2,"parameterNumberName":"U-component_of_WINDS"},"data":[0.0,0.0,0.0,0.0,0.0,0.0,0.0,0.0,0.0,0.0,0.0,0.0,0.0,0.0,0.0,0.0,0.0,0.0,0.0,0.0,0.0,0.0,0.0,0.0,0.0,0.0,0.0,0.0,0.0,0.0,0.0,0.0,0.0,0.0,0.0,0.0,0.0,0.0,0.0,0.0,0.0,0.0,0.0,0.0,0.0,0.0,0.0,0.0,0.0,0.0,0.0,0.0,0.0,0.0,0.0,0.0,0.0,0.0,0.0,0.0,0.0,0.0,0.0,0.0,0.0,0.0,0.0,0.0,0.0,0.0,0.0,0.0,0.0,0.0,0.0,0.0,0.0,0.0,0.0,0.0,0.0,0.0,0.0,0.0,0.0,0.0,0.0,0.0,0.0,0.0,0.0,0.0,0.0,0.0,0.0,0.0,0.0,0.0,0.0,0.0,0.0,0.0,0.0,0.0,0.0,0.0,0.0,0.0,0.0,0.0,0.0,0.0,0.0,0.0,0.0,0.0,0.0,0.0,0.0,0.0,0.0,0.0,0.0,0.0,0.0,0.0,0.0,0.0,0.0,0.0,0.0,0.0,0.0,0.0,0.0,0.0,0.0,0.0,0.0,0.0,0.0,0.0,0.0,0.0,0.0,0.0,0.0,0.0,0.0,0.0,0.0,0.0,0.0,0.0,0.0,0.0,0.0,0.0,0.0,0.0,0.0,0.0,0.0,0.0,0.0,0.0,0.0,0.0,0.0,0.0,0.0,0.0,0.0,0.0,0.0,0.0,0.0,0.0,0.0,0.0,0.0,0.0,0.0,0.0,0.0,0.0,0.0,0.0,0.0,0.0,0.0,0.0,0.0,0.0,0.0,0.0,0.0,0.0,0.0,0.0,0.0,0.0,0.0,0.0,0.0,0.0,0.0,0.0,0.0,0.0,0.0,0.0,0.0,0.0,0.0,0.0,0.0,0.0,0.0,0.0,0.0,0.0,0.0,0.0,0.0,0.0,0.0,0.0,0.0,0.0,0.0,0.0,0.0,0.0,0.0,0.0,0.0,0.0,0.0,0.0,0.0,0.0,0.0,0.0,0.0,0.0,0.0,0.0,0.0,0.0,0.0,0.0,0.0,0.0,0.0,0.0,0.0,0.0,0.0,0.0,0.0,0.0,0.0,0.0,0.0,0.0,0.0,0.0,0.0,0.0,0.0,0.0,0.0,0.0,0.0,0.0,0.0,0.0,0.0,0.0,0.0,0.0,0.0,0.0,0.0,0.0,0.0,0.0,0.0,0.0,0.0,0.0,0.0,0.0,0.0,0.0,0.0,0.0,0.0,0.0,0.0,0.0,0.0,0.0,0.0,0.0,0.0,0.0,0.0,0.0,0.0,0.0,0.0,0.0,0.0,0.0,0.0,0.0,0.0,0.0,0.0,0.0,0.0,0.0,0.0,0.0,0.0,0.0,0.0,0.0,0.0,0.0,0.0,0.0,0.0,0.0,0.0,0.0,0.0,0.0,0.0,0.0,0.0,0.0,0.0,0.0,0.0,0.0,0.0,0.0,0.0,0.0,0.0,0.0,0.0,0.0,0.0,0.0,0.0,0.0,0.0,0.0,0.0,0.0,0.0,0.0,0.0,0.0,0.0,0.0,0.0,0.0,0.0,0.0,0.0,0.0,0.0,0.0,0.0,0.0,0.0,0.0,0.0,0.0,0.0,0.0,0.0,0.0,0.0,0.0,0.0,0.0,0.0,0.0,0.0,0.0,0.0,0.0,0.0,0.0,0.0,0.0,0.0,0.0,0.0,0.0,0.0,0.0,0.0,0.0,0.0,0.0,0.0,0.0,0.0,0.0,0.0,0.0,0.0,0.0,0.0,0.0,0.0,0.0,0.0,0.0,0.0,0.0,0.0,0.0,0.0,0.0,0.0,0.0,0.0,0.0,0.0,0.0,0.0,0.0,0.0,0.0,0.0,0.0,0.0,0.0,0.0,0.0,0.0,0.0,0.0,0.0,0.0,0.0,0.0,0.0,0.0,0.0,0.0,0.0,0.0,0.0,0.0,0.0,0.0,0.0,0.0,0.0,0.0,0.0,0.0,0.0,0.0,0.0,0.0,0.0,0.0,0.0,0.0,0.0,0.0,0.0,0.0,0.0,0.0,0.0,0.0,0.0,0.0,0.0,0.0,0.0,0.0,0.0,0.0,0.0,0.0,0.0,0.0,0.0,0.0,0.0,0.0,0.0,0.0,0.0,0.0,0.0,0.0,0.0,0.0,0.0,0.0,0.0,0.0,0.0,0.0,0.0,0.0,0.0,0.0,0.0,0.0,0.0,0.0,0.0,0.0,0.0,0.0,0.0,0.0,0.0,0.0,0.0,0.0,0.0,0.0,0.0,0.0,0.0,0.0,0.0,0.0,0.0,0.0,0.0,0.0,0.0,0.0,0.0,0.0,0.0,0.0,0.0,0.0,0.0,0.0,0.0,0.0,0.0,0.0,0.0,0.0,0.0,0.0,0.0,0.0,0.0,0.0,0.0,0.0,0.0,0.0,0.0,0.0,0.0,0.0,0.0,0.0,0.0,0.0,0.0,0.0,0.0,0.0,0.0,0.0,0.0,0.0,0.0,0.0,0.0,0.0,0.0,0.0,0.0,0.0,0.0,0.0,0.0,0.0,0.0,0.0,0.0,0.0,0.0,0.0,0.0,0.0,0.0,0.0,0.0,0.0,0.0,0.0,0.0,0.0,0.0,0.0,0.0,0.0,0.0,0.0,0.0,0.0,0.0,0.0,0.0,0.0,0.0,0.0,0.0,0.0,0.0,0.0,0.0,0.0,0.0,0.0,0.0,0.0,0.0,0.0,0.0,0.0,0.0,0.0,0.0,0.0,0.0,0.0,0.0,0.0,0.0,0.0,0.0,0.0,0.0,0.0,0.0,0.0,0.0,0.0,0.0,0.0,0.0,0.0,0.0,0.0,0.0,0.0,0.0,0.0,0.0,0.0,0.0,0.0,0.0,0.0,0.0,0.0,0.0,0.0,0.0,0.0,0.0,0.0,0.0,0.0,0.0,0.0,0.0,0.0,0.0,0.0,0.0,0.0,0.0,0.0,0.0,0.0,0.0,0.0,0.0,0.0,0.0,0.0,0.0,0.0,0.0,0.0,0.0,0.0,0.0,0.0,0.0,0.0,0.0,0.0,0.0,0.0,0.0,0.0,0.0,0.0,0.0,0.0,0.0,0.0,0.0,0.0,0.0,0.0,0.0,0.0,0.0,0.0,0.0,0.0,0.0,0.0,0.0,0.0,0.0,0.0,0.0,0.0,0.0,0.0,0.0,0.0,0.0,0.0,0.0,0.0,0.0,0.0,0.0,0.0,0.0,0.0,0.0,0.0,0.0,0.0,0.0,0.0,0.0,0.0,0.0,0.0,0.0,0.0,0.0,0.0,0.0,0.0,0.0,0.0,0.0,0.0,0.0,0.0,0.0,0.0,0.0,0.0,0.0,0.0,0.0,0.0,0.0,0.0,0.0,0.0,0.0,0.0,0.0,0.0,0.0,0.0,0.0,0.0,0.0,0.0,0.0,0.0,0.0,0.0,0.0,0.0,0.0,0.0,0.0,0.0,0.0,0.0,0.0,0.0,0.0,0.0,0.0,0.0,0.0,0.0,0.0,0.0,0.0,0.0,0.0,0.0,0.0,0.0,0.0,0.0,0.0,0.0,0.0,0.0,0.0,0.0,0.0,0.0,0.0,0.0,0.0,0.0,0.0,0.0,0.0,0.0,0.0,0.0,0.0,0.0,0.0,0.0,0.0,0.0,0.0,0.0,0.0,0.0,0.0,0.0,0.0,0.0,0.0,0.0,0.0,0.0,0.0,0.0,0.0,0.0,0.0,0.0,0.0,0.0,0.0,0.0,0.0,0.0,0.0,0.0,0.0,0.0,0.0,0.0,0.0,0.0,0.0,0.0,0.0,0.0,0.0,0.0,0.0,0.0,0.0,0.0,0.0,0.0,0.0,0.0,0.0,0.0,0.0,0.0,0.0,0.0,0.0,0.0,0.0,0.0,0.0,0.0,0.0,0.0,0.0,0.0,0.0,0.0,0.0,0.0,0.0,0.0,0.0,0.0,0.0,0.0,0.0,0.0,0.0,0.0,0.0,0.0,0.0,0.0,0.0,0.0,0.0,0.0,0.0,0.0,0.0,0.0,0.0,0.0,0.0,0.0,0.0,0.0,0.0,0.0,0.0,0.0,0.0,0.0,0.0,0.0,0.0,0.0,0.0,0.0,0.0,1.4106,0.0,0.0,0.0,0.0,0.0,0.0,0.0,0.0,0.0,0.0,0.0,0.0,0.0,0.0,0.0,0.0,0.0,0.0,0.0,0.0,0.0,0.0,0.0,0.0,0.0,0.0,0.0,0.0,0.0,0.0,0.0,0.0,0.0,0.0,0.0,0.0,0.0,0.0,0.0,0.0,0.0,0.0,0.0,0.0,0.0,0.0,0.0,0.0,0.0,0.0,0.0,0.0,0.0,0.0,0.0,0.0,0.0,0.0,0.0,0.0,0.0,0.0,0.0,0.0,0.0,0.0,0.0,0.0,0.0,0.0,0.0,0.0,0.0,0.0,0.0,0.0,0.0,0.0,0.0,0.0,0.0,0.0,0.0,0.0,0.0,0.0,0.0,0.0,0.0,0.0,0.0,0.0,0.0,0.0,0.0,0.0,0.0,0.0,0.0,0.0,0.0,0.0,0.0,0.0,0.0,0.0,0.0,0.0,0.0,0.0,1.2983,1.3606,1.3216,1.3498,1.4675,0.0,0.0,0.0,0.0,0.0,0.0,0.0,0.0,0.0,0.0,0.0,0.0,0.0,0.0,0.0,0.0,0.0,0.0,0.0,0.0,0.0,0.0,0.0,0.0,0.0,0.0,0.0,0.0,0.0,0.0,0.0,0.0,0.0,0.0,0.0,0.0,0.0,0.0,0.0,0.0,0.0,0.0,0.0,0.0,0.0,0.0,0.0,0.0,0.0,0.0,0.0,0.0,0.0,0.0,0.0,0.0,0.0,0.0,0.0,0.0,0.0,0.0,0.0,0.0,0.0,0.0,0.0,0.0,0.0,0.0,0.0,0.0,0.0,0.0,0.0,0.0,0.0,0.0,0.0,0.0,0.0,0.0,0.0,0.0,0.0,0.0,0.0,0.0,0.0,0.0,0.0,0.0,0.0,0.0,0.0,0.0,0.0,0.0,0.0,0.0,0.0,0.0,0.0,0.0,0.0,0.0,0.0,0.0,0.0,0.0,0.0,0.0,1.4027,1.4334,1.5359,0.0,0.0,0.0,0.0,0.0,0.0,0.0,0.0,0.0,0.0,0.0,0.0,0.0,0.0,0.0,0.0,0.0,0.0,0.0,0.0,0.0,0.0,0.0,0.0,0.0,0.0,0.0,0.0,0.0,0.0,0.0,0.0,0.0,0.0,0.0,0.0,0.0,0.0,0.0,0.0,0.0,0.0,0.0,0.0,0.0,0.0,0.0,0.0,0.0,0.0,0.0,0.0,0.0,0.0,0.0,0.0,0.0,0.0,0.0,0.0,0.0,0.0,0.0,0.0,0.0,0.0,0.0,0.0,0.0,0.0,0.0,0.0,0.0,0.0,0.0,0.0,0.0,0.0,0.0,0.0,0.0,0.0,0.0,0.0,0.0,0.0,0.0,0.0,0.0,0.0,0.0,0.0,0.0,0.0,0.0,0.0,0.0,0.0,0.0,0.0,0.0,0.0,0.0,0.0,0.0,0.0,0.0,0.0,0.0,0.0,1.3951,1.4468,1.4801,0.0,1.6337,0.0,0.0,0.0,0.0,0.0,0.0,0.0,0.0,0.0,0.0,0.0,0.0,0.0,0.0,0.0,0.0,0.0,0.0,0.0,0.0,0.0,0.0,0.0,0.0,0.0,0.0,0.0,0.0,0.0,0.0,0.0,0.0,0.0,0.0,0.0,0.0,0.0,0.0,0.0,0.0,0.0,0.0,0.0,0.0,0.0,0.0,0.0,0.0,0.0,0.0,0.0,0.0,0.0,0.0,0.0,0.0,0.0,0.0,0.0,0.0,0.0,0.0,0.0,0.0,0.0,0.0,0.0,0.0,0.0,0.0,0.0,0.0,0.0,0.0,0.0,0.0,0.0,0.0,0.0,0.0,0.0,0.0,0.0,0.0,0.0,0.0,0.0,0.0,0.0,0.0,0.0,0.0,0.0,0.0,0.0,0.0,0.0,0.0,0.0,0.0,0.0,0.0,0.0,0.0,0.0,0.0,0.0,0.0,0.0,0.0,1.5266,1.5437,1.5591,1.5961,0.0,0.0,0.0,0.0,0.0,0.0,0.0,0.0,0.0,0.0,0.0,0.0,0.0,0.0,0.0,0.0,0.0,0.0,0.0,0.0,0.0,0.0,0.0,0.0,0.0,0.0,0.0,0.0,0.0,0.0,0.0,0.0,0.0,0.0,0.0,0.0,0.0,0.0,0.0,0.0,0.0,0.0,0.0,0.0,0.0,0.0,0.0,0.0,0.0,0.0,0.0,0.0,0.0,0.0,0.0,0.0,0.0,0.0,0.0,0.0,0.0,0.0,0.0,0.0,0.0,0.0,0.0,0.0,0.0,0.0,0.0,0.0,0.0,0.0,0.0,0.0,0.0,0.0,0.0,0.0,0.0,0.0,0.0,0.0,0.0,0.0,0.0,0.0,0.0,0.0,0.0,0.0,0.0,0.0,0.0,0.0,0.0,0.0,0.0,0.0,0.0,0.0,0.0,0.0,0.0,0.0,0.0,0.0,0.0,0.0,1.6104,1.598,1.6103,1.6089,1.6268,1.664,0.0,0.0,0.0,0.0,0.0,0.0,0.0,0.0,0.0,0.0,0.0,0.0,0.0,0.0,0.0,0.0,0.0,0.0,0.0,0.0,0.0,0.0,0.0,0.0,0.0,0.0,0.0,0.0,0.0,0.0,0.0,0.0,0.0,0.0,0.0,0.0,0.0,0.0,0.0,0.0,0.0,0.0,0.0,0.0,0.0,0.0,0.0,0.0,0.0,0.0,0.0,0.0,0.0,0.0,0.0,0.0,0.0,0.0,0.0,0.0,0.0,0.0,0.0,0.0,0.0,0.0,0.0,0.0,0.0,0.0,0.0,0.0,0.0,0.0,0.0,0.0,0.0,0.0,0.0,0.0,0.0,0.0,0.0,0.0,0.0,0.0,0.0,0.0,0.0,0.0,0.0,0.0,0.0,0.0,0.0,0.0,0.0,0.0,0.0,0.0,0.0,0.0,0.0,0.0,0.0,0.0,0.0,0.0,1.7048,1.6146,1.5731,1.6244,1.6203,1.6402,0.0,0.0,0.0,0.0,0.0,0.0,0.0,0.0,0.0,0.0,0.0,0.0,0.0,0.0,0.0,0.0,0.0,0.0,0.0,0.0,0.0,0.0,0.0,0.0,0.0,0.0,0.0,0.0,0.0,0.0,0.0,0.0,0.0,0.0,0.0,0.0,0.0,0.0,0.0,0.0,0.0,0.0,0.0,0.0,0.0,0.0,0.0,0.0,0.0,0.0,0.0,0.0,0.0,0.0,0.0,0.0,0.0,0.0,0.0,0.0,0.0,0.0,0.0,0.0,0.0,0.0,0.0,0.0,0.0,0.0,0.0,0.0,0.0,0.0,0.0,0.0,0.0,0.0,0.0,0.0,0.0,0.0,0.0,0.0,0.0,0.0,0.0,0.0,0.0,0.0,0.0,0.0,0.0,0.0,0.0,0.0,0.0,0.0,0.0,0.0,0.0,0.0,0.0,0.0,0.0,0.0,0.0,0.0,0.0,1.7675,1.7352,1.7446,1.7946,1.7251,1.688,0.0,0.0,0.0,0.0,0.0,0.0,0.0,0.0,0.0,0.0,0.0,0.0,0.0,0.0,0.0,0.0,0.0,0.0,0.0,0.0,0.0,0.0,0.0,0.0,0.0,0.0,0.0,0.0,0.0,0.0,0.0,0.0,0.0,0.0,0.0,0.0,0.0,0.0,0.0,0.0,0.0,0.0,0.0,0.0,0.0,0.0,0.0,0.0,0.0,0.0,0.0,0.0,0.0,0.0,0.0,0.0,0.0,0.0,0.0,0.0,0.0,0.0,0.0,0.0,0.0,0.0,0.0,0.0,0.0,0.0,0.0,0.0,0.0,0.0,0.0,0.0,0.0,0.0,0.0,0.0,0.0,0.0,0.0,0.0,0.0,0.0,0.0,0.0,0.0,0.0,0.0,0.0,0.0,0.0,0.0,0.0,0.0,0.0,0.0,0.0,0.0,0.0,0.0,0.0,0.0,0.0,0.0,0.0,0.0,1.7827,0.0,1.8117,1.8432,1.7706,1.7335,0.0,0.0,0.0,0.0,0.0,0.0,0.0,0.0,0.0,0.0,0.0,0.0,0.0,0.0,0.0,0.0,0.0,0.0,0.0,0.0,0.0,0.0,0.0,0.0,0.0,0.0,0.0,0.0,0.0,0.0,0.0,0.0,0.0,0.0,0.0,0.0,0.0,0.0,0.0,0.0,0.0,0.0,0.0,0.0,0.0,0.0,0.0,0.0,0.0,0.0,0.0,0.0,0.0,0.0,0.0,0.0,0.0,0.0,0.0,0.0,0.0,0.0,0.0,0.0,0.0,0.0,0.0,0.0,0.0,0.0,0.0,0.0,0.0,0.0,0.0,0.0,0.0,0.0,0.0,0.0,0.0,0.0,0.0,0.0,0.0,0.0,0.0,0.0,0.0,0.0,0.0,0.0,0.0,0.0,0.0,0.0,0.0,0.0,0.0,0.0,0.0,0.0,0.0,0.0,0.0,0.0,0.0,0.0,1.7436,1.7411,1.7517,1.7617,1.7496,1.7561,1.7647,0.0,0.0,0.0,0.0,0.0,0.0,0.0,0.0,0.0,0.0,0.0,0.0,0.0,0.0,0.0,0.0,0.0,0.0,0.0,0.0,0.0,0.0,0.0,0.0,0.0,0.0,0.0,0.0,0.0,0.0,0.0,0.0,0.0,0.0,0.0,0.0,0.0,0.0,0.0,0.0,0.0,0.0,0.0,0.0,0.0,0.0,0.0,0.0,0.0,0.0,0.0,0.0,0.0,0.0,0.0,0.0,0.0,0.0,0.0,0.0,0.0,0.0,0.0,0.0,0.0,0.0,0.0,0.0,0.0,0.0,0.0,0.0,0.0,0.0,0.0,0.0,0.0,0.0,0.0,0.0,0.0,0.0,0.0,0.0,0.0,0.0,0.0,0.0,0.0,0.0,0.0,0.0,0.0,0.0,0.0,0.0,0.0,0.0,0.0,0.0,0.0,0.0,0.0,0.0,0.0,0.0,0.0,0.0,0.0,2.0122,1.9208,1.9052,1.9889,1.8843,1.8486,0.0,0.0,0.0,0.0,0.0,0.0,0.0,0.0,0.0,0.0,0.0,0.0,0.0,0.0,0.0,0.0,0.0,0.0,0.0,0.0,0.0,0.0,0.0,0.0,0.0,0.0,0.0,0.0,0.0,0.0,0.0,0.0,0.0,0.0,0.0,0.0,0.0,0.0,0.0,0.0,0.0,0.0,0.0,0.0,0.0,0.0,0.0,0.0,0.0,0.0,0.0,0.0,0.0,0.0,0.0,0.0,0.0,0.0,0.0,0.0,0.0,0.0,0.0,0.0,0.0,0.0,0.0,0.0,0.0,0.0,0.0,0.0,0.0,0.0,0.0,0.0,0.0,0.0,0.0,0.0,0.0,0.0,0.0,0.0,0.0,0.0,0.0,0.0,0.0,0.0,0.0,0.0,0.0,0.0,0.0,0.0,0.0,0.0,0.0,0.0,0.0,0.0,0.0,0.0,0.0,0.0,0.0,0.0,0.0,2.2623,2.0595,2.0118,2.1291,2.0297,1.971,1.9608,0.0,0.0,0.0,0.0,0.0,0.0,0.0,0.0,0.0,0.0,0.0,0.0,0.0,0.0,0.0,0.0,0.0,0.0,0.0,0.0,0.0,0.0,0.0,0.0,0.0,0.0,0.0,0.0,0.0,0.0,0.0,0.0,0.0,0.0,0.0,0.0,0.0,0.0,0.0,0.0,0.0,0.0,0.0,0.0,0.0,0.0,0.0,0.0,0.0,0.0,0.0,0.0,0.0,0.0,0.0,0.0,0.0,0.0,0.0,0.0,0.0,0.0,0.0,0.0,0.0,0.0,0.0,0.0,0.0,0.0,0.0,0.0,0.0,0.0,0.0,0.0,0.0,0.0,0.0,0.0,0.0,0.0,0.0,0.0,0.0,0.0,0.0,0.0,0.0,0.0,0.0,0.0,0.0,0.0,0.0,0.0,0.0,0.0,0.0,0.0,0.0,0.0,0.0,0.0,0.0,0.0,0.0,0.0,2.4958,2.2034,2.1031,2.2107,2.1893,2.1335,0.0,0.0,0.0,0.0,0.0,0.0,0.0,0.0,0.0,0.0,0.0,0.0,0.0,0.0,0.0,0.0,0.0,0.0,0.0,0.0,0.0,0.0,0.0,0.0,0.0,0.0,0.0,0.0,0.0,0.0,0.0,0.0,0.0,0.0,0.0,0.0,0.0,0.0,0.0,0.0,0.0,0.0,0.0,0.0,0.0,0.0,0.0,0.0,0.0,0.0,0.0,0.0,0.0,0.0,0.0,0.0,0.0,0.0,0.0,0.0,0.0,0.0,0.0,0.0,0.0,0.0,0.0,0.0,0.0,0.0,0.0,0.0,0.0,0.0,0.0,0.0,0.0,0.0,0.0,0.0,0.0,0.0,0.0,0.0,0.0,0.0,0.0,0.0,0.0,0.0,0.0,0.0,0.0,0.0,0.0,0.0,0.0,0.0,0.0,0.0,0.0,0.0,0.0,0.0,0.0,0.0,0.0,0.0,0.0,2.654,2.6163,2.6085,2.6264,2.4305,2.3353,0.0,0.0,0.0,0.0,0.0,0.0,0.0,0.0,0.0,0.0,0.0,0.0,0.0,0.0,0.0,0.0,0.0,0.0,0.0,0.0,0.0,0.0,0.0,0.0,0.0,0.0,0.0,0.0,0.0,0.0,0.0,0.0,0.0,0.0,0.0,0.0,0.0,0.0,0.0,0.0,0.0,0.0,0.0,0.0,0.0,0.0,0.0,0.0,0.0,0.0,0.0,0.0,0.0,0.0,0.0,0.0,0.0,0.0,0.0,0.0,0.0,0.0,0.0,0.0,0.0,0.0,0.0,0.0,0.0,0.0,0.0,0.0,0.0,0.0,0.0,0.0,0.0,0.0,0.0,0.0,0.0,0.0,0.0,0.0,0.0,0.0,0.0,0.0,0.0,0.0,0.0,0.0,0.0,0.0,0.0,0.0,0.0,0.0,0.0,0.0,0.0,0.0,0.0,0.0,0.0,0.0,0.0,0.0,2.644,2.762,2.9327,3.0547,3.1388,2.7974,2.5853,0.0,0.0,0.0,0.0,0.0,0.0,0.0,0.0,0.0,0.0,0.0,0.0,0.0,0.0,0.0,0.0,0.0,0.0,0.0,0.0,0.0,0.0,0.0,0.0,0.0,0.0,0.0,0.0,0.0,0.0,0.0,0.0,0.0,0.0,0.0,0.0,0.0,0.0,0.0,0.0,0.0,0.0,0.0,0.0,0.0,0.0,0.0,0.0,0.0,0.0,0.0,0.0,0.0,0.0,0.0,0.0,0.0,0.0,0.0,0.0,0.0,0.0,0.0,0.0,0.0,0.0,0.0,0.0,0.0,0.0,0.0,0.0,0.0,0.0,0.0,0.0,0.0,0.0,0.0,0.0,0.0,0.0,0.0,0.0,0.0,0.0,0.0,0.0,0.0,0.0,0.0,0.0,0.0,0.0,0.0,0.0,0.0,0.0,0.0,0.0,0.0,0.0,0.0,0.0,0.0,0.0,0.0,0.0,2.7645,2.8373,3.1461,3.4089,3.6004,3.1856,2.8598,0.0,0.0,0.0,0.0,0.0,0.0,0.0,0.0,0.0,0.0,0.0,0.0,0.0,0.0,0.0,0.0,0.0,0.0,0.0,0.0,0.0,0.0,0.0,0.0,0.0,0.0,0.0,0.0,0.0,0.0,0.0,0.0,0.0,0.0,0.0,0.0,0.0,0.0,0.0,0.0,0.0,0.0,0.0,0.0,0.0,0.0,0.0,0.0,0.0,0.0,0.0,0.0,0.0,0.0,0.0,0.0,0.0,0.0,0.0,0.0,0.0,0.0,0.0,0.0,0.0,0.0,0.0,0.0,0.0,0.0,0.0,0.0,0.0,0.0,0.0,0.0,0.0,0.0,0.0,0.0,0.0,0.0,0.0,0.0,0.0,0.0,0.0,0.0,0.0,0.0,0.0,0.0,0.0,0.0,0.0,0.0,0.0,0.0,0.0,0.0,0.0,0.0,0.0,0.0,0.0,0.0,0.0,0.0,2.8197,3.0055,3.2039,3.4536,3.7373,3.3031,3.0468,0.0,0.0,0.0,0.0,0.0,0.0,0.0,0.0,0.0,0.0,0.0,0.0,0.0,0.0,0.0,0.0,0.0,0.0,0.0,0.0,0.0,0.0,0.0,0.0,0.0,0.0,0.0,0.0,0.0,0.0,0.0,0.0,0.0,0.0,0.0,0.0,0.0,0.0,0.0,0.0,0.0,0.0,0.0,0.0,0.0,0.0,0.0,0.0,2.3498,0.0,0.0,0.0,0.0,0.0,0.0,0.0,0.0,0.0,0.0,0.0,0.0,0.0,0.0,0.0,0.0,0.0,0.0,0.0,0.0,0.0,0.0,0.0,0.0,0.0,0.0,0.0,0.0,0.0,0.0,0.0,0.0,0.0,0.0,0.0,0.0,0.0,0.0,0.0,0.0,0.0,0.0,0.0,0.0,0.0,0.0,0.0,0.0,0.0,0.0,0.0,0.0,0.0,0.0,0.0,0.0,0.0,0.0,0.0,2.875,3.0934,3.2867,3.5185,3.7675,3.4873,3.2927,0.0,0.0,0.0,0.0,0.0,0.0,0.0,0.0,0.0,0.0,0.0,0.0,0.0,0.0,0.0,0.0,0.0,0.0,0.0,0.0,0.0,0.0,0.0,0.0,0.0,0.0,0.0,0.0,0.0,0.0,0.0,0.0,0.0,0.0,0.0,0.0,0.0,0.0,0.0,0.0,0.0,0.0,0.0,0.0,0.0,0.0,0.0,0.0,0.0,0.0,0.0,0.0,0.0,0.0,0.0,0.0,0.0,0.0,0.0,0.0,0.0,0.0,0.0,0.0,0.0,0.0,0.0,0.0,0.0,0.0,0.0,0.0,0.0,0.0,0.0,0.0,0.0,0.0,0.0,0.0,0.0,0.0,0.0,0.0,0.0,0.0,0.0,0.0,0.0,0.0,0.0,0.0,0.0,0.0,0.0,0.0,0.0,0.0,0.0,0.0,0.0,0.0,0.0,0.0,0.0,0.0,0.0,2.772,2.9377,3.1738,3.3621,3.5642,3.7841,3.6388,3.5058,3.3819,0.0,0.0,0.0,0.0,0.0,0.0,0.0,0.0,0.0,0.0,0.0,0.0,0.0,0.0,0.0,0.0,0.0,0.0,0.0,0.0,0.0,0.0,0.0,0.0,0.0,0.0,0.0,0.0,0.0,0.0,0.0,0.0,0.0,0.0,0.0,0.0,0.0,0.0,1.9528,2.1683,0.0,0.0,0.0,0.0,0.0,0.0,0.0,0.0,2.4754,0.0,0.0,0.0,0.0,0.0,0.0,0.0,0.0,0.0,0.0,0.0,0.0,0.0,0.0,0.0,0.0,0.0,0.0,0.0,0.0,0.0,0.0,0.0,0.0,0.0,0.0,0.0,0.0,0.0,0.0,0.0,0.0,0.0,0.0,0.0,0.0,0.0,0.0,0.0,0.0,0.0,0.0,0.0,0.0,0.0,0.0,0.0,0.0,0.0,0.0,0.0,0.0,0.0,0.0,0.0,0.0,2.7795,2.8473,3.0331,3.3395,3.3847,3.5227,3.773,3.6086,3.5255,3.5409,0.0,0.0,0.0,0.0,0.0,0.0,0.0,0.0,0.0,0.0,0.0,0.0,0.0,0.0,0.0,0.0,0.0,0.0,0.0,0.0,0.0,0.0,0.0,0.0,0.0,0.0,0.0,0.0,0.0,0.0,0.0,0.0,0.0,0.0,0.0,0.0,0.0,0.0,0.0,2.3406,2.4935,0.0,0.0,0.0,0.0,0.0,0.0,0.0,0.0,2.7708,0.0,0.0,0.0,0.0,0.0,0.0,0.0,0.0,0.0,0.0,0.0,0.0,0.0,0.0,0.0,0.0,0.0,0.0,0.0,0.0,0.0,0.0,0.0,0.0,0.0,0.0,0.0,0.0,0.0,0.0,0.0,0.0,0.0,0.0,0.0,0.0,0.0,0.0,0.0,0.0,0.0,0.0,0.0,0.0,0.0,0.0,0.0,0.0,0.0,0.0,0.0,0.0,0.0,0.0,0.0,2.8825,2.9528,3.1135,3.3796,3.5047,3.6418,3.7868,3.6837,3.6504,0.0,0.0,0.0,0.0,0.0,0.0,0.0,0.0,0.0,0.0,0.0,0.0,0.0,0.0,0.0,0.0,0.0,0.0,0.0,0.0,0.0,0.0,0.0,0.0,0.0,0.0,0.0,0.0,0.0,0.0,0.0,0.0,0.0,0.0,0.0,0.0,0.0,0.0,0.0,0.0,2.5137,2.6693,2.6627,0.0,0.0,0.0,0.0,0.0,0.0,2.903,2.9457,0.0,0.0,0.0,0.0,0.0,0.0,0.0,0.0,0.0,0.0,0.0,0.0,0.0,0.0,0.0,0.0,0.0,0.0,0.0,0.0,0.0,0.0,0.0,0.0,0.0,0.0,0.0,0.0,0.0,0.0,0.0,0.0,0.0,0.0,0.0,0.0,0.0,0.0,0.0,0.0,0.0,0.0,0.0,0.0,0.0,0.0,0.0,0.0,0.0,0.0,0.0,0.0,0.0,0.0,0.0,2.9704,3.0557,3.1938,3.3997,3.6207,3.7471,3.7979,3.7619,3.7497,0.0,0.0,0.0,0.0,0.0,0.0,0.0,0.0,0.0,0.0,0.0,0.0,0.0,0.0,0.0,0.0,0.0,0.0,0.0,0.0,0.0,0.0,0.0,0.0,0.0,0.0,0.0,0.0,0.0,0.0,0.0,0.0,0.0,0.0,0.0,0.0,0.0,0.0,0.0,0.0,0.0,2.8427,2.8627,2.897,0.0,0.0,0.0,0.0,2.9838,3.1368,0.0,0.0,0.0,0.0,0.0,0.0,0.0,0.0,0.0,0.0,0.0,0.0,0.0,0.0,0.0,0.0,0.0,0.0,0.0,0.0,0.0,0.0,0.0,0.0,0.0,0.0,0.0,0.0,0.0,0.0,0.0,0.0,0.0,0.0,0.0,0.0,0.0,0.0,0.0,0.0,0.0,0.0,0.0,0.0,0.0,0.0,0.0,0.0,0.0,0.0,0.0,0.0,0.0,0.0,0.0,0.0,2.9754,3.126,3.2867,3.455,3.6326,3.7471,3.7896,3.754,3.7221,0.0,0.0,0.0,0.0,0.0,0.0,0.0,0.0,0.0,0.0,0.0,0.0,0.0,0.0,0.0,0.0,0.0,0.0,0.0,0.0,0.0,0.0,0.0,0.0,0.0,0.0,0.0,0.0,0.0,0.0,0.0,0.0,0.0,0.0,0.0,0.0,0.0,0.0,0.0,0.0,0.0,3.0012,3.1288,3.0861,3.0724,0.0,0.0,3.4484,3.3907,3.7168,0.0,0.0,0.0,0.0,0.0,0.0,0.0,0.0,0.0,0.0,0.0,0.0,0.0,0.0,0.0,0.0,0.0,0.0,0.0,0.0,0.0,0.0,0.0,0.0,0.0,0.0,0.0,0.0,0.0,0.0,0.0,0.0,0.0,0.0,0.0,0.0,0.0,0.0,0.0,0.0,0.0,0.0,0.0,0.0,0.0,0.0,0.0,0.0,0.0,0.0,0.0,0.0,0.0,0.0,0.0,2.8172,2.9804,3.1712,3.3665,3.5693,3.7704,3.9023,3.942,3.8256,3.7609,0.0,0.0,0.0,0.0,0.0,0.0,0.0,0.0,0.0,0.0,0.0,0.0,0.0,0.0,0.0,0.0,0.0,0.0,0.0,0.0,0.0,0.0,0.0,0.0,0.0,0.0,0.0,0.0,0.0,0.0,0.0,0.0,0.0,0.0,0.0,0.0,0.0,0.0,0.0,0.0,0.0,0.0,3.23,3.2694,0.0,0.0,0.0,3.7226,3.6312,0.0,0.0,0.0,0.0,0.0,0.0,0.0,0.0,0.0,0.0,0.0,0.0,0.0,0.0,0.0,0.0,0.0,0.0,0.0,0.0,0.0,0.0,0.0,0.0,0.0,0.0,0.0,0.0,0.0,0.0,0.0,0.0,0.0,0.0,0.0,0.0,0.0,0.0,0.0,0.0,0.0,0.0,0.0,0.0,0.0,0.0,0.0,0.0,0.0,0.0,0.0,0.0,0.0,0.0,0.0,0.0,0.0,3.0005,3.2039,3.4178,3.6452,3.8733,4.0096,4.0555,3.9396,0.0,0.0,0.0,0.0,0.0,0.0,0.0,0.0,0.0,0.0,0.0,0.0,0.0,0.0,0.0,0.0,0.0,0.0,0.0,0.0,0.0,0.0,0.0,0.0,0.0,0.0,0.0,0.0,0.0,0.0,0.0,0.0,0.0,0.0,0.0,0.0,0.0,0.0,0.0,0.0,0.0,0.0,3.3005,3.3729,3.4499,3.5467,0.0,0.0,3.9507,3.8796,4.0753,4.1517,0.0,0.0,0.0,0.0,0.0,0.0,0.0,0.0,0.0,0.0,0.0,0.0,0.0,0.0,0.0,0.0,0.0,0.0,0.0,0.0,0.0,0.0,0.0,0.0,0.0,0.0,0.0,0.0,0.0,0.0,0.0,0.0,0.0,0.0,0.0,0.0,0.0,0.0,0.0,0.0,0.0,0.0,0.0,0.0,0.0,0.0,0.0,0.0,0.0,0.0,0.0,0.0,0.0,0.0,0.0,3.0557,3.2215,3.4178,3.6452,3.8733,4.0124,4.0584,4.0793,4.0278,0.0,0.0,0.0,0.0,0.0,0.0,0.0,0.0,0.0,0.0,0.0,0.0,0.0,0.0,0.0,0.0,0.0,0.0,0.0,0.0,0.0,0.0,0.0,0.0,0.0,0.0,0.0,0.0,0.0,0.0,0.0,0.0,0.0,0.0,0.0,0.0,0.0,0.0,0.0,0.0,0.0,3.361,3.6515,3.6279,3.7209,0.0,0.0,4.1351,4.1948,4.5244,4.6052,4.1085,0.0,0.0,0.0,0.0,0.0,0.0,0.0,0.0,0.0,0.0,0.0,0.0,0.0,0.0,0.0,0.0,0.0,0.0,0.0,0.0,0.0,0.0,0.0,0.0,0.0,0.0,0.0,0.0,0.0,0.0,0.0,0.0,0.0,0.0,0.0,0.0,0.0,0.0,0.0,0.0,0.0,0.0,0.0,0.0,0.0,0.0,0.0,0.0,0.0,0.0,0.0,0.0,0.0,2.9478,3.0608,3.224,3.4495,3.7449,3.9078,4.0464,4.1686,4.0914,3.9862,0.0,0.0,0.0,0.0,0.0,0.0,0.0,0.0,0.0,0.0,0.0,0.0,0.0,0.0,0.0,0.0,0.0,0.0,0.0,0.0,0.0,0.0,0.0,0.0,0.0,0.0,0.0,0.0,2.2072,2.2919,2.3654,0.0,0.0,0.0,0.0,0.0,0.0,0.0,0.0,0.0,0.0,3.4322,3.6089,3.7368,0.0,0.0,4.3196,4.4221,4.3818,4.5627,4.5843,4.2376,4.1354,0.0,0.0,0.0,0.0,0.0,0.0,0.0,0.0,0.0,0.0,0.0,0.0,0.0,0.0,0.0,0.0,0.0,0.0,0.0,0.0,0.0,0.0,0.0,0.0,0.0,0.0,0.0,0.0,0.0,0.0,0.0,0.0,0.0,0.0,0.0,0.0,0.0,0.0,0.0,0.0,0.0,0.0,0.0,0.0,0.0,0.0,0.0,0.0,0.0,0.0,0.0,0.0,2.9806,3.0939,3.2708,3.5226,3.845,3.9787,4.1222,4.2832,4.1501,4.0308,0.0,0.0,0.0,0.0,0.0,0.0,0.0,0.0,0.0,0.0,0.0,0.0,0.0,0.0,0.0,0.0,0.0,0.0,0.0,0.0,0.0,0.0,0.0,0.0,0.0,0.0,0.0,0.0,2.3351,2.4255,2.5209,0.0,0.0,0.0,0.0,0.0,0.0,0.0,0.0,0.0,0.0,3.4822,3.6125,3.8075,4.0176,4.2137,4.4078,4.5364,4.538,4.5927,4.5574,4.3488,0.0,0.0,0.0,0.0,0.0,0.0,0.0,0.0,0.0,0.0,0.0,0.0,0.0,0.0,0.0,0.0,0.0,0.0,0.0,0.0,0.0,0.0,0.0,0.0,0.0,0.0,0.0,0.0,0.0,0.0,0.0,0.0,0.0,0.0,0.0,0.0,0.0,0.0,0.0,0.0,0.0,0.0,0.0,0.0,0.0,0.0,0.0,0.0,0.0,0.0,0.0,0.0,0.0,3.0595,3.1711,3.377,3.6248,3.9117,4.0743,4.2432,4.4116,4.3,4.2013,4.1294,0.0,0.0,0.0,0.0,0.0,0.0,0.0,0.0,0.0,0.0,0.0,0.0,0.0,0.0,0.0,0.0,0.0,0.0,0.0,0.0,0.0,0.0,0.0,0.0,0.0,0.0,2.304,2.4582,2.5762,0.0,0.0,0.0,0.0,0.0,0.0,0.0,0.0,0.0,0.0,3.2744,3.4776,3.6914,3.8191,4.0432,4.4182,4.4039,4.4347,4.68,4.6711,4.5843,0.0,0.0,0.0,0.0,0.0,0.0,0.0,0.0,0.0,0.0,0.0,0.0,0.0,0.0,0.0,0.0,0.0,0.0,0.0,0.0,0.0,0.0,0.0,0.0,0.0,0.0,0.0,0.0,2.5756,0.0,0.0,0.0,0.0,0.0,0.0,0.0,0.0,0.0,0.0,0.0,3.1516,3.2287,0.0,0.0,0.0,0.0,0.0,0.0,0.0,0.0,0.0,0.0,0.0,0.0,3.2042,3.283,3.517,3.7701,4.0199,4.159,4.3128,4.4945,4.4107,4.294,4.1414,0.0,0.0,0.0,0.0,0.0,0.0,0.0,0.0,0.0,0.0,0.0,0.0,0.0,0.0,0.0,0.0,0.0,0.0,0.0,0.0,0.0,0.0,0.0,0.0,0.0,2.3741,0.0,0.0,0.0,0.0,0.0,0.0,0.0,0.0,0.0,0.0,0.0,3.1055,3.2051,3.3538,3.5079,3.6629,3.9625,4.2223,0.0,0.0,0.0,0.0,0.0,0.0,0.0,0.0,0.0,0.0,0.0,0.0,0.0,0.0,4.0786,3.7943,3.7734,3.8038,3.8038,0.0,0.0,0.0,0.0,0.0,0.0,0.0,0.0,0.0,0.0,0.0,0.0,0.0,0.0,0.0,0.0,2.7817,0.0,0.0,0.0,0.0,0.0,0.0,0.0,0.0,3.2228,3.3478,3.4307,3.4916,3.5574,0.0,3.6038,3.4896,0.0,0.0,0.0,0.0,0.0,0.0,0.0,0.0,3.3301,3.4113,3.6781,3.924,4.1435,4.2869,4.4251,4.5603,4.4796,4.3509,4.1773,4.0457,3.917,0.0,0.0,0.0,0.0,0.0,0.0,0.0,0.0,0.0,0.0,0.0,0.0,0.0,0.0,0.0,0.0,0.0,0.0,0.0,0.0,0.0,0.0,0.0,2.5586,0.0,0.0,0.0,0.0,0.0,0.0,0.0,0.0,0.0,3.0184,3.1179,3.2337,3.3508,3.4777,3.6113,3.7626,0.0,0.0,0.0,0.0,0.0,0.0,0.0,4.7935,4.7572,4.7995,4.8656,4.9494,4.8745,4.7549,4.6262,0.0,0.0,4.0786,4.0666,4.1115,4.1115,4.1474,4.1773,4.1743,4.1816,4.1852,0.0,0.0,0.0,0.0,0.0,0.0,0.0,0.0,3.0122,3.0389,0.0,3.0359,0.0,0.0,0.0,0.0,0.0,0.0,0.0,0.0,3.3692,3.531,3.6537,3.6626,3.7285,3.8422,3.7853,3.7554,3.7396,3.5331,0.0,0.0,0.0,0.0,0.0,0.0,3.4372,3.5669,3.8589,4.0937,4.2705,4.4418,4.5663,4.6292,4.5095,4.3808,4.2629,4.2402,4.1205,3.8661,3.911,0.0,0.0,0.0,0.0,0.0,0.0,0.0,0.0,0.0,0.0,0.0,0.0,0.0,0.0,0.0,0.0,0.0,0.0,0.0,0.0,2.6389,0.0,0.0,0.0,0.0,0.0,0.0,0.0,0.0,0.0,0.0,3.1207,3.2479,3.4041,3.5463,0.0,0.0,0.0,0.0,4.3488,4.5636,4.6195,4.716,4.8985,4.9314,4.9344,4.9374,0.0,0.0,5.2276,5.075,4.9553,4.9434,4.8985,4.7489,4.4377,4.4197,4.4436,4.4466,4.4526,4.4526,4.4466,4.4287,4.3817,3.6222,0.0,0.0,0.0,0.0,3.2735,3.2944,3.2944,3.3214,3.3572,3.3898,3.3005,0.0,0.0,0.0,0.0,0.0,0.0,3.4307,3.4842,3.6529,3.7734,3.8601,3.905,3.9948,4.1175,4.0576,4.0487,4.0876,3.9371,3.773,3.6055,0.0,0.0,0.0,0.0,3.7135,3.7699,4.0705,4.2841,4.3849,4.5257,4.6352,4.701,4.6202,4.5334,4.4466,4.4018,4.297,4.1294,4.0516,0.0,0.0,0.0,0.0,0.0,0.0,0.0,0.0,0.0,0.0,0.0,0.0,0.0,0.0,0.0,0.0,0.0,0.0,0.0,2.762,2.9014,2.987,0.0,0.0,0.0,0.0,0.0,0.0,0.0,0.0,0.0,3.5125,3.4888,3.5231,0.0,0.0,3.9504,4.1639,4.3655,4.5403,4.6722,0.0,0.0,0.0,5.0361,5.081,5.1289,5.3025,5.4341,5.4341,5.4251,5.3892,5.2965,5.3025,5.2725,5.1349,4.9254,4.7967,4.7878,4.8207,4.8536,4.8536,4.8716,4.9045,4.1162,3.9106,3.7389,3.6028,3.51,3.5459,3.5639,3.5669,3.5908,3.6267,3.6596,3.5519,3.504,3.4981,3.357,0.0,0.0,0.0,3.6224,3.7118,3.8232,3.9589,4.0965,4.1384,4.2252,4.3479,4.312,4.3,4.312,4.2073,4.089,3.9593,0.0,0.0,3.7009,3.862,3.953,3.9959,4.2674,4.4436,4.5125,4.6172,4.692,4.7279,4.692,4.6501,4.6112,4.5454,4.4616,4.3569,4.2013,4.0681,0.0,0.0,0.0,0.0,0.0,0.0,0.0,0.0,0.0,0.0,0.0,2.6079,0.0,0.0,0.0,0.0,2.8048,2.901,3.0701,3.1389,0.0,0.0,0.0,0.0,0.0,0.0,0.0,3.3566,3.5332,3.701,3.803,3.8365,3.8946,4.0184,4.094,4.2167,4.4527,0.0,4.7346,4.8617,4.9816,5.081,5.1319,5.1977,5.2785,5.3952,5.5359,5.6436,5.6705,5.6885,5.6645,5.6017,5.5867,5.5807,5.5418,5.3683,5.2067,5.1409,5.1528,5.1738,5.1468,5.1917,5.2516,4.595,4.6308,4.1432,3.8883,3.8022,3.7992,3.7952,3.7943,3.8512,3.8781,3.8721,3.8033,3.7674,3.7494,3.6357,0.0,0.0,3.6507,3.7464,3.8661,3.932,4.0965,4.3329,4.3389,4.4107,4.5364,4.5334,4.5065,4.4616,4.3928,4.3569,4.3429,4.0918,3.9341,3.8746,4.0442,4.1662,4.2317,4.4325,4.5693,4.6381,4.704,4.7339,4.7309,4.7249,4.7249,4.7279,4.6651,4.5992,4.5274,4.3509,4.1816,4.0382,0.0,0.0,0.0,0.0,0.0,0.0,0.0,0.0,0.0,0.0,0.0,0.0,0.0,0.0,0.0,3.039,0.0,3.4046,3.3819,0.0,0.0,0.0,3.6086,3.69,3.6962,3.7018,3.7225,0.0,0.0,0.0,0.0,4.4095,4.4493,4.4501,4.5345,4.7822,4.8268,4.9105,5.0866,5.1319,5.1828,5.2935,5.3803,5.488,5.6496,5.7663,5.8231,5.877,5.853,5.8201,5.7962,5.7633,5.7214,5.7184,5.7004,5.6675,5.479,5.4461,5.4221,5.3713,5.4012,5.4491,5.0042,4.9502,4.8222,4.5939,4.3137,4.3106,4.2619,4.1953,4.2102,4.2162,4.2102,4.0935,3.9888,3.8931,3.8631,3.8751,3.926,3.9409,3.9888,4.0696,4.1354,4.2282,4.3359,4.3838,4.4796,4.5992,4.5544,4.5992,4.7219,4.6172,4.5603,4.5603,4.4893,4.3758,4.2204,4.3041,4.3608,4.3758,4.5334,4.6411,4.707,4.7698,4.7818,4.7309,4.683,4.68,4.7279,4.6681,4.5992,4.5334,4.4377,4.324,4.1876,4.0487,0.0,0.0,0.0,0.0,0.0,0.0,0.0,0.0,0.0,2.8872,2.8531,0.0,2.9881,0.0,3.2594,3.4929,3.6962,3.7634,0.0,0.0,3.9679,4.0159,3.9809,4.0147,4.0224,4.0009,4.0879,4.1965,4.2967,4.4936,4.6726,4.7881,4.7526,4.7674,4.9218,4.961,5.0301,5.1678,5.2396,5.2995,5.3832,5.497,5.6017,5.6944,5.7663,5.8351,5.9009,5.8979,5.871,5.8261,5.8441,5.8411,5.7962,5.8261,5.8261,5.7393,5.6795,5.6376,5.6196,5.6286,5.6705,5.295,5.2877,5.2877,5.141,4.8925,4.7553,4.6188,4.4965,4.4856,4.4648,4.4137,4.312,4.2102,4.1145,4.0846,4.0935,4.1265,4.1265,4.1624,4.2282,4.294,4.3748,4.4676,4.5334,4.6202,4.7189,4.71,4.7638,4.8626,4.7997,4.7638,4.7638,4.7638,4.707,4.5992,4.5753,4.5783,4.6082,4.71,4.7818,4.8147,4.8237,4.8267,4.8147,4.698,4.677,4.7698,4.6531,4.5963,4.6142,4.5005,4.3988,4.324,4.1983,4.0995,0.0,0.0,0.0,0.0,0.0,0.0,0.0,0.0,0.0,0.0,0.0,3.228,0.0,0.0,0.0,3.914,4.0067,4.0779,4.1441,4.2254,4.2782,4.2773,4.3071,4.3119,4.2849,4.3851,4.4789,4.5459,4.7258,4.8686,4.9613,4.9552,4.9789,5.0683,5.1016,5.1588,5.2875,5.3414,5.3862,5.4551,5.5718,5.6705,5.7064,5.7932,5.868,5.9039,5.9099,5.8979,5.868,5.886,5.9009,5.865,5.883,5.8949,5.868,5.8501,5.8201,5.7693,5.7782,5.8321,5.5202,5.6122,5.6055,5.5353,5.4212,5.1564,4.9317,4.7401,4.7401,4.6732,4.5633,4.4975,4.4317,4.3658,4.303,4.2731,4.2731,4.2731,4.303,4.3629,4.4257,4.5244,4.6471,4.713,4.7788,4.8416,4.8985,4.9314,4.9404,4.9404,4.9374,4.9404,4.9404,4.9374,4.9344,4.8267,4.7938,4.8416,4.9045,4.9344,4.9254,4.8716,4.8656,4.9045,4.7309,4.689,4.8057,4.6411,4.5963,4.704,4.5424,4.4436,4.4407,4.3269,4.2372,0.0,4.0666,0.0,0.0,0.0,0.0,0.0,0.0,0.0,0.0,3.4152,3.5251,3.6851,3.7841,3.92,4.1175,4.1997,4.293,4.4162,4.4459,4.487,4.5603,4.5753,4.5783,4.5813,4.683,4.7549,4.7638,4.9134,5.0242,5.0242,5.081,5.1468,5.2157,5.2187,5.2576,5.4012,5.4281,5.4521,5.5089,5.6137,5.6944,5.7184,5.8052,5.8979,5.9069,5.9099,5.9099,5.9099,5.9069,5.9099,5.9099,5.9099,5.9099,5.9069,5.9488,5.9578,5.877,5.8949,5.9548,5.7668,5.8321,5.7746,5.7065,5.6241,5.566,5.3444,5.0133,5.0164,4.9212,4.7698,4.704,4.6381,4.5723,4.5035,4.4736,4.4736,4.4736,4.4796,4.4975,4.5633,4.6352,4.713,4.7788,4.8446,4.9075,4.9224,4.9553,5.0062,5.0062,5.0062,5.0062,5.0062,5.0062,0.0,0.0,0.0,0.0,4.9733,4.9823,4.9284,4.9164,4.8865,4.8476,4.707,0.0,4.7399,4.6591,4.6232,4.6471,4.5603,0.0,0.0,0.0,0.0,0.0,0.0,0.0,0.0,0.0,0.0,0.0,4.1109,3.9565,3.6726,3.7069,3.8375,4.0732,4.1213,4.2257,4.4258,4.5078,4.558,4.5848,4.6804,4.7578,4.7728,4.8177,4.8536,4.8536,4.8745,4.8895,4.8955,4.9703,5.0242,5.0331,5.1259,5.2217,5.2875,5.2576,5.2755,5.3952,5.464,5.5029,5.5179,5.5867,5.6645,5.7034,5.7723,5.8501,5.9009,5.9099,5.9099,5.9099,5.9099,5.9099,5.9099,5.9099,5.9129,5.9129,5.9638,6.0027,5.9787,6.0266,6.0924,5.9201,0.0,5.9133,5.8558,0.0,5.7881,5.6193,5.3486,5.2733,5.136,4.9535,4.8651,4.8087,4.7728,4.707,4.677,4.677,4.677,4.677,4.68,4.7459,4.7938,4.8297,4.8955,4.9434,4.9763,5.0092,5.0391,5.072,5.072,5.09,5.1199,5.1199,5.1199,5.1199,5.087,5.0541,5.0242,5.0541,5.0541,5.0242,4.9912,4.9583,4.9224,0.0,0.0,0.0,0.0,0.0,0.0,0.0,0.0,0.0,0.0,0.0,4.4796,4.4496,4.4317,4.4287,4.4018,4.3838,4.3808,4.3808,4.2583,3.9562,3.973,4.0746,4.2649,4.3195,4.4086,4.5639,4.6411,4.695,4.7279,4.7878,4.8416,4.8745,4.9075,4.9254,4.9314,4.9553,4.9733,4.9763,5.0301,5.069,5.078,5.1558,5.2456,5.3054,5.3204,5.3593,5.4521,5.494,5.5179,5.5269,5.6047,5.6705,5.7124,5.7932,5.865,5.9039,5.9099,5.9099,5.9099,5.9099,5.9099,5.9099,5.9099,5.9219,5.9548,6.0146,6.0715,6.0984,6.1373,6.1792,6.0317,6.0317,6.0317,5.9877,5.9201,5.9201,5.8278,5.6569,0.0,0.0,0.0,5.0296,4.9764,4.9733,4.907,4.8711,4.8565,4.8857,4.8944,4.8799,4.9488,4.9968,5.012,5.0546,5.0789,5.0667,5.1208,5.1386,5.1229,5.1349,5.1678,5.2157,5.2306,5.2366,5.2336,5.1828,5.1558,5.1558,5.1319,5.1229,5.1199,5.0571,5.0242,5.0242,4.8566,4.7399,4.686,4.6292,4.5753,4.5244,4.6142,4.6471,4.6052,4.6441,4.6411,4.5843,4.5424,4.5364,4.5783,4.5304,4.5185,4.5633,4.5753,4.4852,4.2466,4.245,4.3016,4.3979,4.4705,4.5522,4.6565,4.713,4.7728,4.8386,4.8566,4.8865,4.9374,4.9583,4.9673,4.9673,5.0122,5.0391,5.0421,5.084,5.1229,5.1319,5.1887,5.2665,5.3414,5.4012,5.4491,5.5029,5.5179,5.5209,5.5329,5.5927,5.6795,5.7064,5.7992,5.877,5.9039,5.9099,5.9099,5.9099,5.9099,5.9159,5.9249,5.9338,5.9518,6.0146,6.0805,6.1433,6.1942,6.2211,6.248,6.1129,6.1129,6.1129,6.0689,5.9945,5.9945,5.943,5.8387,5.5716,5.4384,5.3987,5.2262,5.1493,5.1462,5.087,5.0075,4.9284,5.1153,5.1454,0.0,5.1631,5.2422,5.2994,5.3089,5.2932,5.2568,5.2603,5.2154,5.1353,5.1798,5.2097,5.2247,5.2755,5.3054,5.3054,5.2935,5.2905,5.2875,5.1798,5.1229,5.1199,5.0571,5.0242,5.0212,4.9434,4.8955,4.8865,4.8745,4.8656,4.8566,4.8207,4.8207,4.8656,4.8237,4.7967,4.7908,4.8297,4.8356,4.7908,4.7788,4.7519,4.71,4.7549,4.6983,4.4965,4.5357,4.5717,4.5947,4.6513,4.7225,4.7938,4.8087,4.8416,4.9045,4.9613,5.0002,5.0122,5.0571,5.084,5.084,5.102,5.105,5.105,5.1139,5.1229,5.1409,5.2306,5.3473,5.4491,5.4999,5.5089,5.5179,5.5209,5.5209,5.5239,5.5299,5.6017,5.6944,5.7304,5.8022,5.889,5.9069,5.9099,5.9099,5.9099,5.9308,5.9757,5.9937,6.0206,6.0805,6.1493,6.1942,6.2151,6.26,6.3169,6.2279,6.2009,6.2753,6.2178,6.0723,6.0283,5.9911,5.9498,5.8219,5.7033,5.6027,5.5027,5.4009,5.3082,5.3113,5.2418,5.1328,5.2691,5.3143,5.2965,5.3464,5.3871,5.4077,5.4109,5.4242,5.4364,5.4396,5.4001,5.3346,5.3558,5.3546,5.3391,5.3593,5.3922,5.4192,5.3533,5.3354,5.3713,5.2785,5.2276,5.2276,5.1648,5.1289,5.1289,5.0661,5.0152,4.9823,5.0122,5.0002,4.9284,4.9314,4.9314,4.9254,4.8985,4.8835,4.8835,4.9105,4.9134,4.8835,4.8805,4.8686,4.8416,4.8656,4.8446,4.7519,4.7728,4.7788,4.7459,4.7997,4.8476,4.8805,4.8805,4.9075,4.9733,5.0092,5.0391,5.072,5.102,5.1229,5.1229,5.1229,5.1229,5.1229,5.1229,5.1379,5.1738,5.2905,5.4102,5.5029,5.5209,5.5209,5.5209,5.5209,5.5209,5.5239,5.5837,5.6286,5.6615,5.7513,5.8171,5.865,5.883,5.9069,5.9099,5.9099,5.9368,5.9967,6.0086,6.0535,6.1433,6.1852,6.2181,6.257,6.3408,6.4186,6.3429,6.3024,6.4275,6.3666,6.1772,6.096,6.052,6.0385,6.0385,5.9554,5.8303,5.7474,5.6349,5.5153,5.5569,5.5077,5.4053,5.4837,5.541,5.5518,5.5701,5.5783,5.5815,5.5783,5.6025,5.6344,5.6324,5.5984,5.5552,5.5684,5.5657,5.5327,5.505,5.5119,5.5598,5.4581,5.4311,5.479,5.4341,5.3773,5.3174,5.2695,5.2426,5.2396,5.1947,5.1439,5.096,5.1409,5.1199,5.0272,5.0631,5.069,5.0182,5.0152,5.0092,4.9942,4.9942,4.9793,4.9523,4.9494,4.9434,4.9284,4.9404,4.9434,4.9314,4.9553,4.9374,4.8716,4.8925,4.9284,4.9464,4.9494,4.9733,5.0361,5.0451,5.0661,5.1109,5.1349,5.1439,5.1439,5.1439,5.1498,5.1588,5.1528,5.1798,5.2665,5.3593,5.4431,5.5029,5.5209,5.5209,5.5209,5.5209,5.5209,5.5269,5.6077,5.6615,5.6376,5.7723,5.8441,5.853,5.883,5.9069,5.9099,5.9099,5.9488,6.0086,6.0356,6.0894,6.1972,6.2391,6.251,6.2959,6.4443,6.5349,6.4444,6.4512,6.5256,6.4715,6.326,6.2482,6.1806,6.1264,6.1197,6.1163,6.0718,5.9112,5.8248,5.8068,5.8084,5.7488,5.6584,5.8568,5.8919,5.8261,5.912,5.954,5.9396,5.9506,5.9076,5.8345,5.8264,5.7786,5.6989,5.7867,5.8527,5.8504,5.7414,5.6795,5.6855,5.6735,5.6735,5.6825,5.6765,5.5568,5.3324,5.3114,5.3084,5.3084,5.3054,5.2995,5.2935,5.2965,5.2965,5.2845,5.2845,5.2875,5.2815,5.2785,5.2516,5.1947,5.1917,5.1439,5.0301,5.0152,4.9972,4.9374,4.9912,5.0002,4.9523,5.0391,5.0481,4.9583,4.9284,4.9583,5.0062,5.0152,5.0391,5.093,5.1079,5.1169,5.1289,5.1768,5.2097,5.2097,5.2127,5.2336,5.2695,5.2486,5.2665,5.3653,5.4072,5.4521,5.5059,5.5209,5.5209,5.5209,5.5209,5.5209,5.5269,5.5777,5.6436,5.6915,5.7663,5.8351,5.874,5.8919,5.9099,5.9099,5.9099,5.9548,6.0505,6.1044,6.1433,6.245,6.2869,6.2989,6.3429,6.5049,6.6369,6.4986,6.4715,6.5865,6.5764,6.4715,6.3565,6.2888,6.2584,6.2144,6.2212,6.2471,6.1736,6.0584,5.9218,5.9581,5.907,5.7952,5.9198,5.9643,5.9466,5.9928,6.008,6.008,6.008,6.029,6.0784,6.0772,6.0654,6.0229,5.9465,5.903,5.8975,5.7789,5.7094,5.7094,5.7094,5.7094,5.7094,5.7094,5.6555,5.5568,5.476,5.473,5.5329,5.476,5.476,5.5388,5.5508,5.5478,5.5448,5.479,5.4371,5.4371,5.3623,5.3054,5.2785,5.2785,5.2546,5.2007,5.1977,5.1858,5.1588,5.1828,5.1858,5.1618,5.1738,5.1528,5.1079,5.0631,5.0541,5.078,5.084,5.093,5.1169,5.1229,5.1379,5.1768,5.2037,5.2306,5.2695,5.2785,5.2845,5.3144,5.3324,5.3593,5.4192,5.4491,5.491,5.5179,5.5209,5.5209,5.5209,5.5209,5.5209,5.5269,5.6077,5.6585,5.6825,5.7782,5.877,5.856,5.8919,5.9099,5.9099,5.9159,5.9668,6.0864,6.1164,6.1493,6.257,6.3254,6.3489,6.5185,6.6416,6.7187,6.5527,6.5392,6.6406,6.6373,6.5595,6.458,6.4005,6.3768,6.3226,6.3328,6.3768,6.3802,6.2757,6.1168,6.1318,6.082,5.999,6.0388,6.0893,6.1255,6.1332,6.1366,6.1332,6.1332,6.1907,6.2854,6.299,6.3194,6.3305,6.1459,6.0518,6.0483,5.9363,5.8685,5.8685,5.8407,5.82,5.8127,5.7993,5.7932,5.7752,5.6825,5.6526,5.6974,5.6196,5.6166,5.7034,5.7094,5.7094,5.7064,5.6196,5.5718,5.5658,5.461,5.3862,5.3473,5.3294,5.3174,5.3174,5.3354,5.3384,5.3234,5.3324,5.3384,5.3144,5.2755,5.2486,5.2396,5.1858,5.1409,5.1229,5.1229,5.1289,5.1439,5.1498,5.1768,5.2366,5.2606,5.2965,5.3384,5.3473,5.3443,5.3563,5.4012,5.4491,5.4551,5.5059,5.5448,5.5478,5.5478,5.5478,5.5448,5.5329,5.5209,5.5269,5.6226,5.6705,5.7004,5.7932,5.886,5.8471,5.889,5.9099,5.9129,5.9219,5.9727,6.0835,6.1224,6.1672,6.263,6.3224,6.3954,6.5934,6.71,6.8232,6.6068,6.6677,6.6779,6.6406,6.5696,6.5561,6.5189,6.4546,6.4444,6.4478,6.4546,6.4546,6.4512,6.4146,6.3606,6.3349,6.3248,6.3134,6.3472,6.4072,6.4208,6.4343,6.441,6.441,6.441,6.4512,6.4613,6.487,6.5379,6.4167,6.3932,6.44,6.3099,6.2587,6.2297,6.127,6.0794,6.0589,6.0076,5.9877,5.9817,5.9219,5.8321,5.7423,5.7034,5.7034,5.7184,5.7154,5.7154,5.7154,5.7094,5.7004,5.6944,5.6346,5.5418,5.4341,5.3623,5.3264,5.3414,5.3952,5.4012,5.3473,5.3922,5.3922,5.3443,5.3234,5.3144,5.3114,5.2546,5.1947,5.1439,5.1289,5.1498,5.2007,5.2097,5.2396,5.3054,5.3593,5.4072,5.4162,5.4162,5.4221,5.4221,5.473,5.5029,5.5179,5.5658,5.6047,5.5927,5.6017,5.6047,5.5867,5.5568,5.5209,5.5299,5.6107,5.6855,5.7124,5.7752,5.9009,5.9069,5.9099,5.9099,5.9219,5.9488,6.0027,6.0894,6.1613,6.2211,6.281,6.3019,6.4099,6.6775,6.821,6.9446,6.6576,6.6812,6.6812,6.6643,6.6373,6.5899,6.5561,6.5256,6.4783,6.4884,6.5256,6.529,6.529,6.529,6.5019,6.4647,6.4241,6.4208,6.4377,6.4613,6.4613,6.4613,6.4647,6.5053,6.5595,6.6034,6.6508,6.6846,6.6897,6.5392,6.4605,6.472,6.4123,6.3452,6.3034,6.2574,6.2105,6.1587,6.1092,6.0745,6.0745,6.0505,6.0146,5.9638,5.8411,5.8141,5.8979,5.9009,5.9009,5.9009,5.862,5.8201,5.7752,5.7124,5.6585,5.6107,5.5807,5.5688,5.5718,5.5927,5.5777,5.5209,5.5299,5.5149,5.4551,5.4102,5.3832,5.3713,5.3204,5.2695,5.2396,5.1738,5.1498,5.2067,5.2217,5.2665,5.3563,5.4072,5.4371,5.473,5.485,5.497,5.5209,5.5329,5.5209,5.5269,5.5748,5.5957,5.5748,5.5867,5.6137,5.5658,5.5359,5.5329,5.5807,5.6107,5.6585,5.6885,5.7453,5.8201,5.853,5.8979,5.9069,5.9159,5.9518,6.0236,6.1074,6.2091,6.269,6.2869,6.3079,6.4554,6.7634,6.8734,7.0317,6.6812,6.6812,6.6812,6.6812,6.6745,6.6271,6.6034,6.6034,6.5764,6.5831,6.6068,6.6271,6.6406,6.6339,6.617,6.6136,6.5933,6.5324,6.5087,6.5324,6.5561,6.5662,6.5797,6.644,6.7049,6.7557,6.803,6.8301,6.8113,6.6644,6.6057,6.6234,6.5706,6.5269,6.4923,6.4239,6.3515,6.2882,6.1977,6.1433,6.1463,6.1642,6.1642,6.1283,6.0086,5.9668,6.0416,6.0416,6.0416,6.0326,5.9787,5.9039,5.8201,5.7663,5.7334,5.7124,5.7064,5.7094,5.7124,5.7304,5.7124,5.6526,5.6466,5.6196,5.5568,5.491,5.4581,5.4401,5.3922,5.3503,5.3294,5.2516,5.2127,5.2695,5.2845,5.3294,5.4341,5.4521,5.473,5.5059,5.5149,5.5388,5.5688,5.5418,5.5359,5.5448,5.6077,5.6256,5.6256,5.6466,5.6675,5.6226,5.6047,5.6107,5.6376,5.6615,5.7004,5.7304,5.7663,5.8141,5.8381,5.883,5.9099,5.9159,5.9638,6.0446,6.1343,6.2391,6.2839,6.3019,6.3369,6.441,6.687,6.918,7.0896,6.6812,6.6812,6.6812,6.6812,6.6812,6.6745,6.6779,6.6812,6.7421,6.7286,6.6914,6.7523,6.7793,6.7726,6.7218,6.7624,6.8199,6.6779,6.6271,6.6846,6.7455,6.7726,6.776,6.8504,6.8944,6.9079,6.9113,6.9113,6.9045,6.8215,6.8061,6.8654,6.8041,6.7934,6.8837,6.6448,6.5212,6.4634,6.3285,6.2295,6.2211,6.278,6.2839,6.2301,6.2091,6.1792,6.1253,6.1164,6.1134,6.1044,6.0505,5.9488,5.8501,5.8231,5.7902,5.7483,5.7244,5.7214,5.7363,5.7902,5.7932,5.7334,5.7124,5.6855,5.6196,5.5628,5.5269,5.5119,5.476,5.4311,5.4221,5.3773,5.3533,5.4042,5.4042,5.4401,5.491,5.5179,5.5239,5.5388,5.5478,5.5269,5.5269,5.5448,5.5658,5.6137,5.6705,5.7184,5.7453,5.7633,5.7962,5.7782,5.7184,5.6765,5.6944,5.7154,5.7573,5.7962,5.8351,5.871,5.865,5.8919,5.9069,5.9189,5.9847,6.0625,6.1433,6.2391,6.278,6.3104,6.3599,6.4584,6.7323,6.9825,7.1745,6.6812,6.6812,6.6812,6.6812,6.6812,6.6812,6.6812,6.6914,6.759,6.776,6.7726,6.8402,6.8741,6.8707,6.847,6.8639,6.9011,6.8301,6.8166,6.8402,6.8639,6.8707,6.8876,6.9519,7.0128,7.0466,7.0094,6.9857,6.9722,6.9113,6.891,6.9079,6.9383,6.9316,6.9194,6.8313,6.7524,6.6384,6.5359,6.4675,6.4183,6.4306,6.4276,6.4156,6.4126,6.3797,6.3109,6.2271,6.1822,6.1792,6.1583,6.0864,5.9757,5.9458,5.9368,5.9189,5.9159,5.9398,5.9757,5.9548,5.9159,5.856,5.8052,5.7513,5.6915,5.6585,5.6286,5.6017,5.6017,5.6077,5.5688,5.5807,5.5359,5.4341,5.461,5.4999,5.5299,5.5598,5.6256,5.6974,5.6795,5.6735,5.6944,5.6825,5.6496,5.6795,5.7363,5.7782,5.7573,5.7962,5.7842,5.7513,5.7244,5.7423,5.7663,5.7902,5.8231,5.8381,5.862,5.886,5.883,5.8919,5.9039,5.9518,6.0146,6.0864,6.1702,6.2271,6.272,6.2959,6.3339,6.5361,6.8393,7.0332,7.1745,6.6812,6.6846,6.7117,6.7218,6.7252,6.7523,6.7658,6.776,6.8436,6.8605,6.8571,6.9147,6.9519,6.9451,6.9248,6.9451,6.9857,6.9654,6.9654,6.9823,6.9586,6.9519,6.9654,7.0567,7.1379,7.1954,7.165,7.1278,7.0973,7.0297,7.006,7.0364,7.0263,7.0466,7.0546,6.9949,6.9157,6.8581,6.7747,6.6803,6.6246,6.6667,6.6351,6.5321,6.5796,6.5585,6.4483,6.3588,6.2959,6.254,6.2241,6.1553,6.0595,6.0446,6.0446,6.0475,6.0505,6.0655,6.1014,6.0625,6.0176,5.9518,5.886,5.8201,5.7603,5.7304,5.6885,5.6675,5.6795,5.6944,5.6645,5.6795,5.6466,5.5478,5.5658,5.5867,5.5957,5.6256,5.6735,5.7334,5.7274,5.7393,5.7483,5.7453,5.7214,5.7453,5.7842,5.8231,5.7932,5.8261,5.8082,5.8082,5.8351,5.8501,5.8471,5.868,5.889,5.886,5.88,5.883,5.883,5.8979,5.9159,5.9967,6.0655,6.1343,6.2151,6.245,6.281,6.2929,6.3224,6.5054,6.7402,6.8968,7.0701,6.688,6.6981,6.7658,6.7963,6.8064,6.8673,6.891,6.9147,6.9755,6.9688,6.9417,6.9925,7.0263,7.0094,6.9722,7.006,7.0973,7.0567,7.0635,7.0973,7.0737,7.0466,7.077,7.1819,7.2631,7.3172,7.324,7.2969,7.2326,7.1718,7.1751,7.2124,7.1244,7.1379,7.2447,7.1442,7.0896,7.0961,7.0144,6.8838,6.771,6.9177,6.8941,6.5944,6.7157,6.7273,6.5706,6.4933,6.4306,6.3318,6.269,6.2061,6.1403,6.1224,6.1283,6.1224,6.1194,6.1283,6.1283,6.1253,6.0924,6.0326,5.9697,5.8979,5.853,5.8022,5.7573,5.7363,5.7363,5.7334,5.7304,5.7363,5.7304,5.7274,5.7004,5.6944,5.7154,5.7214,5.7334,5.7363,5.7244,5.7274,5.7483,5.7423,5.7663,5.7992,5.8261,5.8501,5.8919,5.9099,5.9159,5.9338,5.9548,5.9398,5.9308,5.9279,5.9428,5.9009,5.8949,5.8949,5.8979,5.9159,5.9398,6.0236,6.1014,6.1762,6.2271,6.248,6.278,6.2989,6.3665,6.4661,6.6251,6.8292,7.0381,6.7624,6.7692,6.847,6.8774,6.8808,6.9045,6.9113,6.9214,6.9891,7.0128,7.0094,7.0669,7.0973,7.0973,7.0804,7.0973,7.121,7.1142,7.1413,7.1988,7.1954,7.2157,7.2563,7.2969,7.3308,7.3544,7.3612,7.3375,7.3206,7.2969,7.3003,7.3172,7.2766,7.28,7.3283,7.2902,7.2438,7.2183,7.1847,7.1148,7.0531,7.0831,7.0709,6.9951,6.9257,6.8467,6.7273,6.5827,6.4934,6.4545,6.3857,6.3228,6.263,6.254,6.2391,6.2091,6.2331,6.257,6.245,6.2121,6.1762,6.1553,6.0864,6.0505,6.0326,5.9697,5.9099,5.874,5.859,5.856,5.856,5.856,5.877,5.9009,5.8171,5.7663,5.8291,5.8141,5.8022,5.8471,5.856,5.856,5.8501,5.853,5.859,5.874,5.883,5.9009,5.9488,5.9727,5.9727,6.0356,6.0595,6.0326,6.0116,6.0027,5.9787,5.9219,5.9099,5.9129,5.9249,5.9488,5.9757,6.0266,6.1014,6.1762,6.2032,6.2241,6.26,6.3049,6.373,6.4528,6.6622,6.8626,7.0694,6.8402,6.847,6.9248,6.9553,6.962,6.9891,7.0026,7.0094,7.0466,7.0669,7.077,7.1109,7.1312,7.1312,7.1312,7.1515,7.1751,7.1751,7.2191,7.2834,7.3172,7.3544,7.3883,7.395,7.4119,7.4424,7.439,7.4255,7.4018,7.395,7.395,7.3883,7.3646,7.3781,7.4458,7.4086,7.4006,7.3836,7.374,7.3373,7.2461,7.2914,7.2355,7.1821,7.0949,7.0394,6.8696,6.6819,6.5652,6.5114,6.4635,6.4276,6.3947,6.3887,6.3707,6.3348,6.3707,6.3797,6.3468,6.3079,6.266,6.2181,6.1702,6.1403,6.1104,6.0715,6.0236,5.9608,5.9757,5.9787,5.9608,5.9757,6.0086,6.0266,5.9458,5.9129,5.9907,5.9668,5.9578,5.9847,5.9937,5.9817,5.9578,5.9518,5.9368,5.9159,5.9039,5.9428,5.9877,6.0057,6.0386,6.1014,6.1373,6.1134,6.1036,6.1027,6.0897,6.0186,5.9727,5.9668,5.9578,5.9847,6.0206,6.0595,6.1164,6.1672,6.2091,6.245,6.272,6.3199,6.3677,6.4567,6.6414,6.8673,7.0759,6.9214,6.9282,6.9992,7.0297,7.0432,7.1075,7.1278,7.1278,7.1379,7.1413,7.1413,7.1345,7.1413,7.1413,7.1413,7.1684,7.236,7.2293,7.2902,7.3578,7.4221,7.4695,7.4695,7.4728,7.4999,7.5405,7.5642,7.527,7.483,7.4728,7.4728,7.4627,7.4119,7.4458,7.5134,7.4999,7.51,7.5377,7.5349,7.4832,7.4173,7.4638,7.4173,7.2776,7.2355,7.1388,6.9454,6.7697,6.643,6.5293,6.5173,6.5114,6.5084,6.5114,6.4994,6.4904,6.4844,6.4755,6.4246,6.4036,6.3588,6.269,6.248,6.2032,6.1672,6.1433,6.1134,6.0475,6.0805,6.0655,6.0556,6.0916,6.1387,6.1477,6.1276,6.1597,6.1373,6.1253,6.1104,6.1104,6.1104,6.0775,6.0446,6.0146,6.0027,5.9907,5.9817,6.0146,6.0535,6.0775,6.1104,6.1553,6.1792,6.2025,6.1958,6.2031,6.1841,6.1448,6.0796,6.0505,6.0086,6.0266,6.0685,6.1164,6.1762,6.2301,6.272,6.2989,6.3139,6.3528,6.4126,6.4605,6.541,6.8137,7.0504,6.9958,7.0026,7.077,7.1075,7.121,7.1819,7.1853,7.1345,7.1921,7.209,7.2022,7.1582,7.1684,7.2124,7.1718,7.1718,7.2496,7.2631,7.3071,7.439,7.5134,7.5439,7.5439,7.5405,7.5506,7.5676,7.5676,7.5574,7.5439,7.5371,7.5439,7.5371,7.5202,7.5337,7.554,7.5506,7.5506,7.5676,7.5676,7.558,7.5258,7.5388,7.5354,7.4406,7.3018,7.1059,6.9401,6.7759,6.6849,6.652,6.6101,6.5802,6.5802,6.5802,6.5622,6.5383,6.5562,6.5503,6.4964,6.4755,6.4485,6.3737,6.3827,6.3917,6.278,6.263,6.2301,6.1732,6.1343,6.1164,6.1216,6.3,6.3163,6.2798,6.3731,6.4392,6.3454,6.2061,6.1403,6.1253,6.1224,6.1074,6.0924,6.0894,6.0775,6.0685,6.0745,6.0984,6.1224,6.1433,6.1792,6.2121,6.2331,6.2618,6.3354,6.3373,6.3469,6.3067,6.2395,6.1613,6.1194,6.0954,6.1463,6.1942,6.2421,6.2984,6.3514,6.3498,6.3677,6.4156,6.4723,6.5144,6.61,6.8374,7.0045,7.0737,7.0737,7.1142,7.1312,7.1413,7.2056,7.1988,7.1548,7.209,7.2394,7.2326,7.1954,7.2225,7.2868,7.2563,7.2732,7.3409,7.3815,7.4356,7.51,7.554,7.5676,7.5676,7.5676,7.5676,7.5676,7.5676,7.5676,7.5676,7.5676,7.5642,7.5676,7.5676,7.5608,7.5676,7.5676,7.5676,7.5676,7.5676,7.5676,7.5676,7.5676,7.5676,7.5388,7.3566,7.1745,7.0312,6.8883,6.7789,6.7123,6.667,6.646,6.646,6.646,6.6251,6.6131,6.6221,6.6131,6.5682,6.5443,6.5203,6.4545,6.4844,6.4575,6.4036,6.3737,6.3199,6.269,6.2271,6.2061,6.2175,6.3709,6.4298,6.4746,6.5888,6.6557,6.5421,6.3659,6.245,6.2391,6.2301,6.1942,6.1732,6.1613,6.1313,6.1104,6.0984,6.1194,6.1613,6.1882,6.2271,6.26,6.2839,6.3411,6.4412,6.4862,6.5201,6.4708,6.4022,6.3425,6.2744,6.2565,6.2391,6.26,6.2804,6.391,6.4357,6.4377,6.4623,6.548,6.5966,6.6011,6.6583,6.804,6.9691,7.1312,7.1312,7.1312,7.1312,7.1447,7.2191,7.2191,7.1684,7.2259,7.2766,7.2665,7.2563,7.2766,7.3477,7.3443,7.3883,7.4559,7.5202,7.5506,7.5574,7.5642,7.5676,7.5676,7.5676,7.5676,7.5676,7.5676,7.5676,7.5676,7.5676,7.5676,7.5676,7.5676,7.5676,7.5676,7.5676,7.5676,7.5676,7.5676,7.5676,7.5676,7.5676,7.5676,7.5388,7.4206,7.2946,7.1497,7.0086,6.8531,6.7427,6.7121,6.6999,6.6999,6.6999,6.6999,6.6939,6.6879,6.664,6.6281,6.6131,6.5892,6.5233,6.5353,6.5203,6.4934,6.4575,6.4156,6.3707,6.3378,6.3288,6.3344,6.5134,6.595,6.6418,6.7577,6.8405,6.7527,6.588,6.477,6.3707,6.3079,6.254,6.2361,6.2211,6.1882,6.1583,6.1493,6.1523,6.1942,6.2301,6.269,6.2839,6.3019,6.432,6.5357,6.7014,6.7317,6.6849,6.5995,6.5095,6.4492,6.394,6.3494,6.2919,6.3237,6.4258,6.5279,6.5647,6.616,6.6961,6.7151,6.712,6.7393,6.7871,6.9361,7.1312,7.1312,7.1312,7.1312,7.1515,7.2732,7.2834,7.2428,7.2935,7.368,7.3984,7.3003,7.3274,7.4018,7.3747,7.395,7.4762,7.5371,7.5676,7.5676,7.5676,7.5676,7.5676,7.5676,7.5676,7.5676,7.5676,7.5676,7.5676,7.5676,7.5676,7.5676,7.5676,7.5676,7.5676,7.5676,7.5676,7.5676,7.5676,7.5676,7.5676,7.5676,7.5676,7.558,7.4406,7.3566,7.2704,7.0727,6.9085,6.8766,6.7668,6.7213,6.7213,6.7213,6.6999,6.6999,6.6999,6.6879,6.6729,6.6759,6.646,6.6161,6.6221,6.5951,6.5503,6.5353,6.5084,6.4755,6.4515,6.4425,6.4004,6.6288,6.74,6.7742,6.9253,7.1038,6.9905,6.8357,6.6514,6.4951,6.4026,6.3169,6.3169,6.3079,6.2869,6.266,6.254,6.2421,6.254,6.278,6.2989,6.3049,6.3049,6.4734,6.6438,6.8525,6.9648,6.9038,6.8234,6.7042,6.6252,6.5283,6.4631,6.425,6.4228,6.4953,6.5942,6.6883,6.7554,6.8289,6.8312,6.8199,6.826,6.8378,6.9162,7.1312,7.1312,7.1312,7.1312,7.1515,7.2462,7.2732,7.2563,7.3172,7.3916,7.4221,7.3916,7.4119,7.4864,7.4864,7.4864,7.5202,7.5473,7.5676,7.5676,7.5676,7.5676,7.5676,7.5676,7.5676,7.5676,7.5676,7.5676,7.5676,7.5676,7.5676,7.5676,7.5676,7.5676,7.5676,7.5676,7.5676,7.5676,7.5676,7.5676,7.5676,7.5676,7.5709,7.5484,7.5064,7.4406,7.3431,7.2599,7.1059,7.028,6.8969,6.8766,6.8649,6.7879,6.6999,6.7091,6.6999,6.6999,6.6999,6.6999,6.6789,6.661,6.6849,6.6729,6.6191,6.6011,6.5772,6.5263,6.5024,6.4904,6.4663,6.7447,6.8603,6.9223,7.1444,7.2678,7.1955,7.0416,6.8451,6.6422,6.5162,6.451,6.4186,6.4066,6.3887,6.3737,6.3588,6.3438,6.3258,6.3378,6.3528,6.384,6.4183,6.5997,6.7939,6.9976,7.1419,7.1029,7.042,6.9212,6.8027,6.7073,6.6392,6.5749,6.5903,6.6634,6.7622,6.9079,6.9367,6.9635,6.9902,6.9992,6.9054,6.8969,6.9859,7.1312,7.1312,7.1312,7.1312,7.1447,7.2259,7.2665,7.2766,7.3443,7.4153,7.4762,7.4695,7.4931,7.554,7.5642,7.5642,7.5676,7.5676,7.5676,7.5676,7.5676,7.5676,7.5676,7.5676,7.5676,7.5676,7.5676,7.5676,7.5676,7.5676,7.5676,7.5676,7.5676,7.5676,7.5676,7.5676,7.5676,7.5676,7.5676,7.5676,7.5676,7.5709,7.5811,7.5879,7.5811,7.5295,7.4872,7.3731,7.3135,7.2067,7.0981,7.0262,7.0886,6.9263,6.7759,6.7427,6.7213,6.6999,6.6999,6.6999,6.6969,6.6879,6.6969,6.6969,6.6879,6.646,6.6071,6.5533,6.5473,6.5443,6.562,6.7641,6.9346,7.0533,7.2411,7.4131,7.3575,7.2489,7.1038,6.9067,6.712,6.5796,6.5141,6.4695,6.4455,6.4395,6.4246,6.4156,6.4006,6.4096,6.439,6.4782,6.5626,6.7458,6.9394,7.1489,7.2634,7.2741,7.2149,7.1253,7.0052,6.8924,6.8214,6.7691,6.8861,6.9638,7.0482,7.0929,7.1123,7.1487,7.1874,7.1497,7.0312,7.0199,7.0949,7.1312,7.1312,7.1312,7.1312,7.1515,7.2699,7.3308,7.3375,7.4018,7.4897,7.5337,7.4965,7.5067,7.554,7.5676,7.5676,7.5676,7.5676,7.5676,7.5676,7.5676,7.5676,7.5676,7.5676,7.5676,7.5676,7.5676,7.5676,7.5676,7.5676,7.5676,7.5676,7.5676,7.5676,7.5676,7.5676,7.5676,7.5676,7.5676,7.5676,7.5676,7.5676,7.6048,7.6284,7.6149,7.6053,7.6304,7.5072,7.4126,7.4806,7.2509,7.1662,7.206,7.1488,7.0149,6.8969,6.7879,6.6999,6.6999,6.6999,6.6999,6.6999,6.6999,6.6999,6.6939,6.6909,6.67,6.6819,6.67,6.64,6.6312,6.7917,6.9346,7.0748,7.2358,7.4106,7.4472,7.3536,7.2241,7.1467,6.9444,6.7304,6.5917,6.5381,6.4964,6.4934,6.4904,6.4814,6.4695,6.4695,6.4874,6.5253,6.6753,6.8659,7.0209,7.2414,7.3625,7.4124,7.3772,7.3039,7.1909,7.078,7.0236,7.011,7.1231,7.1747,7.1922,7.2265,7.2838,7.3069,7.3159,7.2461,7.1529,7.1745,7.2355,7.0906,7.1312,7.1312,7.1312,7.1379,7.2022,7.2496,7.2969,7.3646,7.439,7.5033,7.527,7.5439,7.5642,7.5676,7.5676,7.5676,7.5676,7.5676,7.5676,7.5676,7.5676,7.5676,7.5676,7.5676,7.5676,7.5676,7.5676,7.5676,7.5676,7.5676,7.5676,7.5676,7.5676,7.5777,7.5709,7.5676,7.5676,7.5676,7.5676,7.5676,7.5709,7.5879,7.6217,7.5912,7.6251,7.6328,7.6301,7.5739,7.6039,7.4253,7.3908,7.3973,7.2916,7.131,7.1853,7.0312,6.8883,6.7305,6.7091,6.7091,6.6999,6.6999,6.6999,6.6999,6.6999,6.6999,6.6969,6.6969,6.6819,6.6853,6.8142,6.8984,7.0252,7.1949,7.3197,7.4306,7.4005,7.3192,7.2567,7.1789,6.9458,6.7549,6.6877,6.6221,6.5592,6.5503,6.5502,6.5144,6.4904,6.5203,6.5652,6.7538,6.9852,7.1162,7.2779,7.4455,7.5079,7.5079,7.4305,7.3536,7.2639,7.2036,7.1929,7.2613,7.2967,7.314,7.3642,7.4304,7.4372,7.4406,7.3668,7.3018,7.377,7.424,7.0466,7.1312,7.1312,7.1312,7.1345,7.1515,7.1921,7.2496,7.3443,7.4119,7.4661,7.5303,7.5676,7.5676,7.5676,7.5676,7.5676,7.5676,7.5676,7.5676,7.5676,7.5676,7.5676,7.5676,7.5676,7.5676,7.5676,7.5676,7.5676,7.5676,7.5676,7.5676,7.5676,7.5845,7.598,7.6082,7.6183,7.6454,7.6217,7.6082,7.6048,7.6048,7.6183,7.6284,7.6318,7.642,7.6826,7.6893,7.71,7.7511,7.6375,7.5973,7.6341,7.4731,7.3175,7.3149,7.2143,7.0727,6.9085,6.8087,6.7638,6.7427,6.7091,6.6999,6.6999,6.6999,6.6999,6.6999,6.6999,6.6999,6.7213,6.7968,6.8587,6.9765,7.1356,7.2567,7.3566,7.3904,7.4139,7.4005,7.3018,7.1497,6.9835,6.8845,6.7783,6.6583,6.6131,6.6192,6.6072,6.5889,6.6573,6.7382,6.935,7.1302,7.2195,7.3575,7.4963,7.5676,7.5676,7.5484,7.4505,7.4106,7.3668,7.377,7.3904,7.3805,7.3707,7.4701,7.5676,7.5258,7.4932,7.4835,7.4835,7.5388,7.5681,6.9992,7.1312,7.1312,7.1312,7.1345,7.2056,7.2326,7.2428,7.3849,7.4492,7.4796,7.5337,7.5676,7.5676,7.5676,7.5676,7.5676,7.5676,7.5676,7.5676,7.5676,7.5676,7.5676,7.5676,7.5676,7.5676,7.5676,7.5676,7.5676,7.5676,7.5676,7.5676,7.5676,7.6183,7.6555,7.6724,7.7063,7.7266,7.7063,7.6758,7.6724,7.6758,7.6961,7.7502,7.7807,7.8382,7.9634,7.8551,7.828,7.9295,7.8118,7.7479,7.7543,7.6406,7.5272,7.4502,7.3899,7.2794,7.158,6.9724,6.8969,6.8531,6.7879,6.6999,6.6999,6.6999,6.6999,6.6999,6.6999,6.6999,6.6999,6.7213,6.7998,6.8969,7.028,7.1388,7.2776,7.4439,7.477,7.5064,7.4306,7.2914,7.1497,7.0392,6.8883,6.7664,6.7305,6.7243,6.7867,6.8034,6.8935,7.0091,7.1735,7.3061,7.3299,7.4406,7.5354,7.5676,7.5676,7.5676,7.5388,7.5161,7.4736,7.4638,7.4539,7.4406,7.4406,7.5161,7.5676,7.5676,7.558,7.5455,7.5493,7.5918,7.6048,6.9417,7.0026,7.0906,7.1312,7.1345,7.1616,7.1718,7.1988,7.3274,7.4492,7.527,7.5574,7.5676,7.5676,7.5676,7.5676,7.5676,7.5676,7.5676,7.5676,7.5676,7.5676,7.5676,7.5676,7.5676,7.5676,7.5676,7.5676,7.5676,7.5676,7.5676,7.5676,7.5777,7.6183,7.669,7.7401,7.7807,7.7874,7.7705,7.7435,7.6927,7.6893,7.7029,7.7266,7.7333,7.7807,7.8585,7.8788,7.9058,7.9228,7.8923,7.8754,7.845,7.757,7.677,7.604,7.5673,7.5172,7.4023,7.1488,6.8883,6.7879,6.7335,6.7121,6.7274,6.7121,6.6999,6.6999,6.6999,6.6999,6.6999,6.6969,6.7427,6.8087,6.9085,7.028,7.1713,7.3464,7.4539,7.4539,7.477,7.4306,7.3121,7.1821,7.0312,6.8852,6.8649,6.8531,6.9085,6.9516,7.0199,7.1278,7.2809,7.3668,7.3972,7.4736,7.5676,7.5676,7.5676,7.5676,7.5676,7.5676,7.5354,7.5161,7.5161,7.5064,7.5161,7.5388,7.558,7.5676,7.5777,7.5912,7.6082,7.6352,7.6521,6.8876,6.9248,7.0466,7.1109,7.1278,7.1312,7.1312,7.1515,7.2631,7.3984,7.5371,7.554,7.5676,7.5676,7.5676,7.5676,7.5676,7.5676,7.5676,7.5676,7.5676,7.5676,7.5676,7.5676,7.5676,7.5676,7.5676,7.5676,7.5676,7.5676,7.5912,7.6048,7.6115,7.6589,7.7299,7.8145,7.8653,7.8619,7.8348,7.8145,7.7638,7.7638,7.7638,7.7807,7.801,7.8382,7.8957,7.9261,7.9431,7.9566,7.9431,7.9295,7.8822,7.8314,7.7841,7.7705,7.757,7.7232,7.604,7.3698,7.0318,6.9604,6.9105,6.8661,6.8152,6.7789,6.7759,6.6999,6.6999,6.6999,6.6999,6.6999,6.6999,6.7638,6.8766,6.9859,7.0727,7.2143,7.3154,7.3836,7.434,7.5064,7.3972,7.2567,7.1169,6.9745,6.8969,6.9201,7.0086,7.0392,7.0727,7.1821,7.3225,7.3871,7.4306,7.503,7.5676,7.5676,7.5676,7.5676,7.5676,7.5676,7.5676,7.5484,7.5484,7.5676,7.5709,7.5648,7.5709,7.5676,7.598,7.6386,7.6555,7.686,7.7299,6.8402,6.9147,6.9925,7.0635,7.1278,7.1312,7.1312,7.1447,7.2259,7.3443,7.4864,7.5439,7.5676,7.5676,7.5676,7.5676,7.5676,7.5676,7.5676,7.5676,7.5676,7.5676,7.5676,7.5676,7.5676,7.5676,7.5676,7.5676,7.5676,7.5676,7.6082,7.6555,7.6724,7.7232,7.8044,7.9397,8.0073,8.0006,7.9363,7.9058,7.8822,7.872,7.872,7.8822,7.9126,7.9363,7.9701,7.9803,7.9938,7.9938,7.9972,7.9769,7.9228,7.9025,7.8619,7.8213,7.8111,7.7976,7.7711,7.5701,7.377,7.211,7.1402,7.1174,7.0388,6.9463,6.8684,6.791,6.7151,6.7029,6.7029,6.6999,6.6999,6.7546,6.86,6.9093,6.9901,7.1278,7.2388,7.3258,7.4439,7.5258,7.4306,7.3225,7.1929,7.0727,6.9631,6.9859,7.0949,7.1497,7.1713,7.2461,7.377,7.4505,7.503,7.5354,7.5676,7.5676,7.5676,7.5676,7.5676,7.5676,7.5676,7.5709,7.5912,7.6082,7.5946,7.5811,7.6115,7.6487,7.6657,7.6995,7.7164,7.7468,7.801,6.8368,6.918,6.9891,7.0601,7.1244,7.1312,7.1312,7.1515,7.2597,7.395,7.5134,7.5642,7.5676,7.5676,7.5676,7.5676,7.5676,7.5676,7.5676,7.5676,7.5676,7.5676,7.5676,7.5676,7.5676,7.5676,7.5676,7.5676,7.5676,7.5676,7.5777,7.6183,7.7333,7.801,7.8754,7.9735,8.0175,8.0175,7.987,7.9634,7.9194,7.9126,7.916,7.916,7.9464,7.9803,8.0175,8.0209,8.0276,8.0242,8.0209,8.0107,7.9701,7.9498,7.9261,7.916,7.9126,7.8754,7.872,7.7615,7.6187,7.4475,7.3481,7.3259,7.2489,7.0808,6.9859,6.8995,6.8001,6.7696,6.7537,6.7178,6.7238,6.7956,6.8574,6.8243,6.8842,7.0662,7.2068,7.2704,7.377,7.4605,7.4306,7.4306,7.3328,7.2776,7.1929,7.1713,7.2567,7.2704,7.2946,7.3464,7.434,7.5161,7.5676,7.5676,7.5676,7.5676,7.5676,7.5676,7.5676,7.5811,7.5879,7.6014,7.6284,7.6487,7.6555,7.669,7.7096,7.7401,7.7638,7.7874,7.8111,7.8483,7.8923,6.7024,6.7454,6.8674,6.9501,7.0297,7.0996,7.1312,7.1582,7.2834,7.4052,7.4864,7.5371,7.5676,7.5676,7.5676,7.5676,7.5676,7.5676,7.5676,7.5676,7.5676,7.5676,7.5676,7.5676,7.5676,7.5676,7.5676,7.5676,7.5676,7.5676,7.6115,7.6893,7.7942,7.8923,7.9566,7.9972,8.0209,8.0175,8.0073,7.9938,7.9634,7.9532,7.9532,7.9532,7.9634,7.9769,8.0141,8.0344,8.0445,8.0344,8.0378,8.0412,8.0141,7.9904,7.987,8.0141,8.0209,7.9769,7.9532,7.9464,7.8011,7.6597,7.5733,7.5212,7.4723,7.3402,7.1792,7.0645,6.9181,6.8544,6.826,6.7841,6.7956,6.8704,6.8555,6.826,6.8667,7.0442,7.1726,7.2316,7.3619,7.4166,7.4872,7.4902,7.4932,7.4539,7.424,7.4139,7.3803,7.3803,7.3836,7.424,7.4671,7.5422,7.5709,7.5676,7.5676,7.5676,7.5743,7.5845,7.6149,7.6352,7.6318,7.642,7.6893,7.7299,7.7435,7.7671,7.8077,7.8416,7.8686,7.8923,7.9126,7.9363,7.9634,6.4528,6.4384,6.6213,6.7471,6.8418,7.0397,7.1345,7.1481,7.2868,7.3544,7.3713,7.5202,7.5676,7.5676,7.5676,7.5676,7.5676,7.5676,7.5676,7.5676,7.5676,7.5676,7.5676,7.5676,7.5676,7.5676,7.5676,7.5676,7.5709,7.5912,7.6623,7.7908,7.916,7.9837,8.0175,8.0344,8.0344,8.0242,8.0175,8.0107,7.9972,8.004,8.0006,8.0006,8.004,8.0073,8.0378,8.0716,8.0648,8.0648,8.0818,8.0648,8.0445,8.0209,8.0648,8.0953,8.1021,8.0615,8.0344,8.0242,8.0276,7.9324,7.906,7.8314,7.7086,7.5742,7.4042,7.2328,7.0849,7.0037,6.9351,6.9166,6.8914,6.9064,6.9064,6.901,6.9201,7.0157,7.1279,7.2476,7.4235,7.5336,7.6171,7.6425,7.6121,7.5725,7.5368,7.5104,7.4839,7.424,7.4373,7.4373,7.4902,7.5585,7.5811,7.5879,7.6014,7.6149,7.6082,7.6183,7.6521,7.6927,7.7029,7.7266,7.7773,7.8179,7.872,7.8957,7.9058,7.9397,7.9634,7.9498,7.9566,7.9769,8.004,6.3322,6.4126,6.4707,6.619,6.8352,7.0364,7.1616,7.2191,7.3105,7.3747,7.4356,7.527,7.5676,7.5676,7.5676,7.5676,7.5676,7.5676,7.5676,7.5676,7.5676,7.5676,7.5676,7.5676,7.5676,7.5676,7.5676,7.5709,7.5845,7.6115,7.7266,7.8754,7.96,8.0242,8.0682,8.0953,8.0581,8.031,8.0209,8.0209,8.0209,8.0209,8.0209,8.0209,8.0209,8.0209,8.0378,8.0987,8.0885,8.0479,8.0953,8.0919,8.0276,8.0209,8.0412,8.0445,8.0513,8.0547,8.0885,8.0953,8.1122,8.1359,8.0987,8.0276,7.909,7.7589,7.5886,7.4381,7.2904,7.208,7.1197,7.0663,7.0688,7.0712,7.0404,6.9789,6.9923,7.0249,7.1416,7.3148,7.4956,7.6542,7.7405,7.7401,7.7096,7.6758,7.6459,7.6197,7.5833,7.527,7.5138,7.527,7.5601,7.6323,7.6251,7.6251,7.6454,7.6589,7.6589,7.6792,7.7333,7.7705,7.7807,7.8145,7.8653,7.9498,8.0344,8.0344,7.9972,8.0242,8.0479,8.0175,8.004,8.0276,8.0581,6.1676,6.2567,6.3136,6.4959,6.7458,6.9317,7.0448,7.1312,7.2818,7.3781,7.4255,7.5236,7.5676,7.5676,7.5676,7.5676,7.5676,7.5676,7.5676,7.5676,7.5676,7.5676,7.5676,7.5676,7.5676,7.5676,7.5676,7.5676,7.5946,7.6555,7.757,7.8517,7.9397,8.0175,8.0581,8.0648,8.0547,8.031,8.0209,8.0209,8.0209,8.0242,8.0209,8.0242,8.0242,8.0209,8.0378,8.1088,8.1122,8.0716,8.1224,8.1426,8.075,8.0445,8.0648,8.0716,8.075,8.1156,8.1528,8.1359,8.1765,8.2069,8.2035,8.1596,8.0681,7.9355,7.7965,7.6567,7.5328,7.4224,7.3257,7.2391,7.2535,7.2645,7.1526,7.044,7.0464,7.0607,7.2075,7.3916,7.5718,7.7413,7.8145,7.8111,7.7908,7.7502,7.7299,7.7202,7.6868,7.6399,7.65,7.6669,7.6868,7.7232,7.6995,7.686,7.713,7.7299,7.7333,7.7604,7.8179,7.8517,7.8653,7.9058,7.96,8.0344,8.0953,8.0919,8.0716,8.1021,8.1325,8.1257,8.1021,8.0851,8.1224,5.9979,6.0186,6.1642,6.3885,6.6181,6.7814,6.8785,6.9541,7.2203,7.3443,7.3781,7.4965,7.5574,7.5642,7.5676,7.5676,7.5676,7.5676,7.5676,7.5676,7.5676,7.5676,7.5676,7.5676,7.5676,7.5676,7.5709,7.5811,7.6048,7.6724,7.757,7.8111,7.916,8.004,8.0547,8.0615,8.0682,8.0851,8.0615,8.0479,8.0412,8.0344,8.0276,8.0344,8.0344,8.0344,8.0648,8.1156,8.1799,8.1494,8.1596,8.2002,8.1122,8.0818,8.1088,8.1325,8.1291,8.1799,8.2137,8.2069,8.2238,8.2475,8.2543,8.2441,8.1797,8.1018,7.9708,7.8563,7.7365,7.676,7.5902,7.5086,7.4967,7.45,7.347,7.2535,7.2134,7.2149,7.2545,7.4441,7.6266,7.8015,7.9025,7.8991,7.8686,7.8247,7.8077,7.8077,7.7942,7.7536,7.7502,7.7773,7.7908,7.7942,7.7739,7.7705,7.7942,7.8077,7.8077,7.8416,7.9025,7.9295,7.9532,8.0073,8.0648,8.0784,8.1122,8.1291,8.1528,8.1765,8.2069,8.2306,8.2171,8.1832,8.1934,5.8399,5.9507,6.1888,6.3837,6.5568,6.798,6.902,6.9379,7.1606,7.2969,7.3578,7.4458,7.5236,7.5676,7.5676,7.5676,7.5676,7.5676,7.5676,7.5676,7.5676,7.5676,7.5676,7.5676,7.5676,7.5676,7.5777,7.5946,7.642,7.7198,7.8077,7.8855,7.9769,8.0479,8.0784,8.0851,8.1088,8.1393,8.1359,8.1156,8.1156,8.1054,8.1021,8.1021,8.0987,8.0648,8.1088,8.2035,8.1629,8.0987,8.19,8.1596,8.0378,8.0987,8.1257,8.1393,8.1866,8.2408,8.2915,8.2983,8.3152,8.3456,8.3625,8.3355,8.2915,8.2272,8.1484,8.0451,7.9747,7.9186,7.8623,7.797,7.7157,7.636,7.534,7.4561,7.3654,7.3509,7.3319,7.4997,7.6845,7.8198,7.933,7.9667,7.9397,7.9126,7.8923,7.8855,7.8923,7.8686,7.8314,7.8483,7.8686,7.8686,7.8551,7.8551,7.8822,7.8889,7.8889,7.9329,7.9837,8.031,8.0716,8.1224,8.1697,8.1731,8.1832,8.2171,8.2408,8.2543,8.2746,8.2983,8.3152,8.2949,8.3016,5.7723,5.8984,6.155,6.3204,6.464,6.746,6.8599,6.8732,7.0917,7.2529,7.351,7.4289,7.4999,7.5608,7.5676,7.5676,7.5676,7.5676,7.5676,7.5676,7.5676,7.5676,7.5676,7.5676,7.5676,7.5676,7.5709,7.6014,7.6555,7.7096,7.7841,7.8754,7.9837,8.0581,8.0784,8.1088,8.146,8.1832,8.2002,8.2205,8.2137,8.2002,8.1832,8.1765,8.1426,8.1088,8.1359,8.2137,8.1596,8.0953,8.1393,8.19,8.1359,8.1663,8.2002,8.2205,8.2509,8.2881,8.3524,8.3828,8.3896,8.4167,8.437,8.3964,8.3998,8.3389,8.3084,8.2167,8.1966,8.1448,8.117,8.0574,7.9787,7.9042,7.6772,7.505,7.4175,7.3658,7.431,7.5762,7.7245,7.8358,7.9463,8.0006,7.9904,8.0344,8.0107,8.0006,8.0006,7.9803,7.9464,7.9295,7.9498,7.9837,8.0006,7.9837,7.9735,7.9769,7.9803,8.0141,8.0648,8.1359,8.1968,8.2238,8.2408,8.2475,8.2644,8.2881,8.3016,8.3118,8.3355,8.3625,8.3795,8.3964,8.3998,5.7648,5.8746,6.1163,6.2476,6.3412,6.6516,6.7557,6.7406,6.9604,7.1539,7.2686,7.3615,7.4674,7.5473,7.5676,7.5676,7.5676,7.5676,7.5676,7.5676,7.5676,7.5676,7.5676,7.5676,7.5676,7.5811,7.5912,7.5946,7.6183,7.7063,7.7942,7.8247,7.8855,7.96,8.0242,8.0851,8.146,8.1968,8.2475,8.3321,8.3253,8.2949,8.2678,8.2306,8.1968,8.1562,8.1731,8.1968,8.1765,8.1224,8.1054,8.1426,8.2002,8.2238,8.278,8.3016,8.3084,8.3592,8.4133,8.4065,8.4234,8.4437,8.4573,8.4606,8.4573,8.4403,8.3959,8.379,8.3554,8.3414,8.3154,8.2862,8.21,8.1033,7.8474,7.5476,7.4605,7.3669,7.4812,7.6172,7.7333,7.8494,7.9485,8.0037,8.0682,8.119,8.1359,8.1393,8.1257,8.0885,8.0513,8.0378,8.0412,8.0784,8.1054,8.1054,8.075,8.0919,8.0987,8.1156,8.1393,8.1934,8.2441,8.2915,8.3084,8.3118,8.3253,8.349,8.3592,8.3761,8.42,8.4505,8.4336,8.4505,8.4708,5.8486,6.0486,6.1629,6.2445,6.3338,6.5549,6.6147,6.5878,6.7298,6.8784,7.0428,7.1722,7.3238,7.5676,7.5676,7.5676,7.5676,7.5676,7.5676,7.5676,7.5676,7.5676,7.5743,7.5845,7.5709,7.5946,7.6318,7.6657,7.6826,7.7908,7.8686,7.8855,7.9566,8.004,8.0242,8.0919,8.1663,8.2205,8.2983,8.3795,8.4065,8.3761,8.3389,8.3186,8.3152,8.2712,8.2712,8.3558,8.2746,8.1832,8.1291,8.1562,8.2069,8.2746,8.3355,8.3659,8.3727,8.4065,8.437,8.437,8.4505,8.4539,8.4606,8.4606,8.4606,8.4606,8.4403,8.4403,8.4268,8.4268,8.4015,8.4015,8.3482,8.2366,8.0321,7.687,7.4623,7.402,7.4096,7.5527,7.707,7.8356,7.9727,8.0555,8.1426,8.1765,8.1731,8.1799,8.2103,8.1832,8.1528,8.146,8.1359,8.1224,8.1257,8.1832,8.1799,8.2002,8.2137,8.2171,8.2272,8.2374,8.2847,8.349,8.3659,8.3693,8.3862,8.4234,8.4437,8.4674,8.5182,8.5418,8.5148,8.5114,8.5418]},{"header":{"parameterUnit":"m.s-1","parameterCategory":1,"la1":31.0,"la2":29.5877,"lo1":-88.7671,"lo2":-86.6584,"dx":0.0162,"dy":0.0185,"nx":115,"ny":88,"refTime":"2023-02-11T18:00:00:Z","depth":0,"parameterNumber":3,"parameterNumberName":"V-component_of_WINDS"},"data":[0.0,0.0,0.0,0.0,0.0,0.0,0.0,0.0,0.0,0.0,0.0,0.0,0.0,0.0,0.0,0.0,0.0,0.0,0.0,0.0,0.0,0.0,0.0,0.0,0.0,0.0,0.0,0.0,0.0,0.0,0.0,0.0,0.0,0.0,0.0,0.0,0.0,0.0,0.0,0.0,0.0,0.0,0.0,0.0,0.0,0.0,0.0,0.0,0.0,0.0,0.0,0.0,0.0,0.0,0.0,0.0,0.0,0.0,0.0,0.0,0.0,0.0,0.0,0.0,0.0,0.0,0.0,0.0,0.0,0.0,0.0,0.0,0.0,0.0,0.0,0.0,0.0,0.0,0.0,0.0,0.0,0.0,0.0,0.0,0.0,0.0,0.0,0.0,0.0,0.0,0.0,0.0,0.0,0.0,0.0,0.0,0.0,0.0,0.0,0.0,0.0,0.0,0.0,0.0,0.0,0.0,0.0,0.0,0.0,0.0,0.0,0.0,0.0,0.0,0.0,0.0,0.0,0.0,0.0,0.0,0.0,0.0,0.0,0.0,0.0,0.0,0.0,0.0,0.0,0.0,0.0,0.0,0.0,0.0,0.0,0.0,0.0,0.0,0.0,0.0,0.0,0.0,0.0,0.0,0.0,0.0,0.0,0.0,0.0,0.0,0.0,0.0,0.0,0.0,0.0,0.0,0.0,0.0,0.0,0.0,0.0,0.0,0.0,0.0,0.0,0.0,0.0,0.0,0.0,0.0,0.0,0.0,0.0,0.0,0.0,0.0,0.0,0.0,0.0,0.0,0.0,0.0,0.0,0.0,0.0,0.0,0.0,0.0,0.0,0.0,0.0,0.0,0.0,0.0,0.0,0.0,0.0,0.0,0.0,0.0,0.0,0.0,0.0,0.0,0.0,0.0,0.0,0.0,0.0,0.0,0.0,0.0,0.0,0.0,0.0,0.0,0.0,0.0,0.0,0.0,0.0,0.0,0.0,0.0,0.0,0.0,0.0,0.0,0.0,0.0,0.0,0.0,0.0,0.0,0.0,0.0,0.0,0.0,0.0,0.0,0.0,0.0,0.0,0.0,0.0,0.0,0.0,0.0,0.0,0.0,0.0,0.0,0.0,0.0,0.0,0.0,0.0,0.0,0.0,0.0,0.0,0.0,0.0,0.0,0.0,0.0,0.0,0.0,0.0,0.0,0.0,0.0,0.0,0.0,0.0,0.0,0.0,0.0,0.0,0.0,0.0,0.0,0.0,0.0,0.0,0.0,0.0,0.0,0.0,0.0,0.0,0.0,0.0,0.0,0.0,0.0,0.0,0.0,0.0,0.0,0.0,0.0,0.0,0.0,0.0,0.0,0.0,0.0,0.0,0.0,0.0,0.0,0.0,0.0,0.0,0.0,0.0,0.0,0.0,0.0,0.0,0.0,0.0,0.0,0.0,0.0,0.0,0.0,0.0,0.0,0.0,0.0,0.0,0.0,0.0,0.0,0.0,0.0,0.0,0.0,0.0,0.0,0.0,0.0,0.0,0.0,0.0,0.0,0.0,0.0,0.0,0.0,0.0,0.0,0.0,0.0,0.0,0.0,0.0,0.0,0.0,0.0,0.0,0.0,0.0,0.0,0.0,0.0,0.0,0.0,0.0,0.0,0.0,0.0,0.0,0.0,0.0,0.0,0.0,0.0,0.0,0.0,0.0,0.0,0.0,0.0,0.0,0.0,0.0,0.0,0.0,0.0,0.0,0.0,0.0,0.0,0.0,0.0,0.0,0.0,0.0,0.0,0.0,0.0,0.0,0.0,0.0,0.0,0.0,0.0,0.0,0.0,0.0,0.0,0.0,0.0,0.0,0.0,0.0,0.0,0.0,0.0,0.0,0.0,0.0,0.0,0.0,0.0,0.0,0.0,0.0,0.0,0.0,0.0,0.0,0.0,0.0,0.0,0.0,0.0,0.0,0.0,0.0,0.0,0.0,0.0,0.0,0.0,0.0,0.0,0.0,0.0,0.0,0.0,0.0,0.0,0.0,0.0,0.0,0.0,0.0,0.0,0.0,0.0,0.0,0.0,0.0,0.0,0.0,0.0,0.0,0.0,0.0,0.0,0.0,0.0,0.0,0.0,0.0,0.0,0.0,0.0,0.0,0.0,0.0,0.0,0.0,0.0,0.0,0.0,0.0,0.0,0.0,0.0,0.0,0.0,0.0,0.0,0.0,0.0,0.0,0.0,0.0,0.0,0.0,0.0,0.0,0.0,0.0,0.0,0.0,0.0,0.0,0.0,0.0,0.0,0.0,0.0,0.0,0.0,0.0,0.0,0.0,0.0,0.0,0.0,0.0,0.0,0.0,0.0,0.0,0.0,0.0,0.0,0.0,0.0,0.0,0.0,0.0,0.0,0.0,0.0,0.0,0.0,0.0,0.0,0.0,0.0,0.0,0.0,0.0,0.0,0.0,0.0,0.0,0.0,0.0,0.0,0.0,0.0,0.0,0.0,0.0,0.0,0.0,0.0,0.0,0.0,0.0,0.0,0.0,0.0,0.0,0.0,0.0,0.0,0.0,0.0,0.0,0.0,0.0,0.0,0.0,0.0,0.0,0.0,0.0,0.0,0.0,0.0,0.0,0.0,0.0,0.0,0.0,0.0,0.0,0.0,0.0,0.0,0.0,0.0,0.0,0.0,0.0,0.0,0.0,0.0,0.0,0.0,0.0,0.0,0.0,0.0,0.0,0.0,0.0,0.0,0.0,0.0,0.0,0.0,0.0,0.0,0.0,0.0,0.0,0.0,0.0,0.0,0.0,0.0,0.0,0.0,0.0,0.0,0.0,0.0,0.0,0.0,0.0,0.0,0.0,0.0,0.0,0.0,0.0,0.0,0.0,0.0,0.0,0.0,0.0,0.0,0.0,0.0,0.0,0.0,0.0,0.0,0.0,0.0,0.0,0.0,0.0,0.0,0.0,0.0,0.0,0.0,0.0,0.0,0.0,0.0,0.0,0.0,0.0,0.0,0.0,0.0,0.0,0.0,0.0,0.0,0.0,0.0,0.0,0.0,0.0,0.0,0.0,0.0,0.0,0.0,0.0,0.0,0.0,0.0,0.0,0.0,0.0,0.0,0.0,0.0,0.0,0.0,0.0,0.0,0.0,0.0,0.0,0.0,0.0,0.0,0.0,0.0,0.0,0.0,0.0,0.0,0.0,0.0,0.0,0.0,0.0,0.0,0.0,0.0,0.0,0.0,0.0,0.0,0.0,0.0,0.0,0.0,0.0,0.0,0.0,0.0,0.0,0.0,0.0,0.0,0.0,0.0,0.0,0.0,0.0,0.0,0.0,0.0,0.0,0.0,0.0,0.0,0.0,0.0,0.0,0.0,0.0,0.0,0.0,0.0,0.0,0.0,0.0,0.0,0.0,0.0,0.0,0.0,0.0,0.0,0.0,0.0,0.0,0.0,0.0,0.0,0.0,0.0,0.0,0.0,0.0,0.0,0.0,0.0,0.0,0.0,0.0,0.0,0.0,0.0,0.0,0.0,0.0,0.0,0.0,0.0,0.0,0.0,0.0,0.0,0.0,0.0,0.0,0.0,0.0,0.0,0.0,0.0,0.0,0.0,0.0,0.0,0.0,0.0,0.0,0.0,0.0,0.0,0.0,0.0,0.0,0.0,0.0,0.0,0.0,0.0,0.0,0.0,0.0,0.0,0.0,0.0,0.0,0.0,0.0,0.0,0.0,0.0,0.0,0.0,0.0,0.0,0.0,0.0,0.0,0.0,0.0,0.0,0.0,0.0,0.0,0.0,0.0,0.0,0.0,0.0,0.0,0.0,0.0,0.0,0.0,0.0,0.0,0.0,0.0,0.0,0.0,0.0,0.0,0.0,0.0,0.0,0.0,0.0,0.0,0.0,0.0,0.0,0.0,0.0,0.0,0.0,0.0,0.0,0.0,0.0,0.0,0.0,0.0,0.0,0.0,0.0,0.0,0.0,0.0,0.0,0.0,0.0,0.0,0.0,0.0,0.0,0.0,0.0,0.0,0.0,0.0,0.0,0.0,0.0,0.0,0.0,0.0,0.0,0.0,0.0,0.0,0.0,0.0,0.0,0.0,0.0,0.0,0.0,0.0,0.0,0.0,0.0,0.0,0.0,0.0,0.0,0.0,0.0,0.0,0.0,0.0,0.0,0.0,0.0,0.0,0.0,0.0,0.0,0.0,0.0,0.0,0.0,0.0,0.0,0.0,0.0,0.0,0.0,0.0,0.0,0.0,0.0,0.0,0.0,0.0,0.0,-2.1111,0.0,0.0,0.0,0.0,0.0,0.0,0.0,0.0,0.0,0.0,0.0,0.0,0.0,0.0,0.0,0.0,0.0,0.0,0.0,0.0,0.0,0.0,0.0,0.0,0.0,0.0,0.0,0.0,0.0,0.0,0.0,0.0,0.0,0.0,0.0,0.0,0.0,0.0,0.0,0.0,0.0,0.0,0.0,0.0,0.0,0.0,0.0,0.0,0.0,0.0,0.0,0.0,0.0,0.0,0.0,0.0,0.0,0.0,0.0,0.0,0.0,0.0,0.0,0.0,0.0,0.0,0.0,0.0,0.0,0.0,0.0,0.0,0.0,0.0,0.0,0.0,0.0,0.0,0.0,0.0,0.0,0.0,0.0,0.0,0.0,0.0,0.0,0.0,0.0,0.0,0.0,0.0,0.0,0.0,0.0,0.0,0.0,0.0,0.0,0.0,0.0,0.0,0.0,0.0,0.0,0.0,0.0,0.0,0.0,0.0,-2.0676,-2.1668,-2.0062,-1.9731,-2.0959,0.0,0.0,0.0,0.0,0.0,0.0,0.0,0.0,0.0,0.0,0.0,0.0,0.0,0.0,0.0,0.0,0.0,0.0,0.0,0.0,0.0,0.0,0.0,0.0,0.0,0.0,0.0,0.0,0.0,0.0,0.0,0.0,0.0,0.0,0.0,0.0,0.0,0.0,0.0,0.0,0.0,0.0,0.0,0.0,0.0,0.0,0.0,0.0,0.0,0.0,0.0,0.0,0.0,0.0,0.0,0.0,0.0,0.0,0.0,0.0,0.0,0.0,0.0,0.0,0.0,0.0,0.0,0.0,0.0,0.0,0.0,0.0,0.0,0.0,0.0,0.0,0.0,0.0,0.0,0.0,0.0,0.0,0.0,0.0,0.0,0.0,0.0,0.0,0.0,0.0,0.0,0.0,0.0,0.0,0.0,0.0,0.0,0.0,0.0,0.0,0.0,0.0,0.0,0.0,0.0,0.0,0.0,0.0,0.0,0.0,0.0,0.0,-2.0315,-2.0004,-2.0852,0.0,0.0,0.0,0.0,0.0,0.0,0.0,0.0,0.0,0.0,0.0,0.0,0.0,0.0,0.0,0.0,0.0,0.0,0.0,0.0,0.0,0.0,0.0,0.0,0.0,0.0,0.0,0.0,0.0,0.0,0.0,0.0,0.0,0.0,0.0,0.0,0.0,0.0,0.0,0.0,0.0,0.0,0.0,0.0,0.0,0.0,0.0,0.0,0.0,0.0,0.0,0.0,0.0,0.0,0.0,0.0,0.0,0.0,0.0,0.0,0.0,0.0,0.0,0.0,0.0,0.0,0.0,0.0,0.0,0.0,0.0,0.0,0.0,0.0,0.0,0.0,0.0,0.0,0.0,0.0,0.0,0.0,0.0,0.0,0.0,0.0,0.0,0.0,0.0,0.0,0.0,0.0,0.0,0.0,0.0,0.0,0.0,0.0,0.0,0.0,0.0,0.0,0.0,0.0,0.0,0.0,0.0,0.0,0.0,0.0,-2.2879,-2.2602,-2.2151,0.0,-2.129,0.0,0.0,0.0,0.0,0.0,0.0,0.0,0.0,0.0,0.0,0.0,0.0,0.0,0.0,0.0,0.0,0.0,0.0,0.0,0.0,0.0,0.0,0.0,0.0,0.0,0.0,0.0,0.0,0.0,0.0,0.0,0.0,0.0,0.0,0.0,0.0,0.0,0.0,0.0,0.0,0.0,0.0,0.0,0.0,0.0,0.0,0.0,0.0,0.0,0.0,0.0,0.0,0.0,0.0,0.0,0.0,0.0,0.0,0.0,0.0,0.0,0.0,0.0,0.0,0.0,0.0,0.0,0.0,0.0,0.0,0.0,0.0,0.0,0.0,0.0,0.0,0.0,0.0,0.0,0.0,0.0,0.0,0.0,0.0,0.0,0.0,0.0,0.0,0.0,0.0,0.0,0.0,0.0,0.0,0.0,0.0,0.0,0.0,0.0,0.0,0.0,0.0,0.0,0.0,0.0,0.0,0.0,0.0,0.0,0.0,-2.2213,-2.2047,-2.1361,-2.1085,0.0,0.0,0.0,0.0,0.0,0.0,0.0,0.0,0.0,0.0,0.0,0.0,0.0,0.0,0.0,0.0,0.0,0.0,0.0,0.0,0.0,0.0,0.0,0.0,0.0,0.0,0.0,0.0,0.0,0.0,0.0,0.0,0.0,0.0,0.0,0.0,0.0,0.0,0.0,0.0,0.0,0.0,0.0,0.0,0.0,0.0,0.0,0.0,0.0,0.0,0.0,0.0,0.0,0.0,0.0,0.0,0.0,0.0,0.0,0.0,0.0,0.0,0.0,0.0,0.0,0.0,0.0,0.0,0.0,0.0,0.0,0.0,0.0,0.0,0.0,0.0,0.0,0.0,0.0,0.0,0.0,0.0,0.0,0.0,0.0,0.0,0.0,0.0,0.0,0.0,0.0,0.0,0.0,0.0,0.0,0.0,0.0,0.0,0.0,0.0,0.0,0.0,0.0,0.0,0.0,0.0,0.0,0.0,0.0,0.0,-2.3106,-2.1995,-2.1565,-2.0593,-2.0452,-2.1203,0.0,0.0,0.0,0.0,0.0,0.0,0.0,0.0,0.0,0.0,0.0,0.0,0.0,0.0,0.0,0.0,0.0,0.0,0.0,0.0,0.0,0.0,0.0,0.0,0.0,0.0,0.0,0.0,0.0,0.0,0.0,0.0,0.0,0.0,0.0,0.0,0.0,0.0,0.0,0.0,0.0,0.0,0.0,0.0,0.0,0.0,0.0,0.0,0.0,0.0,0.0,0.0,0.0,0.0,0.0,0.0,0.0,0.0,0.0,0.0,0.0,0.0,0.0,0.0,0.0,0.0,0.0,0.0,0.0,0.0,0.0,0.0,0.0,0.0,0.0,0.0,0.0,0.0,0.0,0.0,0.0,0.0,0.0,0.0,0.0,0.0,0.0,0.0,0.0,0.0,0.0,0.0,0.0,0.0,0.0,0.0,0.0,0.0,0.0,0.0,0.0,0.0,0.0,0.0,0.0,0.0,0.0,0.0,-2.5394,-2.4165,-2.2889,-2.1557,-2.0553,-2.0345,0.0,0.0,0.0,0.0,0.0,0.0,0.0,0.0,0.0,0.0,0.0,0.0,0.0,0.0,0.0,0.0,0.0,0.0,0.0,0.0,0.0,0.0,0.0,0.0,0.0,0.0,0.0,0.0,0.0,0.0,0.0,0.0,0.0,0.0,0.0,0.0,0.0,0.0,0.0,0.0,0.0,0.0,0.0,0.0,0.0,0.0,0.0,0.0,0.0,0.0,0.0,0.0,0.0,0.0,0.0,0.0,0.0,0.0,0.0,0.0,0.0,0.0,0.0,0.0,0.0,0.0,0.0,0.0,0.0,0.0,0.0,0.0,0.0,0.0,0.0,0.0,0.0,0.0,0.0,0.0,0.0,0.0,0.0,0.0,0.0,0.0,0.0,0.0,0.0,0.0,0.0,0.0,0.0,0.0,0.0,0.0,0.0,0.0,0.0,0.0,0.0,0.0,0.0,0.0,0.0,0.0,0.0,0.0,0.0,-2.501,-2.3992,-2.3047,-2.2261,-2.1114,-2.0661,0.0,0.0,0.0,0.0,0.0,0.0,0.0,0.0,0.0,0.0,0.0,0.0,0.0,0.0,0.0,0.0,0.0,0.0,0.0,0.0,0.0,0.0,0.0,0.0,0.0,0.0,0.0,0.0,0.0,0.0,0.0,0.0,0.0,0.0,0.0,0.0,0.0,0.0,0.0,0.0,0.0,0.0,0.0,0.0,0.0,0.0,0.0,0.0,0.0,0.0,0.0,0.0,0.0,0.0,0.0,0.0,0.0,0.0,0.0,0.0,0.0,0.0,0.0,0.0,0.0,0.0,0.0,0.0,0.0,0.0,0.0,0.0,0.0,0.0,0.0,0.0,0.0,0.0,0.0,0.0,0.0,0.0,0.0,0.0,0.0,0.0,0.0,0.0,0.0,0.0,0.0,0.0,0.0,0.0,0.0,0.0,0.0,0.0,0.0,0.0,0.0,0.0,0.0,0.0,0.0,0.0,0.0,0.0,0.0,-2.3983,0.0,-2.2273,-2.2064,-2.1195,-2.0843,0.0,0.0,0.0,0.0,0.0,0.0,0.0,0.0,0.0,0.0,0.0,0.0,0.0,0.0,0.0,0.0,0.0,0.0,0.0,0.0,0.0,0.0,0.0,0.0,0.0,0.0,0.0,0.0,0.0,0.0,0.0,0.0,0.0,0.0,0.0,0.0,0.0,0.0,0.0,0.0,0.0,0.0,0.0,0.0,0.0,0.0,0.0,0.0,0.0,0.0,0.0,0.0,0.0,0.0,0.0,0.0,0.0,0.0,0.0,0.0,0.0,0.0,0.0,0.0,0.0,0.0,0.0,0.0,0.0,0.0,0.0,0.0,0.0,0.0,0.0,0.0,0.0,0.0,0.0,0.0,0.0,0.0,0.0,0.0,0.0,0.0,0.0,0.0,0.0,0.0,0.0,0.0,0.0,0.0,0.0,0.0,0.0,0.0,0.0,0.0,0.0,0.0,0.0,0.0,0.0,0.0,0.0,0.0,-2.3349,-2.2385,-2.125,-2.081,-2.0759,-2.0652,-2.0938,0.0,0.0,0.0,0.0,0.0,0.0,0.0,0.0,0.0,0.0,0.0,0.0,0.0,0.0,0.0,0.0,0.0,0.0,0.0,0.0,0.0,0.0,0.0,0.0,0.0,0.0,0.0,0.0,0.0,0.0,0.0,0.0,0.0,0.0,0.0,0.0,0.0,0.0,0.0,0.0,0.0,0.0,0.0,0.0,0.0,0.0,0.0,0.0,0.0,0.0,0.0,0.0,0.0,0.0,0.0,0.0,0.0,0.0,0.0,0.0,0.0,0.0,0.0,0.0,0.0,0.0,0.0,0.0,0.0,0.0,0.0,0.0,0.0,0.0,0.0,0.0,0.0,0.0,0.0,0.0,0.0,0.0,0.0,0.0,0.0,0.0,0.0,0.0,0.0,0.0,0.0,0.0,0.0,0.0,0.0,0.0,0.0,0.0,0.0,0.0,0.0,0.0,0.0,0.0,0.0,0.0,0.0,0.0,0.0,-2.4519,-2.279,-2.2307,-2.3082,-2.1869,-2.1454,0.0,0.0,0.0,0.0,0.0,0.0,0.0,0.0,0.0,0.0,0.0,0.0,0.0,0.0,0.0,0.0,0.0,0.0,0.0,0.0,0.0,0.0,0.0,0.0,0.0,0.0,0.0,0.0,0.0,0.0,0.0,0.0,0.0,0.0,0.0,0.0,0.0,0.0,0.0,0.0,0.0,0.0,0.0,0.0,0.0,0.0,0.0,0.0,0.0,0.0,0.0,0.0,0.0,0.0,0.0,0.0,0.0,0.0,0.0,0.0,0.0,0.0,0.0,0.0,0.0,0.0,0.0,0.0,0.0,0.0,0.0,0.0,0.0,0.0,0.0,0.0,0.0,0.0,0.0,0.0,0.0,0.0,0.0,0.0,0.0,0.0,0.0,0.0,0.0,0.0,0.0,0.0,0.0,0.0,0.0,0.0,0.0,0.0,0.0,0.0,0.0,0.0,0.0,0.0,0.0,0.0,0.0,0.0,0.0,-2.6961,-2.4328,-2.3451,-2.471,-2.3555,-2.2875,-2.2756,0.0,0.0,0.0,0.0,0.0,0.0,0.0,0.0,0.0,0.0,0.0,0.0,0.0,0.0,0.0,0.0,0.0,0.0,0.0,0.0,0.0,0.0,0.0,0.0,0.0,0.0,0.0,0.0,0.0,0.0,0.0,0.0,0.0,0.0,0.0,0.0,0.0,0.0,0.0,0.0,0.0,0.0,0.0,0.0,0.0,0.0,0.0,0.0,0.0,0.0,0.0,0.0,0.0,0.0,0.0,0.0,0.0,0.0,0.0,0.0,0.0,0.0,0.0,0.0,0.0,0.0,0.0,0.0,0.0,0.0,0.0,0.0,0.0,0.0,0.0,0.0,0.0,0.0,0.0,0.0,0.0,0.0,0.0,0.0,0.0,0.0,0.0,0.0,0.0,0.0,0.0,0.0,0.0,0.0,0.0,0.0,0.0,0.0,0.0,0.0,0.0,0.0,0.0,0.0,0.0,0.0,0.0,0.0,-2.9744,-2.6027,-2.4624,-2.5657,-2.5634,-2.498,0.0,0.0,0.0,0.0,0.0,0.0,0.0,0.0,0.0,0.0,0.0,0.0,0.0,0.0,0.0,0.0,0.0,0.0,0.0,0.0,0.0,0.0,0.0,0.0,0.0,0.0,0.0,0.0,0.0,0.0,0.0,0.0,0.0,0.0,0.0,0.0,0.0,0.0,0.0,0.0,0.0,0.0,0.0,0.0,0.0,0.0,0.0,0.0,0.0,0.0,0.0,0.0,0.0,0.0,0.0,0.0,0.0,0.0,0.0,0.0,0.0,0.0,0.0,0.0,0.0,0.0,0.0,0.0,0.0,0.0,0.0,0.0,0.0,0.0,0.0,0.0,0.0,0.0,0.0,0.0,0.0,0.0,0.0,0.0,0.0,0.0,0.0,0.0,0.0,0.0,0.0,0.0,0.0,0.0,0.0,0.0,0.0,0.0,0.0,0.0,0.0,0.0,0.0,0.0,0.0,0.0,0.0,0.0,0.0,-3.1629,-3.118,-3.0273,-2.8915,-2.7471,-2.628,0.0,0.0,0.0,0.0,0.0,0.0,0.0,0.0,0.0,0.0,0.0,0.0,0.0,0.0,0.0,0.0,0.0,0.0,0.0,0.0,0.0,0.0,0.0,0.0,0.0,0.0,0.0,0.0,0.0,0.0,0.0,0.0,0.0,0.0,0.0,0.0,0.0,0.0,0.0,0.0,0.0,0.0,0.0,0.0,0.0,0.0,0.0,0.0,0.0,0.0,0.0,0.0,0.0,0.0,0.0,0.0,0.0,0.0,0.0,0.0,0.0,0.0,0.0,0.0,0.0,0.0,0.0,0.0,0.0,0.0,0.0,0.0,0.0,0.0,0.0,0.0,0.0,0.0,0.0,0.0,0.0,0.0,0.0,0.0,0.0,0.0,0.0,0.0,0.0,0.0,0.0,0.0,0.0,0.0,0.0,0.0,0.0,0.0,0.0,0.0,0.0,0.0,0.0,0.0,0.0,0.0,0.0,0.0,-3.1509,-3.2916,-3.4951,-3.4986,-3.2788,-3.0528,-2.8338,0.0,0.0,0.0,0.0,0.0,0.0,0.0,0.0,0.0,0.0,0.0,0.0,0.0,0.0,0.0,0.0,0.0,0.0,0.0,0.0,0.0,0.0,0.0,0.0,0.0,0.0,0.0,0.0,0.0,0.0,0.0,0.0,0.0,0.0,0.0,0.0,0.0,0.0,0.0,0.0,0.0,0.0,0.0,0.0,0.0,0.0,0.0,0.0,0.0,0.0,0.0,0.0,0.0,0.0,0.0,0.0,0.0,0.0,0.0,0.0,0.0,0.0,0.0,0.0,0.0,0.0,0.0,0.0,0.0,0.0,0.0,0.0,0.0,0.0,0.0,0.0,0.0,0.0,0.0,0.0,0.0,0.0,0.0,0.0,0.0,0.0,0.0,0.0,0.0,0.0,0.0,0.0,0.0,0.0,0.0,0.0,0.0,0.0,0.0,0.0,0.0,0.0,0.0,0.0,0.0,0.0,0.0,0.0,-3.2946,-3.3814,-3.7494,-3.853,-3.6638,-3.4013,-3.0802,0.0,0.0,0.0,0.0,0.0,0.0,0.0,0.0,0.0,0.0,0.0,0.0,0.0,0.0,0.0,0.0,0.0,0.0,0.0,0.0,0.0,0.0,0.0,0.0,0.0,0.0,0.0,0.0,0.0,0.0,0.0,0.0,0.0,0.0,0.0,0.0,0.0,0.0,0.0,0.0,0.0,0.0,0.0,0.0,0.0,0.0,0.0,0.0,0.0,0.0,0.0,0.0,0.0,0.0,0.0,0.0,0.0,0.0,0.0,0.0,0.0,0.0,0.0,0.0,0.0,0.0,0.0,0.0,0.0,0.0,0.0,0.0,0.0,0.0,0.0,0.0,0.0,0.0,0.0,0.0,0.0,0.0,0.0,0.0,0.0,0.0,0.0,0.0,0.0,0.0,0.0,0.0,0.0,0.0,0.0,0.0,0.0,0.0,0.0,0.0,0.0,0.0,0.0,0.0,0.0,0.0,0.0,0.0,-3.3604,-3.5818,-3.8182,-3.8865,-3.7866,-3.5267,-3.253,0.0,0.0,0.0,0.0,0.0,0.0,0.0,0.0,0.0,0.0,0.0,0.0,0.0,0.0,0.0,0.0,0.0,0.0,0.0,0.0,0.0,0.0,0.0,0.0,0.0,0.0,0.0,0.0,0.0,0.0,0.0,0.0,0.0,0.0,0.0,0.0,0.0,0.0,0.0,0.0,0.0,0.0,0.0,0.0,0.0,0.0,0.0,0.0,-2.6097,0.0,0.0,0.0,0.0,0.0,0.0,0.0,0.0,0.0,0.0,0.0,0.0,0.0,0.0,0.0,0.0,0.0,0.0,0.0,0.0,0.0,0.0,0.0,0.0,0.0,0.0,0.0,0.0,0.0,0.0,0.0,0.0,0.0,0.0,0.0,0.0,0.0,0.0,0.0,0.0,0.0,0.0,0.0,0.0,0.0,0.0,0.0,0.0,0.0,0.0,0.0,0.0,0.0,0.0,0.0,0.0,0.0,0.0,0.0,-3.4262,-3.6866,-3.917,-3.9594,-3.8171,-3.6429,-3.38,0.0,0.0,0.0,0.0,0.0,0.0,0.0,0.0,0.0,0.0,0.0,0.0,0.0,0.0,0.0,0.0,0.0,0.0,0.0,0.0,0.0,0.0,0.0,0.0,0.0,0.0,0.0,0.0,0.0,0.0,0.0,0.0,0.0,0.0,0.0,0.0,0.0,0.0,0.0,0.0,0.0,0.0,0.0,0.0,0.0,0.0,0.0,0.0,0.0,0.0,0.0,0.0,0.0,0.0,0.0,0.0,0.0,0.0,0.0,0.0,0.0,0.0,0.0,0.0,0.0,0.0,0.0,0.0,0.0,0.0,0.0,0.0,0.0,0.0,0.0,0.0,0.0,0.0,0.0,0.0,0.0,0.0,0.0,0.0,0.0,0.0,0.0,0.0,0.0,0.0,0.0,0.0,0.0,0.0,0.0,0.0,0.0,0.0,0.0,0.0,0.0,0.0,0.0,0.0,0.0,0.0,0.0,-3.3036,-3.5011,-3.7823,-4.0068,-4.0286,-3.8172,-3.7191,-3.4602,-3.0451,0.0,0.0,0.0,0.0,0.0,0.0,0.0,0.0,0.0,0.0,0.0,0.0,0.0,0.0,0.0,0.0,0.0,0.0,0.0,0.0,0.0,0.0,0.0,0.0,0.0,0.0,0.0,0.0,0.0,0.0,0.0,0.0,0.0,0.0,0.0,0.0,0.0,0.0,-2.6271,-2.6421,0.0,0.0,0.0,0.0,0.0,0.0,0.0,0.0,-2.7856,0.0,0.0,0.0,0.0,0.0,0.0,0.0,0.0,0.0,0.0,0.0,0.0,0.0,0.0,0.0,0.0,0.0,0.0,0.0,0.0,0.0,0.0,0.0,0.0,0.0,0.0,0.0,0.0,0.0,0.0,0.0,0.0,0.0,0.0,0.0,0.0,0.0,0.0,0.0,0.0,0.0,0.0,0.0,0.0,0.0,0.0,0.0,0.0,0.0,0.0,0.0,0.0,0.0,0.0,0.0,0.0,-3.3125,-3.3933,-3.6148,-3.9798,-4.0337,-3.9817,-3.8227,-3.6721,-3.4344,-3.119,0.0,0.0,0.0,0.0,0.0,0.0,0.0,0.0,0.0,0.0,0.0,0.0,0.0,0.0,0.0,0.0,0.0,0.0,0.0,0.0,0.0,0.0,0.0,0.0,0.0,0.0,0.0,0.0,0.0,0.0,0.0,0.0,0.0,0.0,0.0,0.0,0.0,0.0,0.0,-2.8393,-2.8685,0.0,0.0,0.0,0.0,0.0,0.0,0.0,0.0,-2.8196,0.0,0.0,0.0,0.0,0.0,0.0,0.0,0.0,0.0,0.0,0.0,0.0,0.0,0.0,0.0,0.0,0.0,0.0,0.0,0.0,0.0,0.0,0.0,0.0,0.0,0.0,0.0,0.0,0.0,0.0,0.0,0.0,0.0,0.0,0.0,0.0,0.0,0.0,0.0,0.0,0.0,0.0,0.0,0.0,0.0,0.0,0.0,0.0,0.0,0.0,0.0,0.0,0.0,0.0,0.0,-3.4352,-3.519,-3.7105,-4.0277,-4.0495,-3.9744,-3.82,-3.6358,-3.4339,0.0,0.0,0.0,0.0,0.0,0.0,0.0,0.0,0.0,0.0,0.0,0.0,0.0,0.0,0.0,0.0,0.0,0.0,0.0,0.0,0.0,0.0,0.0,0.0,0.0,0.0,0.0,0.0,0.0,0.0,0.0,0.0,0.0,0.0,0.0,0.0,0.0,0.0,0.0,0.0,-3.0358,-3.0572,-3.0631,0.0,0.0,0.0,0.0,0.0,0.0,-2.903,-2.8821,0.0,0.0,0.0,0.0,0.0,0.0,0.0,0.0,0.0,0.0,0.0,0.0,0.0,0.0,0.0,0.0,0.0,0.0,0.0,0.0,0.0,0.0,0.0,0.0,0.0,0.0,0.0,0.0,0.0,0.0,0.0,0.0,0.0,0.0,0.0,0.0,0.0,0.0,0.0,0.0,0.0,0.0,0.0,0.0,0.0,0.0,0.0,0.0,0.0,0.0,0.0,0.0,0.0,0.0,0.0,-3.54,-3.6417,-3.8063,-4.0516,-4.0567,-3.9833,-3.8145,-3.617,-3.436,0.0,0.0,0.0,0.0,0.0,0.0,0.0,0.0,0.0,0.0,0.0,0.0,0.0,0.0,0.0,0.0,0.0,0.0,0.0,0.0,0.0,0.0,0.0,0.0,0.0,0.0,0.0,0.0,0.0,0.0,0.0,0.0,0.0,0.0,0.0,0.0,0.0,0.0,0.0,0.0,0.0,-3.2273,-3.2357,-3.2889,0.0,0.0,0.0,0.0,-3.01,-3.016,0.0,0.0,0.0,0.0,0.0,0.0,0.0,0.0,0.0,0.0,0.0,0.0,0.0,0.0,0.0,0.0,0.0,0.0,0.0,0.0,0.0,0.0,0.0,0.0,0.0,0.0,0.0,0.0,0.0,0.0,0.0,0.0,0.0,0.0,0.0,0.0,0.0,0.0,0.0,0.0,0.0,0.0,0.0,0.0,0.0,0.0,0.0,0.0,0.0,0.0,0.0,0.0,0.0,0.0,0.0,0.0,-3.5459,-3.7255,-3.917,-4.1175,-4.0879,-3.9833,-3.8228,-3.6252,-3.4257,0.0,0.0,0.0,0.0,0.0,0.0,0.0,0.0,0.0,0.0,0.0,0.0,0.0,0.0,0.0,0.0,0.0,0.0,0.0,0.0,0.0,0.0,0.0,0.0,0.0,0.0,0.0,0.0,0.0,0.0,0.0,0.0,0.0,0.0,0.0,0.0,0.0,0.0,0.0,0.0,0.0,-3.3478,-3.326,-3.3975,-3.3677,0.0,0.0,-3.2724,-3.0935,-3.2739,0.0,0.0,0.0,0.0,0.0,0.0,0.0,0.0,0.0,0.0,0.0,0.0,0.0,0.0,0.0,0.0,0.0,0.0,0.0,0.0,0.0,0.0,0.0,0.0,0.0,0.0,0.0,0.0,0.0,0.0,0.0,0.0,0.0,0.0,0.0,0.0,0.0,0.0,0.0,0.0,0.0,0.0,0.0,0.0,0.0,0.0,0.0,0.0,0.0,0.0,0.0,0.0,0.0,0.0,0.0,-3.3574,-3.5519,-3.7793,-3.9416,-4.0344,-4.0256,-3.9365,-3.7736,-3.5209,-3.342,0.0,0.0,0.0,0.0,0.0,0.0,0.0,0.0,0.0,0.0,0.0,0.0,0.0,0.0,0.0,0.0,0.0,0.0,0.0,0.0,0.0,0.0,0.0,0.0,0.0,0.0,0.0,0.0,0.0,0.0,0.0,0.0,0.0,0.0,0.0,0.0,0.0,0.0,0.0,0.0,0.0,0.0,-3.4186,-3.5368,0.0,0.0,0.0,-3.3962,-3.241,0.0,0.0,0.0,0.0,0.0,0.0,0.0,0.0,0.0,0.0,0.0,0.0,0.0,0.0,0.0,0.0,0.0,0.0,0.0,0.0,0.0,0.0,0.0,0.0,0.0,0.0,0.0,0.0,0.0,0.0,0.0,0.0,0.0,0.0,0.0,0.0,0.0,0.0,0.0,0.0,0.0,0.0,0.0,0.0,0.0,0.0,0.0,0.0,0.0,0.0,0.0,0.0,0.0,0.0,0.0,0.0,0.0,-3.5759,-3.8182,-3.949,-3.9607,-3.976,-3.906,-3.7325,-3.4702,0.0,0.0,0.0,0.0,0.0,0.0,0.0,0.0,0.0,0.0,0.0,0.0,0.0,0.0,0.0,0.0,0.0,0.0,0.0,0.0,0.0,0.0,0.0,0.0,0.0,0.0,0.0,0.0,0.0,0.0,0.0,0.0,0.0,0.0,0.0,0.0,0.0,0.0,0.0,0.0,0.0,0.0,-3.7142,-3.4927,-3.6514,-3.7049,0.0,0.0,-3.5107,-3.4023,-3.4806,-3.4992,0.0,0.0,0.0,0.0,0.0,0.0,0.0,0.0,0.0,0.0,0.0,0.0,0.0,0.0,0.0,0.0,0.0,0.0,0.0,0.0,0.0,0.0,0.0,0.0,0.0,0.0,0.0,0.0,0.0,0.0,0.0,0.0,0.0,0.0,0.0,0.0,0.0,0.0,0.0,0.0,0.0,0.0,0.0,0.0,0.0,0.0,0.0,0.0,0.0,0.0,0.0,0.0,0.0,0.0,0.0,-3.6417,-3.8392,-3.949,-3.9607,-3.976,-3.9087,-3.7352,-3.5775,-3.44,0.0,0.0,0.0,0.0,0.0,0.0,0.0,0.0,0.0,0.0,0.0,0.0,0.0,0.0,0.0,0.0,0.0,0.0,0.0,0.0,0.0,0.0,0.0,0.0,0.0,0.0,0.0,0.0,0.0,0.0,0.0,0.0,0.0,0.0,0.0,0.0,0.0,0.0,0.0,0.0,0.0,-3.7492,-3.5571,-3.7079,-3.7699,0.0,0.0,-3.6264,-3.5511,-3.7965,-3.8642,-3.4474,0.0,0.0,0.0,0.0,0.0,0.0,0.0,0.0,0.0,0.0,0.0,0.0,0.0,0.0,0.0,0.0,0.0,0.0,0.0,0.0,0.0,0.0,0.0,0.0,0.0,0.0,0.0,0.0,0.0,0.0,0.0,0.0,0.0,0.0,0.0,0.0,0.0,0.0,0.0,0.0,0.0,0.0,0.0,0.0,0.0,0.0,0.0,0.0,0.0,0.0,0.0,0.0,0.0,-3.513,-3.6477,-3.8422,-3.9161,-3.8611,-3.9421,-3.8735,-3.6237,-3.5099,-3.4045,0.0,0.0,0.0,0.0,0.0,0.0,0.0,0.0,0.0,0.0,0.0,0.0,0.0,0.0,0.0,0.0,0.0,0.0,0.0,0.0,0.0,0.0,0.0,0.0,0.0,0.0,0.0,0.0,-2.6657,-2.768,-2.8441,0.0,0.0,0.0,0.0,0.0,0.0,0.0,0.0,0.0,0.0,-3.8793,-3.7535,-3.8527,0.0,0.0,-3.7715,-3.7602,-3.6443,-3.8116,-3.8467,-3.5244,-3.47,0.0,0.0,0.0,0.0,0.0,0.0,0.0,0.0,0.0,0.0,0.0,0.0,0.0,0.0,0.0,0.0,0.0,0.0,0.0,0.0,0.0,0.0,0.0,0.0,0.0,0.0,0.0,0.0,0.0,0.0,0.0,0.0,0.0,0.0,0.0,0.0,0.0,0.0,0.0,0.0,0.0,0.0,0.0,0.0,0.0,0.0,0.0,0.0,0.0,0.0,0.0,0.0,-3.5365,-3.6709,-3.8127,-3.8611,-3.8116,-3.8929,-3.8272,-3.61,-3.5133,-3.4123,0.0,0.0,0.0,0.0,0.0,0.0,0.0,0.0,0.0,0.0,0.0,0.0,0.0,0.0,0.0,0.0,0.0,0.0,0.0,0.0,0.0,0.0,0.0,0.0,0.0,0.0,0.0,0.0,-2.7829,-2.8906,-3.0043,0.0,0.0,0.0,0.0,0.0,0.0,0.0,0.0,0.0,0.0,-3.9706,-3.8739,-3.9256,-3.9481,-3.8951,-3.8486,-3.8065,-3.7742,-3.8367,-3.8241,-3.6168,0.0,0.0,0.0,0.0,0.0,0.0,0.0,0.0,0.0,0.0,0.0,0.0,0.0,0.0,0.0,0.0,0.0,0.0,0.0,0.0,0.0,0.0,0.0,0.0,0.0,0.0,0.0,0.0,0.0,0.0,0.0,0.0,0.0,0.0,0.0,0.0,0.0,0.0,0.0,0.0,0.0,0.0,0.0,0.0,0.0,0.0,0.0,0.0,0.0,0.0,0.0,0.0,0.0,-3.5822,-3.7129,-3.7506,-3.8031,-3.8608,-3.8327,-3.7872,-3.7182,-3.6081,-3.5253,-3.465,0.0,0.0,0.0,0.0,0.0,0.0,0.0,0.0,0.0,0.0,0.0,0.0,0.0,0.0,0.0,0.0,0.0,0.0,0.0,0.0,0.0,0.0,0.0,0.0,0.0,0.0,-2.758,-2.9295,-3.0702,0.0,0.0,0.0,0.0,0.0,0.0,0.0,0.0,0.0,0.0,-3.8508,-4.0005,-3.9069,-3.9033,-3.9387,-4.0132,-3.8114,-3.7211,-3.927,-3.9195,-3.8467,0.0,0.0,0.0,0.0,0.0,0.0,0.0,0.0,0.0,0.0,0.0,0.0,0.0,0.0,0.0,0.0,0.0,0.0,0.0,0.0,0.0,0.0,0.0,0.0,0.0,0.0,0.0,0.0,-2.2588,0.0,0.0,0.0,0.0,0.0,0.0,0.0,0.0,0.0,0.0,0.0,-2.7156,-2.7576,0.0,0.0,0.0,0.0,0.0,0.0,0.0,0.0,0.0,0.0,0.0,0.0,-3.5276,-3.6143,-3.69,-3.7373,-3.7651,-3.8277,-3.8324,-3.7713,-3.701,-3.6031,-3.4751,0.0,0.0,0.0,0.0,0.0,0.0,0.0,0.0,0.0,0.0,0.0,0.0,0.0,0.0,0.0,0.0,0.0,0.0,0.0,0.0,0.0,0.0,0.0,0.0,0.0,-2.8419,0.0,0.0,0.0,0.0,0.0,0.0,0.0,0.0,0.0,0.0,0.0,-3.62,-3.7198,-3.8752,-4.0,-4.0503,-4.0854,-4.1131,0.0,0.0,0.0,0.0,0.0,0.0,0.0,0.0,0.0,0.0,0.0,0.0,0.0,0.0,-3.4223,-3.1838,-3.2086,-3.2631,-3.2631,0.0,0.0,0.0,0.0,0.0,0.0,0.0,0.0,0.0,0.0,0.0,0.0,0.0,0.0,0.0,0.0,-2.3968,0.0,0.0,0.0,0.0,0.0,0.0,0.0,0.0,-2.7525,-2.8467,-2.9301,-2.9428,-2.9982,0.0,-3.0643,-2.9936,0.0,0.0,0.0,0.0,0.0,0.0,0.0,0.0,-3.4635,-3.5479,-3.6303,-3.7075,-3.7637,-3.8262,-3.8466,-3.8266,-3.7588,-3.6508,-3.5052,-3.3947,-3.2867,0.0,0.0,0.0,0.0,0.0,0.0,0.0,0.0,0.0,0.0,0.0,0.0,0.0,0.0,0.0,0.0,0.0,0.0,0.0,0.0,0.0,0.0,0.0,-3.0492,0.0,0.0,0.0,0.0,0.0,0.0,0.0,0.0,0.0,-3.5813,-3.6505,-3.7364,-3.8209,-3.8964,-3.9758,-4.0703,0.0,0.0,0.0,0.0,0.0,0.0,0.0,-4.0045,-3.9565,-4.0095,-4.0827,-4.153,-4.0902,-3.9898,-3.8818,0.0,0.0,-3.4223,-3.4123,-3.45,-3.45,-3.4801,-3.5052,-3.5027,-3.5244,-3.5745,0.0,0.0,0.0,0.0,0.0,0.0,0.0,0.0,-2.5841,-2.607,0.0,-2.6044,0.0,0.0,0.0,0.0,0.0,0.0,0.0,0.0,-2.8396,-2.9628,-3.0658,-3.0733,-3.1286,-3.224,-3.1763,-3.1512,-3.1518,-3.1396,0.0,0.0,0.0,0.0,0.0,0.0,-3.4073,-3.5205,-3.5827,-3.7022,-3.862,-3.8273,-3.8316,-3.8843,-3.7839,-3.6759,-3.5612,-3.5579,-3.4575,-3.2441,-3.2817,0.0,0.0,0.0,0.0,0.0,0.0,0.0,0.0,0.0,0.0,0.0,0.0,0.0,0.0,0.0,0.0,0.0,0.0,0.0,0.0,-3.145,0.0,0.0,0.0,0.0,0.0,0.0,0.0,0.0,0.0,0.0,-3.6378,-3.786,-3.8988,-3.8871,0.0,0.0,0.0,0.0,-3.9501,-4.0911,-3.998,-3.9572,-4.1103,-4.1379,-4.1404,-4.143,0.0,0.0,-4.3865,-4.2585,-4.158,-4.148,-4.1103,-3.9848,-3.7236,-3.7086,-3.7287,-3.7312,-3.7362,-3.7362,-3.7312,-3.7161,-3.693,-2.9071,0.0,0.0,0.0,0.0,-2.7713,-2.7889,-2.7889,-2.7994,-2.8296,-2.8697,-2.7817,0.0,0.0,0.0,0.0,0.0,0.0,-2.9301,-2.9758,-3.0788,-3.1662,-3.239,-3.2767,-3.352,-3.455,-3.4048,-3.3972,-3.4299,-3.3477,-3.251,-3.1342,0.0,0.0,0.0,0.0,-3.4177,-3.4545,-3.5697,-3.6752,-3.7617,-3.8313,-3.8894,-3.9446,-3.8768,-3.804,-3.7312,-3.6935,-3.6056,-3.465,-3.3997,0.0,0.0,0.0,0.0,0.0,0.0,0.0,0.0,0.0,0.0,0.0,0.0,0.0,0.0,0.0,0.0,0.0,0.0,0.0,-3.2916,-3.3524,-3.3761,0.0,0.0,0.0,0.0,0.0,0.0,0.0,0.0,0.0,-3.8333,-3.8073,-3.8448,0.0,0.0,-3.9161,-4.0386,-4.0532,-4.0702,-4.1336,0.0,0.0,0.0,-4.2258,-4.2635,-4.3037,-4.4493,-4.5598,-4.5598,-4.5522,-4.5221,-4.4443,-4.4493,-4.4242,-4.3087,-4.1329,-4.0249,-4.0174,-4.045,-4.0727,-4.0727,-4.0877,-4.1153,-3.1442,-3.0143,-3.0548,-3.0231,-2.9453,-2.9754,-2.9905,-2.993,-3.0131,-3.0432,-3.0708,-2.9804,-2.9402,-2.9352,-2.8419,0.0,0.0,0.0,-3.0666,-3.1423,-3.2223,-3.3219,-3.4374,-3.4726,-3.5454,-3.6483,-3.6182,-3.6081,-3.6182,-3.5303,-3.4463,-3.3518,0.0,0.0,-3.2743,-3.3869,-3.4667,-3.4889,-3.6286,-3.7287,-3.7864,-3.8743,-3.9371,-3.9672,-3.9371,-3.9019,-3.8693,-3.814,-3.7437,-3.6558,-3.5253,-3.4287,0.0,0.0,0.0,0.0,0.0,0.0,0.0,0.0,0.0,0.0,0.0,-3.0535,0.0,0.0,0.0,0.0,-3.2552,-3.3372,-3.5318,-3.4708,0.0,0.0,0.0,0.0,0.0,0.0,0.0,-3.4759,-3.6908,-3.8492,-3.8699,-3.8533,-3.8946,-4.036,-3.9536,-3.9321,-4.0623,0.0,-4.1157,-4.2076,-4.2359,-4.2635,-4.3062,-4.3614,-4.4292,-4.5271,-4.6451,-4.7355,-4.7581,-4.7732,-4.7531,-4.7004,-4.6878,-4.6828,-4.6502,-4.5045,-4.3689,-4.3137,-4.3237,-4.3413,-4.3187,-4.3564,-4.4066,-3.3384,-3.2275,-3.237,-3.2052,-3.1622,-3.1597,-3.1705,-3.1838,-3.2315,-3.2541,-3.2491,-3.1913,-3.1612,-3.1461,-3.0507,0.0,0.0,-3.0633,-3.1436,-3.2441,-3.2993,-3.4374,-3.6358,-3.6408,-3.701,-3.8065,-3.804,-3.7814,-3.7437,-3.686,-3.6558,-3.6603,-3.4793,-3.3452,-3.2946,-3.4388,-3.5426,-3.5982,-3.7358,-3.8341,-3.8919,-3.9471,-3.9722,-3.9697,-3.9647,-3.9647,-3.9672,-3.9145,-3.8592,-3.799,-3.6508,-3.5244,-3.4338,0.0,0.0,0.0,0.0,0.0,0.0,0.0,0.0,0.0,0.0,0.0,0.0,0.0,0.0,0.0,-3.4501,0.0,-3.6831,-3.5328,0.0,0.0,0.0,-3.5617,-3.579,-3.6007,-3.6062,-3.5791,0.0,0.0,0.0,0.0,-4.0053,-4.0949,-4.0069,-3.9767,-4.0844,-4.0862,-4.1204,-4.2871,-4.3062,-4.3489,-4.4418,-4.5146,-4.605,-4.7405,-4.8385,-4.8862,-4.9314,-4.9113,-4.8837,-4.8636,-4.836,-4.8008,-4.7983,-4.7832,-4.7556,-4.5974,-4.5698,-4.5497,-4.507,-4.5321,-4.5723,-3.3595,-3.4181,-3.4238,-3.3993,-3.3551,-3.3527,-3.4206,-3.5203,-3.5328,-3.5378,-3.5328,-3.4349,-3.347,-3.2667,-3.2416,-3.2516,-3.2943,-3.3068,-3.347,-3.4148,-3.47,-3.5479,-3.6383,-3.6784,-3.7588,-3.8592,-3.8216,-3.8592,-3.9622,-3.8743,-3.8266,-3.8266,-3.7837,-3.688,-3.5571,-3.6276,-3.6754,-3.688,-3.804,-3.8944,-3.9496,-4.0023,-4.0124,-3.9697,-3.9295,-3.927,-3.9672,-3.917,-3.8592,-3.804,-3.7236,-3.6282,-3.5294,-3.4275,0.0,0.0,0.0,0.0,0.0,0.0,0.0,0.0,0.0,-3.2922,-3.239,0.0,-3.4375,0.0,-3.5883,-3.6968,-3.7613,-3.6661,0.0,0.0,-3.62,-3.5843,-3.5531,-3.6788,-3.751,-3.6823,-3.7954,-3.8792,-3.9029,-3.9582,-4.0262,-4.1076,-4.077,-4.0897,-4.2036,-4.1998,-4.2208,-4.3363,-4.3966,-4.4468,-4.5171,-4.6125,-4.7004,-4.7782,-4.8385,-4.8962,-4.9515,-4.949,-4.9264,-4.8887,-4.9038,-4.9012,-4.8636,-4.8887,-4.8887,-4.8159,-4.7657,-4.7305,-4.7154,-4.723,-4.7581,-3.3571,-3.3686,-3.3686,-3.3866,-3.4258,-3.4233,-3.4964,-3.6088,-3.6162,-3.6479,-3.7036,-3.6182,-3.5328,-3.4525,-3.4274,-3.4349,-3.4625,-3.4625,-3.4926,-3.5479,-3.6031,-3.6709,-3.7487,-3.804,-3.8768,-3.9597,-3.9521,-3.9973,-4.0802,-4.0275,-3.9973,-3.9973,-3.9973,-3.9496,-3.8592,-3.8391,-3.8417,-3.8668,-3.9521,-4.0124,-4.04,-4.0475,-4.0501,-4.04,-3.9421,-3.9245,-4.0023,-3.9044,-3.8567,-3.8718,-3.7764,-3.691,-3.6282,-3.5228,-3.4399,0.0,0.0,0.0,0.0,0.0,0.0,0.0,0.0,0.0,0.0,0.0,-3.5851,0.0,0.0,0.0,-3.7632,-3.6875,-3.6556,-3.6988,-3.6893,-3.6701,-3.6531,-3.7441,-3.7981,-3.7577,-3.8626,-3.9452,-3.9517,-4.0362,-4.1216,-4.163,-4.1764,-4.2149,-4.2907,-4.2997,-4.3288,-4.4367,-4.4819,-4.5196,-4.5773,-4.6753,-4.7581,-4.7883,-4.8611,-4.9238,-4.954,-4.959,-4.949,-4.9238,-4.9389,-4.9515,-4.9213,-4.9364,-4.9464,-4.9238,-4.9088,-4.8837,-4.841,-4.8485,-4.8937,-3.3497,-3.2402,-3.2363,-3.3095,-3.4205,-3.4129,-3.4854,-3.6208,-3.6208,-3.7006,-3.8291,-3.7739,-3.7186,-3.6634,-3.6107,-3.5855,-3.5855,-3.5855,-3.6107,-3.6609,-3.7136,-3.7965,-3.8994,-3.9546,-4.0099,-4.0626,-4.1103,-4.1379,-4.1455,-4.1455,-4.143,-4.1455,-4.1455,-4.143,-4.1404,-4.0501,-4.0224,-4.0626,-4.1153,-4.1404,-4.1329,-4.0877,-4.0827,-4.1153,-3.9697,-3.9346,-4.0325,-3.8944,-3.8567,-3.9471,-3.8115,-3.7287,-3.7262,-3.6307,-3.5554,0.0,-3.4123,0.0,0.0,0.0,0.0,0.0,0.0,0.0,0.0,-3.6305,-3.6985,-3.7994,-3.8172,-3.802,-3.74,-3.6831,-3.6828,-3.7551,-3.7804,-3.7985,-3.8266,-3.8391,-3.8417,-3.8442,-3.9295,-3.9898,-3.9973,-4.1229,-4.2158,-4.2158,-4.2635,-4.3187,-4.3765,-4.379,-4.4116,-4.5321,-4.5547,-4.5748,-4.6225,-4.7104,-4.7782,-4.7983,-4.8711,-4.949,-4.9565,-4.959,-4.959,-4.959,-4.9565,-4.959,-4.959,-4.959,-4.959,-4.9565,-4.9916,-4.9992,-4.9314,-4.9464,-4.9967,-3.3631,-3.3672,-3.334,-3.3113,-3.3129,-3.3114,-3.5039,-3.8295,-3.8319,-3.897,-4.0023,-3.9471,-3.8919,-3.8366,-3.7789,-3.7538,-3.7538,-3.7538,-3.7588,-3.7739,-3.8291,-3.8894,-3.9546,-4.0099,-4.0651,-4.1178,-4.1304,-4.158,-4.2007,-4.2007,-4.2007,-4.2007,-4.2007,-4.2007,0.0,0.0,0.0,0.0,-4.1731,-4.1806,-4.1354,-4.1254,-4.1003,-4.0676,-3.9496,0.0,-3.9772,-3.9094,-3.8793,-3.8994,-3.8266,0.0,0.0,0.0,0.0,0.0,0.0,0.0,0.0,0.0,0.0,0.0,-3.5111,-3.5159,-3.5465,-3.5953,-3.6737,-3.7652,-3.7764,-3.7716,-3.78,-3.8162,-3.8416,-3.8642,-3.9448,-3.9923,-4.0049,-4.0425,-4.0727,-4.0727,-4.0902,-4.1028,-4.1078,-4.1706,-4.2158,-4.2233,-4.3011,-4.3815,-4.4367,-4.4116,-4.4267,-4.5271,-4.5849,-4.6175,-4.6301,-4.6878,-4.7531,-4.7857,-4.8435,-4.9088,-4.9515,-4.959,-4.959,-4.959,-4.959,-4.959,-4.959,-4.959,-4.9615,-4.9615,-5.0042,-5.0368,-5.0167,-5.0569,-5.1122,-3.418,0.0,-3.4141,-3.3809,0.0,-3.3418,-3.4943,-3.7278,-3.6924,-3.7831,-3.9756,-4.0283,-4.035,-4.0049,-3.9496,-3.9245,-3.9245,-3.9245,-3.9245,-3.927,-3.9823,-4.0224,-4.0526,-4.1078,-4.148,-4.1756,-4.2032,-4.2283,-4.2559,-4.2559,-4.271,-4.2961,-4.2961,-4.2961,-4.2961,-4.2685,-4.2409,-4.2158,-4.2409,-4.2409,-4.2158,-4.1882,-4.1605,-4.1304,0.0,0.0,0.0,0.0,0.0,0.0,0.0,0.0,0.0,0.0,0.0,-3.7588,-3.7337,-3.7186,-3.7161,-3.6935,-3.6784,-3.6759,-3.6759,-3.6692,-3.6731,-3.8033,-3.8836,-3.874,-3.8893,-3.8833,-3.8466,-3.8944,-3.9396,-3.9672,-4.0174,-4.0626,-4.0902,-4.1178,-4.1329,-4.1379,-4.158,-4.1731,-4.1756,-4.2208,-4.2534,-4.261,-4.3263,-4.4016,-4.4518,-4.4644,-4.497,-4.5748,-4.61,-4.6301,-4.6376,-4.7029,-4.7581,-4.7933,-4.8611,-4.9213,-4.954,-4.959,-4.959,-4.959,-4.959,-4.959,-4.959,-4.959,-4.969,-4.9967,-5.0469,-5.0946,-5.1172,-5.1498,-5.185,-3.4824,-3.4824,-3.4824,-3.457,-3.418,-3.418,-3.4672,-3.552,0.0,0.0,0.0,-4.0367,-4.1022,-4.0997,-4.0451,-4.0333,-4.057,-4.0096,-3.9989,-4.0227,-4.0434,-4.0463,-4.0586,-4.1114,-4.1496,-4.1953,-4.2401,-4.2737,-4.2986,-4.3087,-4.3363,-4.3765,-4.389,-4.394,-4.3915,-4.3489,-4.3263,-4.3263,-4.3062,-4.2986,-4.2961,-4.2434,-4.2158,-4.2158,-4.0752,-3.9772,-3.932,-3.8843,-3.8391,-3.7965,-3.8718,-3.8994,-3.8642,-3.8969,-3.8944,-3.8467,-3.8115,-3.8065,-3.8417,-3.8015,-3.7914,-3.8291,-3.8391,-3.8307,-3.8069,-3.9933,-4.0643,-3.9773,-4.0076,-4.0098,-3.9246,-3.9546,-4.0049,-4.0601,-4.0752,-4.1003,-4.143,-4.1605,-4.1681,-4.1681,-4.2057,-4.2283,-4.2308,-4.266,-4.2986,-4.3062,-4.3539,-4.4192,-4.4819,-4.5321,-4.5723,-4.6175,-4.6301,-4.6326,-4.6426,-4.6928,-4.7657,-4.7883,-4.8661,-4.9314,-4.954,-4.959,-4.959,-4.959,-4.959,-4.964,-4.9715,-4.9791,-4.9941,-5.0469,-5.1021,-5.1548,-5.1975,-5.2201,-5.2427,-3.5293,-3.5293,-3.5293,-3.5039,-3.4609,-3.4609,-3.4485,-3.4565,-3.6703,-3.7903,-3.8331,-3.9561,-4.005,-4.0026,-3.9387,-3.9831,-4.0989,-3.8372,-3.7901,0.0,-3.7858,-3.7565,-3.7975,-3.8043,-3.8989,-4.0703,-4.0913,-4.1672,-4.2899,-4.3463,-4.3714,-4.384,-4.4267,-4.4518,-4.4518,-4.4418,-4.4392,-4.4367,-4.3463,-4.2986,-4.2961,-4.2434,-4.2158,-4.2133,-4.148,-4.1078,-4.1003,-4.0902,-4.0827,-4.0752,-4.045,-4.045,-4.0827,-4.0475,-4.0249,-4.0199,-4.0526,-4.0576,-4.0199,-4.0099,-3.9873,-3.9521,-3.9898,-3.9599,-3.8235,-3.8738,-3.9219,-3.907,-3.955,-3.9979,-4.0224,-4.035,-4.0626,-4.1153,-4.163,-4.1957,-4.2057,-4.2434,-4.266,-4.266,-4.2811,-4.2836,-4.2836,-4.2911,-4.2986,-4.3137,-4.389,-4.4869,-4.5723,-4.615,-4.6225,-4.6301,-4.6326,-4.6326,-4.6351,-4.6401,-4.7004,-4.7782,-4.8083,-4.8686,-4.9414,-4.9565,-4.959,-4.959,-4.959,-4.9766,-5.0142,-5.0293,-5.0519,-5.1021,-5.1599,-5.1975,-5.2151,-5.2528,-5.3005,-3.5957,-3.5801,-3.623,-3.5898,-3.5059,-3.4805,-3.459,-3.4524,-3.5677,-3.6685,-3.7436,-3.889,-3.9965,-4.0548,-4.0571,-4.0769,-4.0828,-3.9706,-3.8966,-3.8481,-3.7785,-3.7546,-3.7865,-3.7887,-3.8512,-3.9679,-3.9702,-4.0693,-4.2433,-4.2793,-4.3555,-4.4602,-4.497,-4.5246,-4.5472,-4.492,-4.4769,-4.507,-4.4292,-4.3865,-4.3865,-4.3338,-4.3037,-4.3037,-4.2509,-4.2082,-4.1806,-4.2057,-4.1957,-4.1354,-4.1379,-4.1379,-4.1329,-4.1103,-4.0978,-4.0978,-4.1204,-4.1229,-4.0978,-4.0953,-4.0852,-4.0626,-4.0827,-4.0651,-3.9873,-4.0049,-4.0099,-3.9823,-4.0275,-4.0676,-4.0953,-4.0953,-4.1178,-4.1731,-4.2032,-4.2283,-4.2559,-4.2811,-4.2986,-4.2986,-4.2986,-4.2986,-4.2986,-4.2986,-4.3112,-4.3413,-4.4392,-4.5397,-4.6175,-4.6326,-4.6326,-4.6326,-4.6326,-4.6326,-4.6351,-4.6853,-4.723,-4.7506,-4.8259,-4.8812,-4.9213,-4.9364,-4.9565,-4.959,-4.959,-4.9816,-5.0318,-5.0419,-5.0795,-5.1548,-5.19,-5.2176,-5.2503,-5.3206,-5.3858,-3.6621,-3.6387,-3.7109,-3.6758,-3.5664,-3.5195,-3.4941,-3.4863,-3.4863,-3.5431,-3.6432,-3.8222,-3.9456,-4.0255,-4.0745,-4.0755,-4.0363,-4.0025,-3.916,-3.7979,-3.7571,-3.7449,-3.7471,-3.7449,-3.7789,-3.8363,-3.853,-3.9566,-4.1294,-4.177,-4.3094,-4.5204,-4.5785,-4.625,-4.6652,-4.5799,-4.5573,-4.5974,-4.5598,-4.5121,-4.4618,-4.4217,-4.3991,-4.3966,-4.3589,-4.3162,-4.276,-4.3137,-4.2961,-4.2183,-4.2484,-4.2534,-4.2108,-4.2082,-4.2032,-4.1907,-4.1907,-4.1781,-4.1555,-4.153,-4.148,-4.1354,-4.1455,-4.148,-4.1379,-4.158,-4.143,-4.0877,-4.1053,-4.1354,-4.1505,-4.153,-4.1731,-4.2258,-4.2333,-4.2509,-4.2886,-4.3087,-4.3162,-4.3162,-4.3162,-4.3212,-4.3288,-4.3237,-4.3463,-4.4192,-4.497,-4.5673,-4.6175,-4.6326,-4.6326,-4.6326,-4.6326,-4.6326,-4.6376,-4.7054,-4.7506,-4.7305,-4.8435,-4.9038,-4.9113,-4.9364,-4.9565,-4.959,-4.959,-4.9916,-5.0419,-5.0645,-5.1096,-5.2,-5.2352,-5.2452,-5.2829,-5.3122,-5.411,-3.7207,-3.7246,-3.7676,-3.7363,-3.6523,-3.6074,-3.5684,-3.5371,-3.5332,-3.5312,-3.5766,-3.6758,-3.7467,-3.753,-3.772,-3.8412,-3.9254,-3.6597,-3.6105,-3.6938,-3.5699,-3.5072,-3.5162,-3.5052,-3.5848,-3.717,-3.7297,-3.8247,-3.9904,-4.0896,-4.2522,-4.5095,-4.6909,-4.7657,-4.7707,-4.7606,-4.7606,-4.7682,-4.7631,-4.6627,-4.4744,-4.4568,-4.4543,-4.4543,-4.4518,-4.4468,-4.4418,-4.4443,-4.4443,-4.4342,-4.4342,-4.4367,-4.4317,-4.4292,-4.4066,-4.3589,-4.3564,-4.3162,-4.2208,-4.2082,-4.1932,-4.143,-4.1882,-4.1957,-4.1555,-4.2283,-4.2359,-4.1605,-4.1354,-4.1605,-4.2007,-4.2082,-4.2283,-4.2735,-4.2861,-4.2936,-4.3037,-4.3438,-4.3714,-4.3714,-4.374,-4.3915,-4.4217,-4.4041,-4.4192,-4.502,-4.5372,-4.5748,-4.62,-4.6326,-4.6326,-4.6326,-4.6326,-4.6326,-4.6376,-4.6803,-4.7355,-4.7757,-4.8385,-4.8962,-4.9289,-4.9439,-4.959,-4.959,-4.959,-4.9967,-5.077,-5.1222,-5.1548,-5.2402,-5.2754,-5.2854,-5.2754,-5.2441,-5.2792,-3.7519,-3.7363,-3.8027,-3.7969,-3.7363,-3.6699,-3.6309,-3.6133,-3.5879,-3.5918,-3.625,-3.6729,-3.7126,-3.7545,-3.7775,-3.7995,-3.7995,-3.6991,-3.6192,-3.5731,-3.4949,-3.4687,-3.4687,-3.4687,-3.5337,-3.6343,-3.6515,-3.7534,-3.9864,-4.2221,-4.408,-4.5253,-4.7006,-4.7908,-4.7908,-4.7908,-4.7908,-4.7908,-4.7908,-4.7456,-4.6627,-4.5949,-4.5924,-4.6426,-4.5949,-4.5949,-4.6476,-4.6577,-4.6552,-4.6527,-4.5974,-4.5623,-4.5623,-4.4995,-4.4518,-4.4292,-4.4292,-4.4091,-4.3639,-4.3614,-4.3514,-4.3288,-4.3489,-4.3514,-4.3313,-4.3413,-4.3237,-4.2861,-4.2484,-4.2409,-4.261,-4.266,-4.2735,-4.2936,-4.2986,-4.3112,-4.3438,-4.3664,-4.389,-4.4217,-4.4292,-4.4342,-4.4593,-4.4744,-4.497,-4.5472,-4.5723,-4.6075,-4.6301,-4.6326,-4.6326,-4.6326,-4.6326,-4.6326,-4.6376,-4.7054,-4.7481,-4.7682,-4.8485,-4.9314,-4.9138,-4.9439,-4.959,-4.959,-4.964,-5.0067,-5.1071,-5.1322,-5.1599,-5.2503,-5.2842,-5.2804,-5.2083,-5.1657,-5.2257,-3.7832,-3.7754,-3.834,-3.832,-3.7871,-3.7285,-3.6953,-3.6816,-3.6504,-3.6562,-3.6816,-3.6836,-3.7152,-3.7668,-3.7945,-3.7637,-3.7123,-3.7369,-3.6769,-3.5544,-3.541,-3.543,-3.541,-3.541,-3.5742,-3.6289,-3.6367,-3.741,-3.9558,-4.2438,-4.3969,-4.4348,-4.5964,-4.689,-4.689,-4.7297,-4.7552,-4.7703,-4.8233,-4.8611,-4.846,-4.7682,-4.7431,-4.7807,-4.7154,-4.7129,-4.7857,-4.7908,-4.7908,-4.7883,-4.7154,-4.6753,-4.6702,-4.5824,-4.5196,-4.4869,-4.4719,-4.4618,-4.4618,-4.4769,-4.4794,-4.4669,-4.4744,-4.4794,-4.4593,-4.4267,-4.4041,-4.3966,-4.3514,-4.3137,-4.2986,-4.2986,-4.3037,-4.3162,-4.3212,-4.3438,-4.394,-4.4141,-4.4443,-4.4794,-4.4869,-4.4844,-4.4945,-4.5321,-4.5723,-4.5773,-4.62,-4.6527,-4.6552,-4.6552,-4.6552,-4.6527,-4.6426,-4.6326,-4.6376,-4.7179,-4.7581,-4.7832,-4.8611,-4.9389,-4.9063,-4.9414,-4.959,-4.9615,-4.969,-5.0117,-5.1046,-5.1373,-5.1749,-5.2553,-5.2817,-5.2486,-5.1513,-5.1024,-5.0951,-3.8144,-3.8496,-3.8555,-3.834,-3.793,-3.7851,-3.7637,-3.7266,-3.7207,-3.7226,-3.7266,-3.7266,-3.7246,-3.7409,-3.7094,-3.6759,-3.67,-3.6819,-3.7015,-3.6992,-3.707,-3.7148,-3.7187,-3.7187,-3.7187,-3.7246,-3.7305,-3.7642,-3.8319,-4.0096,-4.1122,-4.1622,-4.357,-4.4437,-4.4641,-4.617,-4.686,-4.7125,-4.9084,-5.0243,-5.0193,-4.969,-4.8937,-4.8184,-4.7857,-4.7857,-4.7983,-4.7958,-4.7958,-4.7958,-4.7908,-4.7832,-4.7782,-4.728,-4.6502,-4.5598,-4.4995,-4.4694,-4.4819,-4.5271,-4.5321,-4.4869,-4.5246,-4.5246,-4.4844,-4.4669,-4.4593,-4.4568,-4.4091,-4.3589,-4.3162,-4.3037,-4.3212,-4.3639,-4.3714,-4.3966,-4.4518,-4.497,-4.5372,-4.5447,-4.5447,-4.5497,-4.5497,-4.5924,-4.6175,-4.6301,-4.6702,-4.7029,-4.6928,-4.7004,-4.7029,-4.6878,-4.6627,-4.6326,-4.6401,-4.7079,-4.7707,-4.7933,-4.846,-4.9515,-4.9565,-4.959,-4.959,-4.969,-4.9916,-5.0368,-5.1096,-5.1699,-5.2201,-5.2703,-5.2879,-5.2371,-5.0548,-4.9331,-4.908,-3.8437,-3.8574,-3.8574,-3.8476,-3.832,-3.8047,-3.7851,-3.7676,-3.7402,-3.7461,-3.7676,-3.7695,-3.7695,-3.7695,-3.7539,-3.7324,-3.709,-3.707,-3.7168,-3.7305,-3.7305,-3.7305,-3.7324,-3.7559,-3.7871,-3.8125,-3.8398,-3.8594,-3.8818,-4.0269,-4.1158,-4.163,-4.3456,-4.443,-4.4548,-4.6514,-4.7654,-4.7686,-4.9692,-5.0971,-5.0971,-5.077,-5.0469,-5.0042,-4.9012,-4.8786,-4.949,-4.9515,-4.9515,-4.9515,-4.9188,-4.8837,-4.846,-4.7933,-4.7481,-4.7079,-4.6828,-4.6728,-4.6753,-4.6928,-4.6803,-4.6326,-4.6401,-4.6276,-4.5773,-4.5397,-4.5171,-4.507,-4.4644,-4.4217,-4.3966,-4.3413,-4.3212,-4.3689,-4.3815,-4.4192,-4.4945,-4.5372,-4.5623,-4.5924,-4.6024,-4.6125,-4.6326,-4.6426,-4.6326,-4.6376,-4.6778,-4.6954,-4.6778,-4.6878,-4.7104,-4.6702,-4.6451,-4.6426,-4.6828,-4.7079,-4.7481,-4.7732,-4.8209,-4.8837,-4.9113,-4.949,-4.9565,-4.964,-4.9941,-5.0544,-5.1247,-5.2101,-5.2603,-5.2754,-5.2929,-5.181,-4.9591,-4.8801,-4.8102,-3.8574,-3.8574,-3.8574,-3.8574,-3.8535,-3.8262,-3.8125,-3.8125,-3.7969,-3.8008,-3.8144,-3.8262,-3.834,-3.8301,-3.8203,-3.8184,-3.8066,-3.7715,-3.7578,-3.7715,-3.7851,-3.791,-3.7988,-3.8359,-3.8711,-3.9004,-3.9277,-3.9434,-3.9524,-4.0242,-4.0679,-4.0987,-4.2264,-4.2792,-4.3175,-4.5821,-4.7213,-4.7601,-4.9965,-5.1548,-5.1574,-5.1724,-5.1724,-5.1423,-5.0419,-5.0067,-5.0695,-5.0695,-5.0695,-5.0619,-5.0167,-4.954,-4.8837,-4.8385,-4.8109,-4.7933,-4.7883,-4.7908,-4.7933,-4.8083,-4.7933,-4.7431,-4.738,-4.7154,-4.6627,-4.6075,-4.5799,-4.5648,-4.5246,-4.4895,-4.4719,-4.4066,-4.374,-4.4217,-4.4342,-4.4719,-4.5598,-4.5748,-4.5924,-4.62,-4.6276,-4.6476,-4.6728,-4.6502,-4.6451,-4.6527,-4.7054,-4.7205,-4.7205,-4.738,-4.7556,-4.7179,-4.7029,-4.7079,-4.7305,-4.7506,-4.7832,-4.8083,-4.8385,-4.8786,-4.8987,-4.9364,-4.959,-4.964,-5.0042,-5.072,-5.1473,-5.2352,-5.2729,-5.2879,-5.2704,-5.1926,-5.0162,-4.844,-4.7595,-3.8574,-3.8574,-3.8574,-3.8574,-3.8574,-3.8535,-3.8555,-3.8574,-3.8926,-3.8848,-3.8633,-3.8984,-3.9141,-3.9101,-3.8809,-3.9043,-3.9375,-3.8555,-3.8262,-3.8594,-3.8945,-3.9101,-3.9121,-3.9551,-3.9805,-3.9883,-3.9902,-3.9902,-3.9863,-3.9582,-3.9692,-3.9837,-3.988,-4.0216,-4.0144,-4.3773,-4.5662,-4.6744,-4.989,-5.204,-5.2201,-5.2678,-5.2729,-5.2277,-5.2101,-5.185,-5.1398,-5.1322,-5.1297,-5.1222,-5.077,-4.9916,-4.9088,-4.8862,-4.8586,-4.8234,-4.8033,-4.8008,-4.8134,-4.8586,-4.8611,-4.8109,-4.7933,-4.7707,-4.7154,-4.6677,-4.6376,-4.625,-4.5949,-4.5573,-4.5497,-4.5121,-4.492,-4.5347,-4.5347,-4.5648,-4.6075,-4.6301,-4.6351,-4.6476,-4.6552,-4.6376,-4.6376,-4.6527,-4.6702,-4.7104,-4.7581,-4.7983,-4.8209,-4.836,-4.8636,-4.8485,-4.7983,-4.7631,-4.7782,-4.7958,-4.8309,-4.8636,-4.8962,-4.9264,-4.9213,-4.9439,-4.9565,-4.9665,-5.0218,-5.087,-5.1548,-5.2352,-5.2678,-5.2717,-5.2427,-5.1834,-4.9816,-4.799,-4.6592,-3.8574,-3.8574,-3.8574,-3.8574,-3.8574,-3.8574,-3.8574,-3.8633,-3.9023,-3.9121,-3.9101,-3.9492,-3.9687,-3.9668,-3.9531,-3.9629,-3.9844,-3.9434,-3.9355,-3.9492,-3.9629,-3.9668,-3.9766,-4.0137,-4.0488,-4.0684,-4.0469,-4.0332,-4.0254,-3.9902,-3.9785,-3.9883,-4.0059,-4.0019,-4.0151,-4.2894,-4.5118,-4.6915,-4.97,-5.1908,-5.3618,-5.3959,-5.3934,-5.3833,-5.3808,-5.3532,-5.2955,-5.2251,-5.1875,-5.185,-5.1674,-5.1071,-5.0142,-4.9891,-4.9816,-4.9665,-4.964,-4.9841,-5.0142,-4.9967,-4.964,-4.9138,-4.8711,-4.8259,-4.7757,-4.7481,-4.723,-4.7004,-4.7004,-4.7054,-4.6728,-4.6828,-4.6451,-4.5598,-4.5824,-4.615,-4.6401,-4.6652,-4.7205,-4.7807,-4.7657,-4.7606,-4.7782,-4.7682,-4.7405,-4.7657,-4.8134,-4.8485,-4.8309,-4.8636,-4.8535,-4.8259,-4.8033,-4.8184,-4.8385,-4.8586,-4.8862,-4.8987,-4.9188,-4.9389,-4.9364,-4.9439,-4.954,-4.9941,-5.0469,-5.1071,-5.1774,-5.2251,-5.2628,-5.2829,-5.2679,-5.1295,-4.901,-4.7663,-4.6592,-3.8574,-3.8594,-3.875,-3.8809,-3.8828,-3.8984,-3.9062,-3.9121,-3.9512,-3.9609,-3.959,-3.9922,-4.0137,-4.0098,-3.998,-4.0098,-4.0332,-4.0215,-4.0215,-4.0312,-4.0176,-4.0137,-4.0215,-4.0742,-4.1211,-4.1543,-4.1367,-4.1152,-4.0976,-4.0586,-4.0449,-4.0625,-4.0566,-4.0684,-4.0935,-4.3075,-4.5126,-4.6695,-4.8771,-5.1028,-5.2695,-5.2793,-5.3252,-5.4327,-5.3998,-5.3824,-5.3869,-5.3356,-5.2829,-5.2477,-5.2226,-5.1649,-5.0845,-5.072,-5.072,-5.0745,-5.077,-5.0896,-5.1197,-5.087,-5.0494,-4.9941,-4.9389,-4.8837,-4.8335,-4.8083,-4.7732,-4.7556,-4.7657,-4.7782,-4.7531,-4.7657,-4.738,-4.6552,-4.6702,-4.6878,-4.6954,-4.7205,-4.7606,-4.8109,-4.8058,-4.8159,-4.8234,-4.8209,-4.8008,-4.8209,-4.8535,-4.8862,-4.8611,-4.8887,-4.8736,-4.8736,-4.8962,-4.9088,-4.9063,-4.9238,-4.9414,-4.9389,-4.9339,-4.9364,-4.9364,-4.949,-4.964,-5.0318,-5.0896,-5.1473,-5.2151,-5.2402,-5.2703,-5.2804,-5.2817,-5.1746,-5.0103,-4.8742,-4.7465,-3.8613,-3.8672,-3.9062,-3.9238,-3.9297,-3.9648,-3.9785,-3.9922,-4.0273,-4.0234,-4.0078,-4.0371,-4.0566,-4.0469,-4.0254,-4.0449,-4.0976,-4.0742,-4.0781,-4.0976,-4.084,-4.0684,-4.0859,-4.1465,-4.1933,-4.2246,-4.2285,-4.2129,-4.1758,-4.1406,-4.1426,-4.1641,-4.1133,-4.1211,-4.225,-4.378,-4.4732,-4.5863,-4.7313,-4.9328,-5.1255,-5.026,-5.0781,-5.3879,-5.3181,-5.3034,-5.3923,-5.4244,-5.3959,-5.313,-5.2603,-5.2076,-5.1523,-5.1373,-5.1423,-5.1373,-5.1348,-5.1423,-5.1423,-5.1398,-5.1122,-5.0619,-5.0092,-4.949,-4.9113,-4.8686,-4.8309,-4.8134,-4.8134,-4.8109,-4.8083,-4.8134,-4.8083,-4.8058,-4.7832,-4.7782,-4.7958,-4.8008,-4.8109,-4.8134,-4.8033,-4.8058,-4.8234,-4.8184,-4.8385,-4.8661,-4.8887,-4.9088,-4.9439,-4.959,-4.964,-4.9791,-4.9967,-4.9841,-4.9766,-4.9741,-4.9866,-4.9515,-4.9464,-4.9464,-4.949,-4.964,-4.9841,-5.0544,-5.1197,-5.1825,-5.2251,-5.2427,-5.2678,-5.2854,-5.2715,-5.2361,-5.1297,-4.9617,-4.8146,-3.9043,-3.9082,-3.9531,-3.9707,-3.9726,-3.9863,-3.9902,-3.9961,-4.0351,-4.0488,-4.0469,-4.0801,-4.0976,-4.0976,-4.0879,-4.0976,-4.1113,-4.1074,-4.123,-4.1562,-4.1543,-4.166,-4.1894,-4.2129,-4.2324,-4.2461,-4.25,-4.2363,-4.2266,-4.2129,-4.2148,-4.2246,-4.2012,-4.2031,-4.2523,-4.2942,-4.4173,-4.5765,-4.6435,-4.799,-4.9846,-4.9827,-5.0204,-5.1056,-5.2189,-5.2774,-5.3034,-5.4022,-5.4486,-5.416,-5.3582,-5.3055,-5.2553,-5.2477,-5.2352,-5.2101,-5.2302,-5.2503,-5.2402,-5.2126,-5.1825,-5.1649,-5.1071,-5.077,-5.0619,-5.0092,-4.959,-4.9289,-4.9163,-4.9138,-4.9138,-4.9138,-4.9314,-4.9515,-4.8812,-4.8385,-4.8912,-4.8786,-4.8686,-4.9063,-4.9138,-4.9138,-4.9088,-4.9113,-4.9163,-4.9289,-4.9364,-4.9515,-4.9916,-5.0117,-5.0117,-5.0645,-5.0845,-5.0619,-5.0444,-5.0368,-5.0167,-4.969,-4.959,-4.9615,-4.9715,-4.9916,-5.0142,-5.0569,-5.1197,-5.1825,-5.2051,-5.2226,-5.2528,-5.2904,-5.3003,-5.2957,-5.1584,-5.0089,-4.8587,-3.9492,-3.9531,-3.998,-4.0156,-4.0195,-4.0351,-4.043,-4.0469,-4.0684,-4.0801,-4.0859,-4.1055,-4.1172,-4.1172,-4.1172,-4.1289,-4.1426,-4.1426,-4.168,-4.2051,-4.2246,-4.2461,-4.2656,-4.2695,-4.2793,-4.2969,-4.2949,-4.2871,-4.2734,-4.2695,-4.2695,-4.2656,-4.2519,-4.2598,-4.2988,-4.2773,-4.3376,-4.4805,-4.5188,-4.6295,-4.8417,-4.7804,-4.8575,-4.9361,-5.0607,-5.091,-5.2475,-5.4351,-5.5089,-5.4637,-5.4235,-5.3934,-5.3658,-5.3607,-5.3457,-5.3155,-5.3457,-5.3532,-5.3256,-5.2929,-5.2578,-5.2176,-5.1774,-5.1523,-5.1272,-5.0946,-5.0544,-5.0017,-5.0142,-5.0167,-5.0017,-5.0142,-5.0419,-5.0569,-4.9891,-4.9615,-5.0268,-5.0067,-4.9992,-5.0218,-5.0293,-5.0193,-4.9992,-4.9941,-4.9816,-4.964,-4.954,-4.9866,-5.0243,-5.0393,-5.067,-5.1197,-5.1498,-5.1297,-5.0989,-5.0755,-5.0423,-5.0056,-5.0117,-5.0067,-4.9992,-5.0218,-5.0519,-5.0845,-5.1322,-5.1749,-5.2101,-5.2402,-5.2628,-5.303,-5.3432,-5.3462,-5.2357,-5.0815,-4.9317,-3.9961,-4.0,-4.041,-4.0586,-4.0664,-4.1035,-4.1152,-4.1152,-4.1211,-4.123,-4.123,-4.1191,-4.123,-4.123,-4.123,-4.1387,-4.1777,-4.1738,-4.209,-4.248,-4.2851,-4.3125,-4.3125,-4.3144,-4.3301,-4.3535,-4.3672,-4.3457,-4.3203,-4.3144,-4.3144,-4.3086,-4.2793,-4.2988,-4.3379,-4.3301,-4.3359,-4.3739,-4.3942,-4.4742,-4.59,-4.5291,-4.59,-4.7942,-4.8575,-4.9986,-5.2575,-5.482,-5.5742,-5.4787,-5.4687,-5.4637,-5.4612,-5.4637,-5.4536,-5.4461,-5.4411,-5.4336,-5.3909,-5.3733,-5.3356,-5.2603,-5.2427,-5.2051,-5.1749,-5.1548,-5.1297,-5.0745,-5.1021,-5.0896,-5.0588,-5.0888,-5.1055,-5.113,-5.1189,-5.123,-5.1498,-5.1398,-5.1272,-5.1272,-5.1272,-5.0996,-5.072,-5.0469,-5.0368,-5.0268,-5.0193,-5.0469,-5.0795,-5.0996,-5.1272,-5.1649,-5.185,-5.1815,-5.153,-5.1135,-5.0751,-5.0429,-5.0788,-5.077,-5.0419,-5.0569,-5.0921,-5.1322,-5.1825,-5.2277,-5.2628,-5.2854,-5.298,-5.3306,-5.3808,-5.421,-5.416,-5.2048,-5.029,-4.0391,-4.043,-4.0859,-4.1035,-4.1113,-4.1465,-4.1484,-4.1191,-4.1523,-4.1621,-4.1582,-4.1328,-4.1387,-4.1641,-4.1406,-4.1406,-4.1855,-4.1933,-4.2187,-4.2949,-4.3379,-4.3555,-4.3555,-4.3535,-4.3594,-4.3691,-4.3691,-4.3633,-4.3555,-4.3516,-4.3555,-4.3516,-4.3418,-4.3496,-4.3613,-4.3594,-4.3594,-4.3691,-4.3691,-4.3856,-4.433,-4.4186,-4.4166,-4.5596,-4.7645,-5.0452,-5.2774,-5.5115,-5.6093,-5.5817,-5.5465,-5.5214,-5.5214,-5.5214,-5.5064,-5.4863,-5.5013,-5.4963,-5.4511,-5.4336,-5.411,-5.3482,-5.3557,-5.3632,-5.2678,-5.2553,-5.2277,-5.18,-5.1473,-5.1322,-5.1139,-5.0563,-5.0921,-5.1308,-5.115,-5.1449,-5.254,-5.2076,-5.1523,-5.1398,-5.1373,-5.1247,-5.1122,-5.1096,-5.0996,-5.0921,-5.0971,-5.1172,-5.1373,-5.1548,-5.185,-5.2126,-5.2302,-5.2079,-5.062,-5.0409,-5.0035,-5.0166,-5.0752,-5.1699,-5.1348,-5.1147,-5.1574,-5.1975,-5.2377,-5.2616,-5.259,-5.3281,-5.3432,-5.3833,-5.4069,-5.4662,-5.4489,-5.2702,-5.1125,-4.084,-4.084,-4.1074,-4.1172,-4.123,-4.1601,-4.1562,-4.1308,-4.1621,-4.1797,-4.1758,-4.1543,-4.1699,-4.207,-4.1894,-4.1992,-4.2383,-4.2617,-4.293,-4.3359,-4.3613,-4.3691,-4.3691,-4.3691,-4.3691,-4.3691,-4.3691,-4.3691,-4.3691,-4.3691,-4.3672,-4.3691,-4.3691,-4.3652,-4.3691,-4.3691,-4.3691,-4.3691,-4.3691,-4.3691,-4.3691,-4.3691,-4.3691,-4.4186,-4.6867,-4.954,-5.1555,-5.3576,-5.514,-5.5826,-5.5942,-5.5767,-5.5767,-5.5767,-5.5591,-5.5491,-5.5566,-5.5491,-5.5114,-5.4913,-5.4712,-5.416,-5.4411,-5.4185,-5.3733,-5.3482,-5.303,-5.2603,-5.2251,-5.2076,-5.194,-5.0676,-5.0688,-5.0813,-5.0102,-5.0383,-5.2038,-5.2476,-5.2402,-5.2352,-5.2277,-5.1975,-5.18,-5.1699,-5.1448,-5.1272,-5.1172,-5.1348,-5.1699,-5.1925,-5.2251,-5.2528,-5.2729,-5.204,-5.0098,-4.9322,-4.9132,-4.9652,-5.0471,-5.159,-5.2416,-5.2266,-5.2352,-5.2528,-5.2466,-5.1985,-5.2115,-5.2833,-5.3271,-5.3025,-5.3418,-5.4658,-5.4886,-5.3639,-5.1804,-4.1172,-4.1172,-4.1172,-4.1172,-4.125,-4.168,-4.168,-4.1387,-4.1719,-4.2012,-4.1953,-4.1894,-4.2012,-4.2422,-4.2402,-4.2656,-4.3047,-4.3418,-4.3594,-4.3633,-4.3672,-4.3691,-4.3691,-4.3691,-4.3691,-4.3691,-4.3691,-4.3691,-4.3691,-4.3691,-4.3691,-4.3691,-4.3691,-4.3691,-4.3691,-4.3691,-4.3691,-4.3691,-4.3691,-4.3691,-4.3691,-4.3691,-4.3691,-4.4186,-4.592,-4.7826,-4.983,-5.1861,-5.4025,-5.5582,-5.6072,-5.6219,-5.6219,-5.6219,-5.6219,-5.6168,-5.6118,-5.5917,-5.5616,-5.5491,-5.529,-5.4737,-5.4838,-5.4712,-5.4486,-5.4185,-5.3833,-5.3457,-5.3181,-5.3105,-5.2917,-5.0888,-5.0149,-5.0049,-4.8873,-4.8793,-5.0654,-5.2403,-5.3155,-5.3457,-5.2929,-5.2477,-5.2327,-5.2201,-5.1925,-5.1674,-5.1599,-5.1624,-5.1975,-5.2277,-5.2603,-5.2729,-5.2879,-5.1163,-4.925,-4.758,-4.7355,-4.8346,-4.9506,-5.1317,-5.2692,-5.3178,-5.3042,-5.2329,-5.2128,-5.1803,-5.1462,-5.1752,-5.1922,-5.1847,-5.2937,-5.4353,-5.4574,-5.4229,-5.2505,-4.1172,-4.1172,-4.1172,-4.1172,-4.1289,-4.1992,-4.2051,-4.1816,-4.2109,-4.2539,-4.2715,-4.2148,-4.2305,-4.2734,-4.2578,-4.2695,-4.3164,-4.3516,-4.3691,-4.3691,-4.3691,-4.3691,-4.3691,-4.3691,-4.3691,-4.3691,-4.3691,-4.3691,-4.3691,-4.3691,-4.3691,-4.3691,-4.3691,-4.3691,-4.3691,-4.3691,-4.3691,-4.3691,-4.3691,-4.3691,-4.3691,-4.3691,-4.3691,-4.3856,-4.5596,-4.6867,-4.8122,-5.0916,-5.3251,-5.3726,-5.5287,-5.5901,-5.5901,-5.5901,-5.6219,-5.6219,-5.6219,-5.6118,-5.5993,-5.6018,-5.5767,-5.5516,-5.5566,-5.534,-5.4963,-5.4838,-5.4612,-5.4336,-5.4135,-5.4059,-5.3468,-5.0865,-4.9646,-4.9444,-4.8267,-4.7242,-4.9175,-5.1044,-5.2671,-5.3304,-5.3014,-5.3005,-5.3005,-5.2929,-5.2754,-5.2578,-5.2477,-5.2377,-5.2477,-5.2678,-5.2854,-5.2904,-5.2904,-5.0576,-4.8049,-4.6221,-4.5446,-4.6786,-4.8223,-5.0519,-5.1995,-5.3576,-5.3753,-5.2495,-5.1779,-5.1435,-5.1058,-5.0859,-5.1137,-5.146,-5.2655,-5.4005,-5.4054,-5.3905,-5.283,-4.1172,-4.1172,-4.1172,-4.1172,-4.1289,-4.1836,-4.1992,-4.1894,-4.2246,-4.2676,-4.2851,-4.2676,-4.2793,-4.3223,-4.3223,-4.3223,-4.3418,-4.3574,-4.3691,-4.3691,-4.3691,-4.3691,-4.3691,-4.3691,-4.3691,-4.3691,-4.3691,-4.3691,-4.3691,-4.3691,-4.3691,-4.3691,-4.3691,-4.3691,-4.3691,-4.3691,-4.3691,-4.3691,-4.3691,-4.3691,-4.3691,-4.3691,-4.3711,-4.4021,-4.4658,-4.5596,-4.7006,-4.828,-5.0452,-5.1532,-5.3401,-5.3726,-5.3876,-5.4967,-5.6219,-5.6047,-5.6219,-5.6219,-5.6219,-5.6219,-5.6043,-5.5892,-5.6093,-5.5993,-5.5541,-5.539,-5.5189,-5.4762,-5.4561,-5.4461,-5.4019,-5.0825,-4.9387,-4.8922,-4.684,-4.6079,-4.7626,-4.9535,-5.1115,-5.2599,-5.3477,-5.3653,-5.3858,-5.3758,-5.3607,-5.3482,-5.3356,-5.3231,-5.308,-5.3181,-5.3306,-5.2625,-5.2206,-4.9958,-4.7351,-4.5443,-4.4411,-4.5469,-4.6831,-4.9141,-5.1029,-5.2403,-5.2574,-5.2065,-5.1489,-5.067,-5.0266,-4.973,-5.0398,-5.0825,-5.1254,-5.1791,-5.3227,-5.3401,-5.2166,-4.1172,-4.1172,-4.1172,-4.1172,-4.125,-4.1719,-4.1953,-4.2012,-4.2402,-4.2812,-4.3164,-4.3125,-4.3262,-4.3613,-4.3672,-4.3672,-4.3691,-4.3691,-4.3691,-4.3691,-4.3691,-4.3691,-4.3691,-4.3691,-4.3691,-4.3691,-4.3691,-4.3691,-4.3691,-4.3691,-4.3691,-4.3691,-4.3691,-4.3691,-4.3691,-4.3691,-4.3691,-4.3691,-4.3691,-4.3691,-4.3691,-4.3711,-4.3769,-4.3808,-4.3769,-4.4574,-4.6106,-4.6972,-4.8178,-4.9762,-5.1099,-5.1754,-5.103,-5.3148,-5.5115,-5.5582,-5.5901,-5.6219,-5.6219,-5.6219,-5.6194,-5.6118,-5.6194,-5.6194,-5.6118,-5.5767,-5.544,-5.4988,-5.4938,-5.4913,-5.4334,-5.1668,-4.9693,-4.8476,-4.6353,-4.4543,-4.5975,-4.7526,-4.9052,-5.0874,-5.2913,-5.3998,-5.4177,-5.4285,-5.4084,-5.4034,-5.3909,-5.3833,-5.3708,-5.3783,-5.3553,-5.246,-5.1273,-4.9236,-4.7027,-4.4889,-4.4075,-4.4576,-4.5964,-4.7835,-4.9508,-5.1001,-5.117,-5.1474,-5.0031,-4.9215,-4.8895,-4.8521,-4.8653,-4.8674,-4.8938,-4.983,-5.1555,-5.1708,-5.0607,-4.1172,-4.1172,-4.1172,-4.1172,-4.1289,-4.1973,-4.2324,-4.2363,-4.2734,-4.3242,-4.3496,-4.3281,-4.334,-4.3613,-4.3691,-4.3691,-4.3691,-4.3691,-4.3691,-4.3691,-4.3691,-4.3691,-4.3691,-4.3691,-4.3691,-4.3691,-4.3691,-4.3691,-4.3691,-4.3691,-4.3691,-4.3691,-4.3691,-4.3691,-4.3691,-4.3691,-4.3691,-4.3691,-4.3691,-4.3691,-4.3691,-4.3691,-4.3906,-4.4043,-4.3965,-4.4131,-4.5171,-4.6004,-4.7223,-4.8117,-4.9601,-5.0412,-5.0457,-5.0523,-5.1907,-5.3401,-5.4967,-5.6219,-5.6219,-5.6219,-5.6219,-5.6219,-5.6219,-5.6219,-5.6168,-5.6143,-5.5968,-5.6068,-5.5968,-5.5717,-5.5151,-5.3542,-5.1548,-4.9538,-4.744,-4.5412,-4.5413,-4.6622,-4.8042,-4.9118,-5.1152,-5.3058,-5.4097,-5.4377,-5.4511,-5.4486,-5.4461,-5.4386,-5.4285,-5.4285,-5.4436,-5.3552,-5.1221,-4.8974,-4.7357,-4.503,-4.402,-4.4099,-4.4986,-4.6531,-4.8048,-4.956,-5.0796,-5.0704,-4.9185,-4.794,-4.7604,-4.7154,-4.6627,-4.6774,-4.7284,-4.8417,-4.9853,-4.954,-4.8575,-4.0937,-4.1172,-4.1172,-4.1172,-4.1211,-4.1582,-4.1855,-4.2129,-4.2519,-4.2949,-4.332,-4.3457,-4.3555,-4.3672,-4.3691,-4.3691,-4.3691,-4.3691,-4.3691,-4.3691,-4.3691,-4.3691,-4.3691,-4.3691,-4.3691,-4.3691,-4.3691,-4.3691,-4.3691,-4.3691,-4.3691,-4.3691,-4.3691,-4.3691,-4.375,-4.3711,-4.3691,-4.3691,-4.3691,-4.3691,-4.3691,-4.3711,-4.3808,-4.4004,-4.3828,-4.4023,-4.4513,-4.4945,-4.5508,-4.6369,-4.7533,-4.7996,-4.8039,-4.8721,-5.0164,-4.9383,-5.1555,-5.3576,-5.5729,-5.6047,-5.6047,-5.6219,-5.6219,-5.6219,-5.6219,-5.6219,-5.6219,-5.6194,-5.6194,-5.6068,-5.5601,-5.4202,-5.2934,-5.1041,-4.8759,-4.7082,-4.5758,-4.6244,-4.7305,-4.8259,-4.9339,-5.1396,-5.3252,-5.4156,-5.4588,-5.5039,-5.4963,-5.472,-5.4662,-5.4461,-5.4712,-5.4845,-5.2059,-4.8911,-4.7549,-4.592,-4.4076,-4.3785,-4.3785,-4.5312,-4.6622,-4.8079,-4.9047,-4.9204,-4.7834,-4.6934,-4.6371,-4.5793,-4.5089,-4.5352,-4.5596,-4.6706,-4.7645,-4.6545,-4.5941,-4.0684,-4.1172,-4.1172,-4.1172,-4.1191,-4.1289,-4.1523,-4.1855,-4.2402,-4.2793,-4.3105,-4.3476,-4.3691,-4.3691,-4.3691,-4.3691,-4.3691,-4.3691,-4.3691,-4.3691,-4.3691,-4.3691,-4.3691,-4.3691,-4.3691,-4.3691,-4.3691,-4.3691,-4.3691,-4.3691,-4.3691,-4.3691,-4.3691,-4.3789,-4.3867,-4.3926,-4.3984,-4.4141,-4.4004,-4.3926,-4.3906,-4.3906,-4.3984,-4.4043,-4.4062,-4.4121,-4.4355,-4.4394,-4.4739,-4.543,-4.6118,-4.6328,-4.5644,-4.6924,-4.7976,-4.773,-4.889,-5.0916,-5.3251,-5.4646,-5.5263,-5.5582,-5.6047,-5.6219,-5.6219,-5.6219,-5.6219,-5.6219,-5.6219,-5.6219,-5.5901,-5.4794,-5.3828,-5.2096,-4.9964,-4.8259,-4.6867,-4.6405,-4.6103,-4.6244,-4.7645,-4.983,-5.1675,-5.3306,-5.4401,-5.5376,-5.5491,-5.5052,-5.4708,-5.4315,-5.391,-5.3839,-5.1082,-4.832,-4.7333,-4.5975,-4.4598,-4.3691,-4.3691,-4.4021,-4.5434,-4.6082,-4.6706,-4.6545,-4.6405,-4.6343,-4.6057,-4.4885,-4.3691,-4.433,-4.4802,-4.4965,-4.4965,-4.4186,-4.3915,-4.041,-4.1172,-4.1172,-4.1172,-4.1191,-4.1601,-4.1758,-4.1816,-4.2637,-4.3008,-4.3183,-4.3496,-4.3691,-4.3691,-4.3691,-4.3691,-4.3691,-4.3691,-4.3691,-4.3691,-4.3691,-4.3691,-4.3691,-4.3691,-4.3691,-4.3691,-4.3691,-4.3691,-4.3691,-4.3691,-4.3691,-4.3691,-4.3691,-4.3984,-4.4199,-4.4297,-4.4492,-4.4609,-4.4492,-4.4316,-4.4297,-4.4316,-4.4433,-4.4746,-4.4922,-4.5254,-4.5976,-4.5351,-4.5195,-4.5781,-4.5786,-4.5639,-4.5221,-4.5457,-4.5901,-4.6554,-4.6852,-4.841,-5.0121,-5.2541,-5.3401,-5.4025,-5.4967,-5.6219,-5.6219,-5.6219,-5.6219,-5.6219,-5.6219,-5.6219,-5.6219,-5.5901,-5.4819,-5.3401,-5.1532,-4.9986,-4.7942,-4.5616,-4.5148,-4.4658,-4.5758,-4.7804,-4.983,-5.1378,-5.3576,-5.4549,-5.4991,-5.4696,-5.3984,-5.3394,-5.2419,-5.1393,-4.9072,-4.722,-4.6922,-4.5596,-4.4166,-4.3691,-4.3691,-4.3691,-4.4186,-4.4494,-4.5128,-4.5291,-4.5454,-4.5596,-4.5596,-4.4494,-4.3691,-4.3691,-4.3856,-4.4225,-4.4469,-4.4052,-4.3906,-4.0078,-4.043,-4.0937,-4.1172,-4.1191,-4.1348,-4.1406,-4.1562,-4.2305,-4.3008,-4.3457,-4.3633,-4.3691,-4.3691,-4.3691,-4.3691,-4.3691,-4.3691,-4.3691,-4.3691,-4.3691,-4.3691,-4.3691,-4.3691,-4.3691,-4.3691,-4.3691,-4.3691,-4.3691,-4.3691,-4.3691,-4.3691,-4.375,-4.3984,-4.4277,-4.4687,-4.4922,-4.4961,-4.4863,-4.4707,-4.4414,-4.4394,-4.4473,-4.4609,-4.4648,-4.4922,-4.5371,-4.5488,-4.5644,-4.5742,-4.5566,-4.5469,-4.5293,-4.4785,-4.4996,-4.5689,-4.5694,-4.6065,-4.7385,-5.0523,-5.3576,-5.4967,-5.5754,-5.6072,-5.5951,-5.6072,-5.6219,-5.6219,-5.6219,-5.6219,-5.6219,-5.6194,-5.5582,-5.4646,-5.3251,-5.1532,-4.9518,-4.7027,-4.5454,-4.5454,-4.5148,-4.5758,-4.7486,-4.9361,-5.1555,-5.3552,-5.3876,-5.4025,-5.3251,-5.2622,-5.1708,-5.0142,-4.7963,-4.6706,-4.6223,-4.5128,-4.3691,-4.3691,-4.3691,-4.3691,-4.3691,-4.3691,-4.4166,-4.4494,-4.4494,-4.4658,-4.4494,-4.4186,-4.3856,-4.3691,-4.375,-4.3828,-4.3926,-4.4082,-4.418,-3.9766,-3.998,-4.0684,-4.1055,-4.1152,-4.1172,-4.1172,-4.1289,-4.1933,-4.2715,-4.3516,-4.3613,-4.3691,-4.3691,-4.3691,-4.3691,-4.3691,-4.3691,-4.3691,-4.3691,-4.3691,-4.3691,-4.3691,-4.3691,-4.3691,-4.3691,-4.3691,-4.3691,-4.3691,-4.3691,-4.3828,-4.3906,-4.3945,-4.4219,-4.4629,-4.5117,-4.541,-4.5391,-4.5234,-4.5117,-4.4824,-4.4824,-4.4824,-4.4922,-4.5039,-4.5254,-4.5586,-4.5762,-4.5859,-4.5937,-4.5859,-4.5781,-4.5508,-4.5215,-4.4941,-4.4863,-4.4785,-4.459,-4.5916,-4.8318,-5.227,-5.3409,-5.3991,-5.4616,-5.5188,-5.5386,-5.5115,-5.6219,-5.6219,-5.6219,-5.6219,-5.6219,-5.6219,-5.5263,-5.3726,-5.2166,-5.0916,-4.889,-4.7507,-4.6587,-4.5779,-4.4658,-4.6223,-4.8259,-5.0297,-5.2319,-5.3401,-5.31,-5.1861,-5.1378,-5.0916,-4.9361,-4.7326,-4.6384,-4.5758,-4.4638,-4.3691,-4.3691,-4.3691,-4.3691,-4.3691,-4.3691,-4.3691,-4.4021,-4.4021,-4.3691,-4.3711,-4.3896,-4.3711,-4.3691,-4.3867,-4.4101,-4.4199,-4.4375,-4.4629,-3.9492,-3.9922,-4.0371,-4.0781,-4.1152,-4.1172,-4.1172,-4.125,-4.1719,-4.2402,-4.3223,-4.3555,-4.3691,-4.3691,-4.3691,-4.3691,-4.3691,-4.3691,-4.3691,-4.3691,-4.3691,-4.3691,-4.3691,-4.3691,-4.3691,-4.3691,-4.3691,-4.3691,-4.3691,-4.3691,-4.3926,-4.4199,-4.4297,-4.459,-4.5058,-4.584,-4.623,-4.6191,-4.582,-4.5644,-4.5508,-4.5449,-4.5449,-4.5508,-4.5683,-4.582,-4.6016,-4.6074,-4.6152,-4.6152,-4.6172,-4.6055,-4.5742,-4.5625,-4.5391,-4.5156,-4.5098,-4.5019,-4.532,-4.6845,-4.9059,-5.1199,-5.2115,-5.2426,-5.3283,-5.3784,-5.4146,-5.5485,-5.6097,-5.6244,-5.6244,-5.6219,-5.6219,-5.5928,-5.4567,-5.3497,-5.2436,-5.0142,-4.8597,-4.7347,-4.5616,-4.433,-4.5758,-4.7326,-4.9204,-5.0916,-5.2471,-5.2166,-5.0607,-4.983,-4.9518,-4.8417,-4.6545,-4.5434,-4.4638,-4.4166,-4.3691,-4.3691,-4.3691,-4.3691,-4.3691,-4.3691,-4.3691,-4.3711,-4.3828,-4.3926,-4.3848,-4.3769,-4.3945,-4.416,-4.4258,-4.4453,-4.4551,-4.4726,-4.5039,-3.9473,-3.9941,-4.0351,-4.0762,-4.1133,-4.1172,-4.1172,-4.1289,-4.1914,-4.2695,-4.3379,-4.3672,-4.3691,-4.3691,-4.3691,-4.3691,-4.3691,-4.3691,-4.3691,-4.3691,-4.3691,-4.3691,-4.3691,-4.3691,-4.3691,-4.3691,-4.3691,-4.3691,-4.3691,-4.3691,-4.375,-4.3984,-4.4648,-4.5039,-4.5469,-4.6035,-4.6289,-4.6289,-4.6113,-4.5976,-4.5723,-4.5683,-4.5703,-4.5703,-4.5879,-4.6074,-4.6289,-4.6308,-4.6348,-4.6328,-4.6308,-4.625,-4.6016,-4.5898,-4.5762,-4.5703,-4.5683,-4.5469,-4.5449,-4.6405,-4.7838,-4.9762,-5.0739,-5.1059,-5.1945,-5.3116,-5.3847,-5.4636,-5.5559,-5.6053,-5.6671,-5.6369,-5.642,-5.7022,-5.6277,-5.5757,-5.4514,-5.1339,-4.9069,-4.8122,-4.6545,-4.5495,-4.5982,-4.5758,-4.7166,-4.7942,-4.9204,-4.9518,-4.8259,-4.8122,-4.7826,-4.7027,-4.5779,-4.4494,-4.3691,-4.3691,-4.3691,-4.3691,-4.3691,-4.3691,-4.3691,-4.3769,-4.3808,-4.3887,-4.4043,-4.416,-4.4199,-4.4277,-4.4512,-4.4687,-4.4824,-4.4961,-4.5098,-4.5312,-4.5566,-4.0671,-4.1539,-4.1263,-4.1554,-4.1822,-4.1404,-4.1172,-4.1328,-4.2051,-4.2754,-4.3223,-4.3516,-4.3691,-4.3691,-4.3691,-4.3691,-4.3691,-4.3691,-4.3691,-4.3691,-4.3691,-4.3691,-4.3691,-4.3691,-4.3691,-4.3691,-4.3691,-4.3691,-4.3691,-4.3691,-4.3945,-4.4394,-4.5,-4.5566,-4.5937,-4.6172,-4.6308,-4.6289,-4.623,-4.6152,-4.5976,-4.5918,-4.5918,-4.5918,-4.5976,-4.6055,-4.6269,-4.6387,-4.6445,-4.6387,-4.6406,-4.6426,-4.6269,-4.6133,-4.6113,-4.6269,-4.6308,-4.6055,-4.5918,-4.5879,-4.7338,-4.8798,-4.9417,-4.9782,-5.0164,-5.0921,-5.264,-5.372,-5.5029,-5.6253,-5.7024,-5.6673,-5.7022,-5.765,-5.7524,-5.7024,-5.6103,-5.3082,-5.0456,-4.9469,-4.758,-4.6795,-4.5657,-4.5005,-4.4802,-4.5454,-4.5941,-4.6103,-4.6566,-4.6566,-4.6587,-4.5941,-4.5311,-4.4205,-4.3711,-4.3691,-4.3691,-4.3691,-4.373,-4.3789,-4.3965,-4.4082,-4.4062,-4.4121,-4.4394,-4.4629,-4.4707,-4.4844,-4.5078,-4.5273,-4.543,-4.5566,-4.5683,-4.582,-4.5976,-4.271,-4.4457,-4.3205,-4.2984,-4.3168,-4.1882,-4.1191,-4.1269,-4.207,-4.2461,-4.2558,-4.3418,-4.3691,-4.3691,-4.3691,-4.3691,-4.3691,-4.3691,-4.3691,-4.3691,-4.3691,-4.3691,-4.3691,-4.3691,-4.3691,-4.3691,-4.3691,-4.3691,-4.3711,-4.3828,-4.4238,-4.498,-4.5703,-4.6094,-4.6289,-4.6387,-4.6387,-4.6328,-4.6289,-4.625,-4.6172,-4.6211,-4.6191,-4.6191,-4.6211,-4.623,-4.6406,-4.6601,-4.6562,-4.6562,-4.666,-4.6562,-4.6445,-4.6308,-4.6562,-4.6738,-4.6777,-4.6543,-4.6387,-4.6328,-4.6581,-4.7428,-4.6803,-4.7289,-4.8169,-4.9188,-5.0888,-5.3033,-5.461,-5.6211,-5.7423,-5.7524,-5.7826,-5.7951,-5.7951,-5.765,-5.7299,-5.5307,-5.2744,-5.0748,-4.8209,-4.6619,-4.5317,-4.4346,-4.417,-4.4383,-4.5062,-4.535,-4.5637,-4.5941,-4.5799,-4.5799,-4.5005,-4.408,-4.3769,-4.3808,-4.3887,-4.3965,-4.3926,-4.3984,-4.418,-4.4414,-4.4473,-4.4609,-4.4902,-4.5137,-4.5449,-4.5586,-4.5644,-4.584,-4.5976,-4.5898,-4.5937,-4.6055,-4.6211,-4.352,-4.4693,-4.4264,-4.381,-4.3127,-4.1862,-4.1348,-4.168,-4.2207,-4.2578,-4.293,-4.3457,-4.3691,-4.3691,-4.3691,-4.3691,-4.3691,-4.3691,-4.3691,-4.3691,-4.3691,-4.3691,-4.3691,-4.3691,-4.3691,-4.3691,-4.3691,-4.3711,-4.3789,-4.3945,-4.4609,-4.5469,-4.5957,-4.6328,-4.6582,-4.6738,-4.6523,-4.6367,-4.6308,-4.6308,-4.6308,-4.6308,-4.6308,-4.6308,-4.6308,-4.6308,-4.6406,-4.6758,-4.6699,-4.6465,-4.6738,-4.6719,-4.6348,-4.6308,-4.6426,-4.6445,-4.6484,-4.6504,-4.6699,-4.6738,-4.6836,-4.6973,-4.6758,-4.6581,-4.7287,-4.8248,-4.9753,-5.1841,-5.37,-5.5059,-5.6887,-5.7734,-5.8012,-5.829,-5.8295,-5.8301,-5.7897,-5.6633,-5.4061,-5.1218,-4.8677,-4.6219,-4.4915,-4.4687,-4.4512,-4.4316,-4.4366,-4.466,-4.4892,-4.5227,-4.5371,-4.5227,-4.4978,-4.4288,-4.4023,-4.4023,-4.4141,-4.4219,-4.4219,-4.4336,-4.4648,-4.4863,-4.4922,-4.5117,-4.541,-4.5898,-4.6387,-4.6387,-4.6172,-4.6328,-4.6465,-4.6289,-4.6211,-4.6348,-4.6523,-4.543,-4.6721,-4.6081,-4.5274,-4.4227,-4.2686,-4.233,-4.2637,-4.2466,-4.2598,-4.2871,-4.3437,-4.3691,-4.3691,-4.3691,-4.3691,-4.3691,-4.3691,-4.3691,-4.3691,-4.3691,-4.3691,-4.3691,-4.3691,-4.3691,-4.3691,-4.3691,-4.3691,-4.3848,-4.4199,-4.4785,-4.5332,-4.584,-4.6289,-4.6523,-4.6562,-4.6504,-4.6367,-4.6308,-4.6308,-4.6308,-4.6328,-4.6308,-4.6328,-4.6328,-4.6308,-4.6406,-4.6816,-4.6836,-4.6601,-4.6894,-4.7012,-4.6621,-4.6445,-4.6562,-4.6601,-4.6621,-4.6855,-4.707,-4.6973,-4.7207,-4.7383,-4.7363,-4.7109,-4.7052,-4.7681,-4.9192,-5.0919,-5.2257,-5.368,-5.5706,-5.7582,-5.8216,-5.8827,-5.8961,-5.9106,-5.8345,-5.7432,-5.4807,-5.1756,-4.8937,-4.6285,-4.5117,-4.5098,-4.498,-4.4746,-4.4629,-4.4797,-4.4828,-4.4778,-4.4837,-4.4936,-4.4828,-4.459,-4.4453,-4.4375,-4.4531,-4.4629,-4.4648,-4.4805,-4.5137,-4.5332,-4.541,-4.5644,-4.5957,-4.6387,-4.6738,-4.6719,-4.6601,-4.6777,-4.6953,-4.6914,-4.6777,-4.668,-4.6894,-4.771,-5.0056,-4.8377,-4.6843,-4.5911,-4.4039,-4.361,-4.3877,-4.2743,-4.2402,-4.2598,-4.3281,-4.3633,-4.3672,-4.3691,-4.3691,-4.3691,-4.3691,-4.3691,-4.3691,-4.3691,-4.3691,-4.3691,-4.3691,-4.3691,-4.3691,-4.3711,-4.3769,-4.3906,-4.4297,-4.4785,-4.5098,-4.5703,-4.6211,-4.6504,-4.6543,-4.6582,-4.668,-4.6543,-4.6465,-4.6426,-4.6387,-4.6348,-4.6387,-4.6387,-4.6387,-4.6562,-4.6855,-4.7226,-4.7051,-4.7109,-4.7344,-4.6836,-4.666,-4.6816,-4.6953,-4.6933,-4.7226,-4.7422,-4.7383,-4.748,-4.7617,-4.7656,-4.7598,-4.7464,-4.7248,-4.8606,-5.0291,-5.1694,-5.3003,-5.4893,-5.6069,-5.6748,-5.7424,-5.7919,-5.8216,-5.8153,-5.7133,-5.5415,-5.2367,-4.9528,-4.6876,-4.5625,-4.5605,-4.543,-4.5176,-4.5078,-4.5078,-4.5,-4.4766,-4.4746,-4.4902,-4.498,-4.5,-4.4883,-4.4863,-4.5,-4.5078,-4.5078,-4.5273,-4.5625,-4.5781,-4.5918,-4.623,-4.6562,-4.6641,-4.6836,-4.6933,-4.707,-4.7207,-4.7383,-4.7519,-4.7441,-4.7246,-4.7305,-4.8355,-4.9711,-4.857,-4.7237,-4.5698,-4.4358,-4.397,-4.3987,-4.2601,-4.2129,-4.248,-4.2988,-4.3437,-4.3691,-4.3691,-4.3691,-4.3691,-4.3691,-4.3691,-4.3691,-4.3691,-4.3691,-4.3691,-4.3691,-4.3691,-4.3691,-4.375,-4.3848,-4.4121,-4.457,-4.5078,-4.5527,-4.6055,-4.6465,-4.6641,-4.668,-4.6816,-4.6992,-4.6973,-4.6855,-4.6855,-4.6797,-4.6777,-4.6777,-4.6758,-4.6562,-4.6816,-4.7363,-4.7129,-4.6758,-4.7285,-4.7109,-4.6406,-4.6758,-4.6914,-4.6992,-4.7266,-4.7578,-4.7871,-4.791,-4.8008,-4.8183,-4.8281,-4.8125,-4.7871,-4.75,-4.7998,-4.9785,-5.105,-5.2412,-5.3532,-5.4342,-5.529,-5.599,-5.7031,-5.7472,-5.8064,-5.6917,-5.5753,-5.3003,-5.0143,-4.8155,-4.6729,-4.5996,-4.584,-4.5683,-4.5566,-4.5527,-4.5566,-4.543,-4.5215,-4.5312,-4.543,-4.543,-4.5351,-4.5351,-4.5508,-4.5547,-4.5547,-4.5801,-4.6094,-4.6367,-4.6601,-4.6894,-4.7168,-4.7187,-4.7246,-4.7441,-4.7578,-4.7656,-4.7773,-4.791,-4.8008,-4.7891,-4.793,-4.8435,-4.9057,-4.8305,-4.7628,-4.6534,-4.4651,-4.4336,-4.4849,-4.2611,-4.1875,-4.2441,-4.2891,-4.3301,-4.3652,-4.3691,-4.3691,-4.3691,-4.3691,-4.3691,-4.3691,-4.3691,-4.3691,-4.3691,-4.3691,-4.3691,-4.3691,-4.3711,-4.3887,-4.4199,-4.4512,-4.4941,-4.5469,-4.6094,-4.6523,-4.6641,-4.6816,-4.7031,-4.7246,-4.7344,-4.7461,-4.7422,-4.7344,-4.7246,-4.7207,-4.7012,-4.6816,-4.6973,-4.7422,-4.7109,-4.6738,-4.6992,-4.7285,-4.6973,-4.7148,-4.7344,-4.7461,-4.7637,-4.7851,-4.8223,-4.8398,-4.8437,-4.8594,-4.8711,-4.8476,-4.8496,-4.8144,-4.7969,-4.9371,-4.925,-5.0401,-5.1214,-5.2076,-5.3061,-5.3818,-5.655,-5.8372,-5.8475,-5.7807,-5.5997,-5.3544,-5.0886,-4.849,-4.7041,-4.6191,-4.6133,-4.6387,-4.625,-4.6191,-4.6191,-4.6074,-4.5879,-4.5781,-4.5898,-4.6094,-4.6191,-4.6094,-4.6035,-4.6055,-4.6074,-4.6269,-4.6562,-4.6973,-4.7324,-4.748,-4.7578,-4.7617,-4.7715,-4.7851,-4.793,-4.7988,-4.8125,-4.8281,-4.8379,-4.8476,-4.8496,-4.8159,-4.8426,-4.7786,-4.794,-4.8001,-4.5077,-4.514,-4.6544,-4.3705,-4.2561,-4.3459,-4.3579,-4.3549,-4.3574,-4.3691,-4.3691,-4.3691,-4.3691,-4.3691,-4.3691,-4.3691,-4.3691,-4.3691,-4.3691,-4.3691,-4.3769,-4.3828,-4.3848,-4.3984,-4.4492,-4.5,-4.5176,-4.5527,-4.5957,-4.6328,-4.668,-4.7031,-4.7324,-4.7617,-4.8105,-4.8066,-4.7891,-4.7734,-4.7519,-4.7324,-4.709,-4.7187,-4.7324,-4.7207,-4.6894,-4.6797,-4.7012,-4.7344,-4.748,-4.7793,-4.793,-4.7969,-4.8262,-4.8574,-4.8535,-4.8633,-4.875,-4.8828,-4.8848,-4.8828,-4.873,-4.8718,-4.862,-4.8483,-4.8646,-4.9471,-5.0035,-5.1053,-5.2372,-5.546,-5.8969,-5.8814,-5.8862,-5.6888,-5.4584,-5.2162,-4.9526,-4.7996,-4.7145,-4.6582,-4.6875,-4.6973,-4.6992,-4.6914,-4.6699,-4.6484,-4.6406,-4.6426,-4.6641,-4.6797,-4.6797,-4.6621,-4.6719,-4.6758,-4.6855,-4.6992,-4.7305,-4.7598,-4.7871,-4.7969,-4.7988,-4.8066,-4.8203,-4.8262,-4.8359,-4.8613,-4.8789,-4.8691,-4.8789,-4.8906,-4.7572,-4.7257,-4.7504,-4.7916,-4.8163,-4.654,-4.7182,-4.8747,-4.6904,-4.6395,-4.6394,-4.5472,-4.4661,-4.3691,-4.3691,-4.3691,-4.3691,-4.3691,-4.3691,-4.3691,-4.3691,-4.3691,-4.373,-4.3789,-4.3711,-4.3848,-4.4062,-4.4258,-4.4355,-4.498,-4.543,-4.5527,-4.5937,-4.6211,-4.6328,-4.6719,-4.7148,-4.7461,-4.791,-4.8379,-4.8535,-4.8359,-4.8144,-4.8027,-4.8008,-4.7754,-4.7754,-4.8242,-4.7773,-4.7246,-4.6933,-4.709,-4.7383,-4.7773,-4.8125,-4.8301,-4.834,-4.8535,-4.8711,-4.8711,-4.8789,-4.8808,-4.8848,-4.8848,-4.8848,-4.8848,-4.873,-4.873,-4.8652,-4.8652,-4.9242,-4.9242,-4.9913,-5.1218,-5.3669,-5.7402,-5.9358,-5.9673,-5.9203,-5.6914,-5.4468,-5.2109,-5.0061,-4.8642,-4.7012,-4.7207,-4.7187,-4.7226,-4.7402,-4.7246,-4.707,-4.7031,-4.6973,-4.6894,-4.6914,-4.7246,-4.7226,-4.7344,-4.7422,-4.7441,-4.75,-4.7558,-4.7832,-4.8203,-4.8301,-4.832,-4.8418,-4.8633,-4.875,-4.8887,-4.918,-4.9316,-4.916,-4.9141,-4.9316]}]]